<?xml version="1.0" encoding="UTF-8" standalone="no" ?>
<gpx xmlns="http://www.topografix.com/GPX/1/1" xmlns:xsi="http://www.w3.org/2001/XMLSchema-instance" xsi:schemaLocation="http://www.topografix.com/GPX/1/1 http://www.topografix.com/GPX/1/1/gpx.xsd" version="1.1" creator="VisuGPX - https://www.visugpx.com">
  <metadata>
    <name>Le Tarsimoure OVS</name>
    <desc><![CDATA[Faite en sens inverse des aiguilles d'une montre , pas de difficultés particulières si ce n'est une pente assez raide pour monter sur les crêtes.
N'oublier pas de ranger vos bâtons avant de descendre vers le col de Caille.]]></desc>
  </metadata>
  <trk>
    <name><![CDATA[2017-06-14 Tarsimoure OVS]]></name>
    <trkseg>
      <trkpt lat="44.50577" lon="5.57351">
        <ele>797.55</ele>
        <time>2017-06-14T08:44:32Z</time>
      </trkpt>
      <trkpt lat="44.50576" lon="5.57352">
        <ele>797.55</ele>
        <time>2017-06-14T08:44:33Z</time>
      </trkpt>
      <trkpt lat="44.50576" lon="5.5735">
        <ele>798.51</ele>
        <time>2017-06-14T08:44:51Z</time>
      </trkpt>
      <trkpt lat="44.50574" lon="5.57347">
        <ele>797.07</ele>
        <time>2017-06-14T08:45:04Z</time>
      </trkpt>
      <trkpt lat="44.50576" lon="5.57349">
        <ele>798.03</ele>
        <time>2017-06-14T08:45:18Z</time>
      </trkpt>
      <trkpt lat="44.50576" lon="5.57351">
        <ele>798.03</ele>
        <time>2017-06-14T08:45:33Z</time>
      </trkpt>
      <trkpt lat="44.50575" lon="5.57349">
        <ele>798.03</ele>
        <time>2017-06-14T08:45:46Z</time>
      </trkpt>
      <trkpt lat="44.50577" lon="5.57348">
        <ele>798.03</ele>
        <time>2017-06-14T08:45:58Z</time>
      </trkpt>
      <trkpt lat="44.50578" lon="5.57347">
        <ele>798.03</ele>
        <time>2017-06-14T08:46:13Z</time>
      </trkpt>
      <trkpt lat="44.50574" lon="5.57352">
        <ele>798.03</ele>
        <time>2017-06-14T08:46:28Z</time>
      </trkpt>
      <trkpt lat="44.50577" lon="5.57353">
        <ele>798.03</ele>
        <time>2017-06-14T08:46:41Z</time>
      </trkpt>
      <trkpt lat="44.50582" lon="5.57359">
        <ele>797.55</ele>
        <time>2017-06-14T08:46:55Z</time>
      </trkpt>
      <trkpt lat="44.50583" lon="5.57358">
        <ele>797.55</ele>
        <time>2017-06-14T08:47:12Z</time>
      </trkpt>
      <trkpt lat="44.50581" lon="5.57353">
        <ele>798.03</ele>
        <time>2017-06-14T08:47:26Z</time>
      </trkpt>
      <trkpt lat="44.50582" lon="5.57356">
        <ele>798.03</ele>
        <time>2017-06-14T08:47:44Z</time>
      </trkpt>
      <trkpt lat="44.506" lon="5.5736">
        <ele>797.55</ele>
        <time>2017-06-14T08:48:01Z</time>
      </trkpt>
      <trkpt lat="44.50611" lon="5.57368">
        <ele>794.440979</ele>
        <time>2017-06-14T08:48:12Z</time>
      </trkpt>
      <trkpt lat="44.50615" lon="5.57373">
        <ele>797.55</ele>
        <time>2017-06-14T08:48:25Z</time>
      </trkpt>
      <trkpt lat="44.50613" lon="5.57371">
        <ele>797.07</ele>
        <time>2017-06-14T08:48:28Z</time>
      </trkpt>
      <trkpt lat="44.50598" lon="5.57344">
        <ele>798.03</ele>
        <time>2017-06-14T08:48:45Z</time>
      </trkpt>
      <trkpt lat="44.50584" lon="5.57329">
        <ele>798.03</ele>
        <time>2017-06-14T08:48:59Z</time>
      </trkpt>
      <trkpt lat="44.50581" lon="5.57324">
        <ele>798.03</ele>
        <time>2017-06-14T08:49:02Z</time>
      </trkpt>
      <trkpt lat="44.50565" lon="5.57325">
        <ele>798.51</ele>
        <time>2017-06-14T08:49:17Z</time>
      </trkpt>
      <trkpt lat="44.50562" lon="5.57327">
        <ele>797.55</ele>
        <time>2017-06-14T08:49:32Z</time>
      </trkpt>
      <trkpt lat="44.50563" lon="5.57325">
        <ele>798.99</ele>
        <time>2017-06-14T08:49:52Z</time>
      </trkpt>
      <trkpt lat="44.50565" lon="5.57324">
        <ele>798.51</ele>
        <time>2017-06-14T08:50:01Z</time>
      </trkpt>
      <trkpt lat="44.50568" lon="5.57324">
        <ele>798.51</ele>
        <time>2017-06-14T08:50:13Z</time>
      </trkpt>
      <trkpt lat="44.5057" lon="5.57325">
        <ele>798.51</ele>
        <time>2017-06-14T08:50:15Z</time>
      </trkpt>
      <trkpt lat="44.5057" lon="5.57338">
        <ele>798.51</ele>
        <time>2017-06-14T08:50:26Z</time>
      </trkpt>
      <trkpt lat="44.50584" lon="5.57345">
        <ele>798.03</ele>
        <time>2017-06-14T08:50:38Z</time>
      </trkpt>
      <trkpt lat="44.50595" lon="5.5732">
        <ele>797.55</ele>
        <time>2017-06-14T08:50:56Z</time>
      </trkpt>
      <trkpt lat="44.5059" lon="5.57302">
        <ele>798.03</ele>
        <time>2017-06-14T08:51:09Z</time>
      </trkpt>
      <trkpt lat="44.50577" lon="5.57277">
        <ele>798.51</ele>
        <time>2017-06-14T08:51:27Z</time>
      </trkpt>
      <trkpt lat="44.50565" lon="5.57252">
        <ele>799.95</ele>
        <time>2017-06-14T08:51:46Z</time>
      </trkpt>
      <trkpt lat="44.50547" lon="5.57226">
        <ele>800.92</ele>
        <time>2017-06-14T08:52:08Z</time>
      </trkpt>
      <trkpt lat="44.50534" lon="5.57204">
        <ele>801.88</ele>
        <time>2017-06-14T08:52:25Z</time>
      </trkpt>
      <trkpt lat="44.50524" lon="5.57174">
        <ele>802.84</ele>
        <time>2017-06-14T08:52:44Z</time>
      </trkpt>
      <trkpt lat="44.5052" lon="5.57159">
        <ele>803.8</ele>
        <time>2017-06-14T08:52:54Z</time>
      </trkpt>
      <trkpt lat="44.50516" lon="5.57139">
        <ele>804.28</ele>
        <time>2017-06-14T08:53:07Z</time>
      </trkpt>
      <trkpt lat="44.50521" lon="5.57136">
        <ele>805.24</ele>
        <time>2017-06-14T08:53:13Z</time>
      </trkpt>
      <trkpt lat="44.50528" lon="5.57156">
        <ele>807.16</ele>
        <time>2017-06-14T08:53:31Z</time>
      </trkpt>
      <trkpt lat="44.50533" lon="5.57159">
        <ele>807.64</ele>
        <time>2017-06-14T08:53:45Z</time>
      </trkpt>
      <trkpt lat="44.50537" lon="5.57166">
        <ele>808.61</ele>
        <time>2017-06-14T08:53:56Z</time>
      </trkpt>
      <trkpt lat="44.50541" lon="5.57159">
        <ele>810.05</ele>
        <time>2017-06-14T08:54:04Z</time>
      </trkpt>
      <trkpt lat="44.50541" lon="5.57155">
        <ele>810.53</ele>
        <time>2017-06-14T08:54:07Z</time>
      </trkpt>
      <trkpt lat="44.50542" lon="5.57135">
        <ele>813.89</ele>
        <time>2017-06-14T08:54:24Z</time>
      </trkpt>
      <trkpt lat="44.50546" lon="5.57117">
        <ele>816.78</ele>
        <time>2017-06-14T08:54:41Z</time>
      </trkpt>
      <trkpt lat="44.50549" lon="5.571">
        <ele>819.66</ele>
        <time>2017-06-14T08:54:56Z</time>
      </trkpt>
      <trkpt lat="44.50549" lon="5.57084">
        <ele>822.06</ele>
        <time>2017-06-14T08:55:11Z</time>
      </trkpt>
      <trkpt lat="44.50548" lon="5.57077">
        <ele>823.51</ele>
        <time>2017-06-14T08:55:17Z</time>
      </trkpt>
      <trkpt lat="44.5055" lon="5.57054">
        <ele>825.43</ele>
        <time>2017-06-14T08:55:34Z</time>
      </trkpt>
      <trkpt lat="44.5056" lon="5.57049">
        <ele>827.35</ele>
        <time>2017-06-14T08:55:50Z</time>
      </trkpt>
      <trkpt lat="44.5056" lon="5.57062">
        <ele>830.72</ele>
        <time>2017-06-14T08:56:05Z</time>
      </trkpt>
      <trkpt lat="44.50568" lon="5.57075">
        <ele>832.64</ele>
        <time>2017-06-14T08:56:19Z</time>
      </trkpt>
      <trkpt lat="44.50579" lon="5.57084">
        <ele>835.52</ele>
        <time>2017-06-14T08:56:36Z</time>
      </trkpt>
      <trkpt lat="44.50588" lon="5.57092">
        <ele>837.93</ele>
        <time>2017-06-14T08:56:52Z</time>
      </trkpt>
      <trkpt lat="44.50597" lon="5.57102">
        <ele>840.81</ele>
        <time>2017-06-14T08:57:07Z</time>
      </trkpt>
      <trkpt lat="44.50604" lon="5.57112">
        <ele>843.21</ele>
        <time>2017-06-14T08:57:23Z</time>
      </trkpt>
      <trkpt lat="44.50609" lon="5.57122">
        <ele>846.1</ele>
        <time>2017-06-14T08:57:37Z</time>
      </trkpt>
      <trkpt lat="44.50612" lon="5.57134">
        <ele>848.5</ele>
        <time>2017-06-14T08:57:51Z</time>
      </trkpt>
      <trkpt lat="44.50619" lon="5.57146">
        <ele>851.38</ele>
        <time>2017-06-14T08:58:07Z</time>
      </trkpt>
      <trkpt lat="44.50624" lon="5.57158">
        <ele>854.75</ele>
        <time>2017-06-14T08:58:22Z</time>
      </trkpt>
      <trkpt lat="44.5063" lon="5.57169">
        <ele>857.63</ele>
        <time>2017-06-14T08:58:36Z</time>
      </trkpt>
      <trkpt lat="44.50636" lon="5.57178">
        <ele>860.04</ele>
        <time>2017-06-14T08:58:49Z</time>
      </trkpt>
      <trkpt lat="44.50646" lon="5.57189">
        <ele>861.96</ele>
        <time>2017-06-14T08:59:04Z</time>
      </trkpt>
      <trkpt lat="44.50654" lon="5.572">
        <ele>862.92</ele>
        <time>2017-06-14T08:59:17Z</time>
      </trkpt>
      <trkpt lat="44.50663" lon="5.57207">
        <ele>862.92</ele>
        <time>2017-06-14T08:59:30Z</time>
      </trkpt>
      <trkpt lat="44.50677" lon="5.57197">
        <ele>864.84</ele>
        <time>2017-06-14T08:59:48Z</time>
      </trkpt>
      <trkpt lat="44.50678" lon="5.57193">
        <ele>865.32</ele>
        <time>2017-06-14T09:00:02Z</time>
      </trkpt>
      <trkpt lat="44.50683" lon="5.57187">
        <ele>865.32</ele>
        <time>2017-06-14T09:00:18Z</time>
      </trkpt>
      <trkpt lat="44.50687" lon="5.57183">
        <ele>865.32</ele>
        <time>2017-06-14T09:00:27Z</time>
      </trkpt>
      <trkpt lat="44.50699" lon="5.5717">
        <ele>865.8</ele>
        <time>2017-06-14T09:00:40Z</time>
      </trkpt>
      <trkpt lat="44.5071" lon="5.57166">
        <ele>868.69</ele>
        <time>2017-06-14T09:00:56Z</time>
      </trkpt>
      <trkpt lat="44.50712" lon="5.57152">
        <ele>872.05</ele>
        <time>2017-06-14T09:01:10Z</time>
      </trkpt>
      <trkpt lat="44.50715" lon="5.57137">
        <ele>874.94</ele>
        <time>2017-06-14T09:01:24Z</time>
      </trkpt>
      <trkpt lat="44.50718" lon="5.57123">
        <ele>877.82</ele>
        <time>2017-06-14T09:01:37Z</time>
      </trkpt>
      <trkpt lat="44.50723" lon="5.57117">
        <ele>880.71</ele>
        <time>2017-06-14T09:01:51Z</time>
      </trkpt>
      <trkpt lat="44.5073" lon="5.57097">
        <ele>883.11</ele>
        <time>2017-06-14T09:02:07Z</time>
      </trkpt>
      <trkpt lat="44.50731" lon="5.57095">
        <ele>883.59</ele>
        <time>2017-06-14T09:02:09Z</time>
      </trkpt>
      <trkpt lat="44.5074" lon="5.57084">
        <ele>885.99</ele>
        <time>2017-06-14T09:02:24Z</time>
      </trkpt>
      <trkpt lat="44.50745" lon="5.57071">
        <ele>888.4</ele>
        <time>2017-06-14T09:02:38Z</time>
      </trkpt>
      <trkpt lat="44.50746" lon="5.57057">
        <ele>890.32</ele>
        <time>2017-06-14T09:02:52Z</time>
      </trkpt>
      <trkpt lat="44.50751" lon="5.57047">
        <ele>892.24</ele>
        <time>2017-06-14T09:03:05Z</time>
      </trkpt>
      <trkpt lat="44.50753" lon="5.57041">
        <ele>893.2</ele>
        <time>2017-06-14T09:03:11Z</time>
      </trkpt>
      <trkpt lat="44.50759" lon="5.57032">
        <ele>894.16</ele>
        <time>2017-06-14T09:03:24Z</time>
      </trkpt>
      <trkpt lat="44.50762" lon="5.5703">
        <ele>894.16</ele>
        <time>2017-06-14T09:03:45Z</time>
      </trkpt>
      <trkpt lat="44.50764" lon="5.57028">
        <ele>894.64</ele>
        <time>2017-06-14T09:04:01Z</time>
      </trkpt>
      <trkpt lat="44.50763" lon="5.57026">
        <ele>894.64</ele>
        <time>2017-06-14T09:04:19Z</time>
      </trkpt>
      <trkpt lat="44.50767" lon="5.57027">
        <ele>897.05</ele>
        <time>2017-06-14T09:04:35Z</time>
      </trkpt>
      <trkpt lat="44.50773" lon="5.57028">
        <ele>900.41</ele>
        <time>2017-06-14T09:04:47Z</time>
      </trkpt>
      <trkpt lat="44.50784" lon="5.57026">
        <ele>903.3</ele>
        <time>2017-06-14T09:05:01Z</time>
      </trkpt>
      <trkpt lat="44.5079" lon="5.57018">
        <ele>906.18</ele>
        <time>2017-06-14T09:05:14Z</time>
      </trkpt>
      <trkpt lat="44.50785" lon="5.57002">
        <ele>908.1</ele>
        <time>2017-06-14T09:05:28Z</time>
      </trkpt>
      <trkpt lat="44.5078" lon="5.56985">
        <ele>910.03</ele>
        <time>2017-06-14T09:05:42Z</time>
      </trkpt>
      <trkpt lat="44.50779" lon="5.56983">
        <ele>910.51</ele>
        <time>2017-06-14T09:05:44Z</time>
      </trkpt>
      <trkpt lat="44.50771" lon="5.56965">
        <ele>910.99</ele>
        <time>2017-06-14T09:06:00Z</time>
      </trkpt>
      <trkpt lat="44.50775" lon="5.56951">
        <ele>913.87</ele>
        <time>2017-06-14T09:06:15Z</time>
      </trkpt>
      <trkpt lat="44.50778" lon="5.56937">
        <ele>916.75</ele>
        <time>2017-06-14T09:06:31Z</time>
      </trkpt>
      <trkpt lat="44.50779" lon="5.56926">
        <ele>918.2</ele>
        <time>2017-06-14T09:06:45Z</time>
      </trkpt>
      <trkpt lat="44.50786" lon="5.56914">
        <ele>921.08</ele>
        <time>2017-06-14T09:06:59Z</time>
      </trkpt>
      <trkpt lat="44.50793" lon="5.56901">
        <ele>923</ele>
        <time>2017-06-14T09:07:12Z</time>
      </trkpt>
      <trkpt lat="44.50799" lon="5.56887">
        <ele>924.45</ele>
        <time>2017-06-14T09:07:26Z</time>
      </trkpt>
      <trkpt lat="44.50809" lon="5.56871">
        <ele>926.85</ele>
        <time>2017-06-14T09:07:43Z</time>
      </trkpt>
      <trkpt lat="44.5082" lon="5.56858">
        <ele>929.25</ele>
        <time>2017-06-14T09:07:59Z</time>
      </trkpt>
      <trkpt lat="44.50828" lon="5.56847">
        <ele>931.65</ele>
        <time>2017-06-14T09:08:16Z</time>
      </trkpt>
      <trkpt lat="44.5083" lon="5.56844">
        <ele>931.65</ele>
        <time>2017-06-14T09:08:39Z</time>
      </trkpt>
      <trkpt lat="44.50832" lon="5.5684">
        <ele>932.14</ele>
        <time>2017-06-14T09:08:53Z</time>
      </trkpt>
      <trkpt lat="44.5084" lon="5.56832">
        <ele>933.58</ele>
        <time>2017-06-14T09:09:12Z</time>
      </trkpt>
      <trkpt lat="44.50853" lon="5.56821">
        <ele>935.98</ele>
        <time>2017-06-14T09:09:29Z</time>
      </trkpt>
      <trkpt lat="44.50854" lon="5.5682">
        <ele>935.98</ele>
        <time>2017-06-14T09:09:30Z</time>
      </trkpt>
      <trkpt lat="44.50862" lon="5.56806">
        <ele>937.42</ele>
        <time>2017-06-14T09:09:44Z</time>
      </trkpt>
      <trkpt lat="44.50864" lon="5.56802">
        <ele>937.9</ele>
        <time>2017-06-14T09:09:47Z</time>
      </trkpt>
      <trkpt lat="44.50874" lon="5.56781">
        <ele>939.35</ele>
        <time>2017-06-14T09:10:04Z</time>
      </trkpt>
      <trkpt lat="44.50881" lon="5.56768">
        <ele>941.27</ele>
        <time>2017-06-14T09:10:17Z</time>
      </trkpt>
      <trkpt lat="44.50888" lon="5.56756">
        <ele>943.19</ele>
        <time>2017-06-14T09:10:32Z</time>
      </trkpt>
      <trkpt lat="44.50897" lon="5.56738">
        <ele>944.15</ele>
        <time>2017-06-14T09:10:48Z</time>
      </trkpt>
      <trkpt lat="44.50904" lon="5.56717">
        <ele>943.67</ele>
        <time>2017-06-14T09:11:05Z</time>
      </trkpt>
      <trkpt lat="44.50913" lon="5.56711">
        <ele>947.04</ele>
        <time>2017-06-14T09:11:21Z</time>
      </trkpt>
      <trkpt lat="44.50928" lon="5.56709">
        <ele>949.92</ele>
        <time>2017-06-14T09:11:39Z</time>
      </trkpt>
      <trkpt lat="44.50936" lon="5.567">
        <ele>950.88</ele>
        <time>2017-06-14T09:11:53Z</time>
      </trkpt>
      <trkpt lat="44.50946" lon="5.56686">
        <ele>952.32</ele>
        <time>2017-06-14T09:12:08Z</time>
      </trkpt>
      <trkpt lat="44.50956" lon="5.5669">
        <ele>953.77</ele>
        <time>2017-06-14T09:12:20Z</time>
      </trkpt>
      <trkpt lat="44.50969" lon="5.56697">
        <ele>955.69</ele>
        <time>2017-06-14T09:12:34Z</time>
      </trkpt>
      <trkpt lat="44.50978" lon="5.56695">
        <ele>956.17</ele>
        <time>2017-06-14T09:12:45Z</time>
      </trkpt>
      <trkpt lat="44.50986" lon="5.56685">
        <ele>955.21</ele>
        <time>2017-06-14T09:13:00Z</time>
      </trkpt>
      <trkpt lat="44.50995" lon="5.56682">
        <ele>953.77</ele>
        <time>2017-06-14T09:13:13Z</time>
      </trkpt>
      <trkpt lat="44.51014" lon="5.56668">
        <ele>952.8</ele>
        <time>2017-06-14T09:13:27Z</time>
      </trkpt>
      <trkpt lat="44.51018" lon="5.56664">
        <ele>952.8</ele>
        <time>2017-06-14T09:13:30Z</time>
      </trkpt>
      <trkpt lat="44.51029" lon="5.56649">
        <ele>951.36</ele>
        <time>2017-06-14T09:13:43Z</time>
      </trkpt>
      <trkpt lat="44.51041" lon="5.56629">
        <ele>949.92</ele>
        <time>2017-06-14T09:14:00Z</time>
      </trkpt>
      <trkpt lat="44.51056" lon="5.56619">
        <ele>948.96</ele>
        <time>2017-06-14T09:14:15Z</time>
      </trkpt>
      <trkpt lat="44.51069" lon="5.5661">
        <ele>948.96</ele>
        <time>2017-06-14T09:14:29Z</time>
      </trkpt>
      <trkpt lat="44.51076" lon="5.56607">
        <ele>948.96</ele>
        <time>2017-06-14T09:14:36Z</time>
      </trkpt>
      <trkpt lat="44.51101" lon="5.56591">
        <ele>948.96</ele>
        <time>2017-06-14T09:14:56Z</time>
      </trkpt>
      <trkpt lat="44.51103" lon="5.56587">
        <ele>948.96</ele>
        <time>2017-06-14T09:14:59Z</time>
      </trkpt>
      <trkpt lat="44.51107" lon="5.56578">
        <ele>949.44</ele>
        <time>2017-06-14T09:15:14Z</time>
      </trkpt>
      <trkpt lat="44.51107" lon="5.56575">
        <ele>949.92</ele>
        <time>2017-06-14T09:15:30Z</time>
      </trkpt>
      <trkpt lat="44.51105" lon="5.56575">
        <ele>949.92</ele>
        <time>2017-06-14T09:15:46Z</time>
      </trkpt>
      <trkpt lat="44.51107" lon="5.56568">
        <ele>949.92</ele>
        <time>2017-06-14T09:16:08Z</time>
      </trkpt>
      <trkpt lat="44.5111" lon="5.56564">
        <ele>949.92</ele>
        <time>2017-06-14T09:16:24Z</time>
      </trkpt>
      <trkpt lat="44.51111" lon="5.56565">
        <ele>949.44</ele>
        <time>2017-06-14T09:16:40Z</time>
      </trkpt>
      <trkpt lat="44.51112" lon="5.56564">
        <ele>949.44</ele>
        <time>2017-06-14T09:17:01Z</time>
      </trkpt>
      <trkpt lat="44.51113" lon="5.56563">
        <ele>949.44</ele>
        <time>2017-06-14T09:17:22Z</time>
      </trkpt>
      <trkpt lat="44.51114" lon="5.56565">
        <ele>949.44</ele>
        <time>2017-06-14T09:17:41Z</time>
      </trkpt>
      <trkpt lat="44.51114" lon="5.56563">
        <ele>949.44</ele>
        <time>2017-06-14T09:18:01Z</time>
      </trkpt>
      <trkpt lat="44.51115" lon="5.56562">
        <ele>949.44</ele>
        <time>2017-06-14T09:18:03Z</time>
      </trkpt>
      <trkpt lat="44.51124" lon="5.56548">
        <ele>951.36</ele>
        <time>2017-06-14T09:18:20Z</time>
      </trkpt>
      <trkpt lat="44.51132" lon="5.56539">
        <ele>951.84</ele>
        <time>2017-06-14T09:18:33Z</time>
      </trkpt>
      <trkpt lat="44.51144" lon="5.56525">
        <ele>953.77</ele>
        <time>2017-06-14T09:18:51Z</time>
      </trkpt>
      <trkpt lat="44.51154" lon="5.56511">
        <ele>956.17</ele>
        <time>2017-06-14T09:19:07Z</time>
      </trkpt>
      <trkpt lat="44.51165" lon="5.56492">
        <ele>959.05</ele>
        <time>2017-06-14T09:19:26Z</time>
      </trkpt>
      <trkpt lat="44.5117" lon="5.56486">
        <ele>960.01</ele>
        <time>2017-06-14T09:19:41Z</time>
      </trkpt>
      <trkpt lat="44.51178" lon="5.56467">
        <ele>961.46</ele>
        <time>2017-06-14T09:19:56Z</time>
      </trkpt>
      <trkpt lat="44.5119" lon="5.56448">
        <ele>961.94</ele>
        <time>2017-06-14T09:20:12Z</time>
      </trkpt>
      <trkpt lat="44.51201" lon="5.56424">
        <ele>961.46</ele>
        <time>2017-06-14T09:20:30Z</time>
      </trkpt>
      <trkpt lat="44.51216" lon="5.564">
        <ele>961.94</ele>
        <time>2017-06-14T09:20:49Z</time>
      </trkpt>
      <trkpt lat="44.51222" lon="5.56378">
        <ele>964.34</ele>
        <time>2017-06-14T09:21:05Z</time>
      </trkpt>
      <trkpt lat="44.51224" lon="5.56359">
        <ele>966.26</ele>
        <time>2017-06-14T09:21:18Z</time>
      </trkpt>
      <trkpt lat="44.51231" lon="5.56334">
        <ele>967.7</ele>
        <time>2017-06-14T09:21:34Z</time>
      </trkpt>
      <trkpt lat="44.51241" lon="5.56314">
        <ele>969.15</ele>
        <time>2017-06-14T09:21:50Z</time>
      </trkpt>
      <trkpt lat="44.51254" lon="5.563">
        <ele>971.55</ele>
        <time>2017-06-14T09:22:06Z</time>
      </trkpt>
      <trkpt lat="44.51257" lon="5.56298">
        <ele>971.55</ele>
        <time>2017-06-14T09:22:09Z</time>
      </trkpt>
      <trkpt lat="44.5127" lon="5.56278">
        <ele>972.03</ele>
        <time>2017-06-14T09:22:26Z</time>
      </trkpt>
      <trkpt lat="44.51279" lon="5.56257">
        <ele>973.47</ele>
        <time>2017-06-14T09:22:42Z</time>
      </trkpt>
      <trkpt lat="44.51281" lon="5.56252">
        <ele>974.43</ele>
        <time>2017-06-14T09:22:48Z</time>
      </trkpt>
      <trkpt lat="44.51291" lon="5.56228">
        <ele>974.43</ele>
        <time>2017-06-14T09:23:06Z</time>
      </trkpt>
      <trkpt lat="44.51301" lon="5.56212">
        <ele>974.91</ele>
        <time>2017-06-14T09:23:22Z</time>
      </trkpt>
      <trkpt lat="44.51314" lon="5.56187">
        <ele>976.36</ele>
        <time>2017-06-14T09:23:41Z</time>
      </trkpt>
      <trkpt lat="44.51316" lon="5.5617">
        <ele>976.36</ele>
        <time>2017-06-14T09:23:51Z</time>
      </trkpt>
      <trkpt lat="44.51324" lon="5.56151">
        <ele>977.32</ele>
        <time>2017-06-14T09:24:06Z</time>
      </trkpt>
      <trkpt lat="44.51336" lon="5.56132">
        <ele>978.28</ele>
        <time>2017-06-14T09:24:23Z</time>
      </trkpt>
      <trkpt lat="44.51349" lon="5.56115">
        <ele>978.76</ele>
        <time>2017-06-14T09:24:38Z</time>
      </trkpt>
      <trkpt lat="44.51362" lon="5.56096">
        <ele>980.2</ele>
        <time>2017-06-14T09:24:56Z</time>
      </trkpt>
      <trkpt lat="44.51375" lon="5.56076">
        <ele>980.2</ele>
        <time>2017-06-14T09:25:13Z</time>
      </trkpt>
      <trkpt lat="44.51384" lon="5.5606">
        <ele>980.68</ele>
        <time>2017-06-14T09:25:26Z</time>
      </trkpt>
      <trkpt lat="44.51399" lon="5.56038">
        <ele>980.2</ele>
        <time>2017-06-14T09:25:45Z</time>
      </trkpt>
      <trkpt lat="44.51408" lon="5.56028">
        <ele>979.72</ele>
        <time>2017-06-14T09:25:59Z</time>
      </trkpt>
      <trkpt lat="44.51413" lon="5.5602">
        <ele>978.28</ele>
        <time>2017-06-14T09:26:09Z</time>
      </trkpt>
      <trkpt lat="44.51424" lon="5.56001">
        <ele>977.8</ele>
        <time>2017-06-14T09:26:24Z</time>
      </trkpt>
      <trkpt lat="44.51434" lon="5.55988">
        <ele>979.72</ele>
        <time>2017-06-14T09:26:38Z</time>
      </trkpt>
      <trkpt lat="44.51447" lon="5.55969">
        <ele>982.12</ele>
        <time>2017-06-14T09:26:56Z</time>
      </trkpt>
      <trkpt lat="44.51456" lon="5.55947">
        <ele>984.53</ele>
        <time>2017-06-14T09:27:12Z</time>
      </trkpt>
      <trkpt lat="44.51464" lon="5.5593">
        <ele>986.45</ele>
        <time>2017-06-14T09:27:29Z</time>
      </trkpt>
      <trkpt lat="44.51466" lon="5.55924">
        <ele>987.41</ele>
        <time>2017-06-14T09:27:34Z</time>
      </trkpt>
      <trkpt lat="44.51468" lon="5.55914">
        <ele>988.37</ele>
        <time>2017-06-14T09:27:41Z</time>
      </trkpt>
      <trkpt lat="44.51471" lon="5.55892">
        <ele>987.41</ele>
        <time>2017-06-14T09:27:57Z</time>
      </trkpt>
      <trkpt lat="44.51472" lon="5.55872">
        <ele>988.85</ele>
        <time>2017-06-14T09:28:11Z</time>
      </trkpt>
      <trkpt lat="44.51474" lon="5.55853">
        <ele>989.81</ele>
        <time>2017-06-14T09:28:26Z</time>
      </trkpt>
      <trkpt lat="44.51482" lon="5.55836">
        <ele>990.78</ele>
        <time>2017-06-14T09:28:43Z</time>
      </trkpt>
      <trkpt lat="44.51496" lon="5.55825">
        <ele>993.18</ele>
        <time>2017-06-14T09:28:59Z</time>
      </trkpt>
      <trkpt lat="44.51506" lon="5.55818">
        <ele>995.1</ele>
        <time>2017-06-14T09:29:13Z</time>
      </trkpt>
      <trkpt lat="44.51517" lon="5.55817">
        <ele>996.54</ele>
        <time>2017-06-14T09:29:24Z</time>
      </trkpt>
      <trkpt lat="44.5153" lon="5.55814">
        <ele>998.95</ele>
        <time>2017-06-14T09:29:38Z</time>
      </trkpt>
      <trkpt lat="44.51542" lon="5.55799">
        <ele>999.43</ele>
        <time>2017-06-14T09:29:54Z</time>
      </trkpt>
      <trkpt lat="44.51553" lon="5.55789">
        <ele>1000.39</ele>
        <time>2017-06-14T09:30:08Z</time>
      </trkpt>
      <trkpt lat="44.5156" lon="5.55766">
        <ele>999.91</ele>
        <time>2017-06-14T09:30:25Z</time>
      </trkpt>
      <trkpt lat="44.51573" lon="5.55741">
        <ele>999.43</ele>
        <time>2017-06-14T09:30:44Z</time>
      </trkpt>
      <trkpt lat="44.51583" lon="5.55718">
        <ele>998.47</ele>
        <time>2017-06-14T09:31:02Z</time>
      </trkpt>
      <trkpt lat="44.51597" lon="5.55698">
        <ele>997.99</ele>
        <time>2017-06-14T09:31:19Z</time>
      </trkpt>
      <trkpt lat="44.51601" lon="5.55693">
        <ele>997.51</ele>
        <time>2017-06-14T09:31:25Z</time>
      </trkpt>
      <trkpt lat="44.51603" lon="5.55691">
        <ele>997.02</ele>
        <time>2017-06-14T09:31:27Z</time>
      </trkpt>
      <trkpt lat="44.51611" lon="5.55684">
        <ele>997.02</ele>
        <time>2017-06-14T09:31:35Z</time>
      </trkpt>
      <trkpt lat="44.51616" lon="5.55681">
        <ele>997.02</ele>
        <time>2017-06-14T09:31:41Z</time>
      </trkpt>
      <trkpt lat="44.5162" lon="5.55665">
        <ele>998.47</ele>
        <time>2017-06-14T09:31:54Z</time>
      </trkpt>
      <trkpt lat="44.51629" lon="5.5565">
        <ele>1000.87</ele>
        <time>2017-06-14T09:32:08Z</time>
      </trkpt>
      <trkpt lat="44.51636" lon="5.5563">
        <ele>1004.23</ele>
        <time>2017-06-14T09:32:26Z</time>
      </trkpt>
      <trkpt lat="44.51641" lon="5.55608">
        <ele>1006.64</ele>
        <time>2017-06-14T09:32:41Z</time>
      </trkpt>
      <trkpt lat="44.51649" lon="5.55592">
        <ele>1010</ele>
        <time>2017-06-14T09:32:57Z</time>
      </trkpt>
      <trkpt lat="44.51658" lon="5.55579">
        <ele>1012.89</ele>
        <time>2017-06-14T09:33:13Z</time>
      </trkpt>
      <trkpt lat="44.51669" lon="5.5557">
        <ele>1015.29</ele>
        <time>2017-06-14T09:33:29Z</time>
      </trkpt>
      <trkpt lat="44.51682" lon="5.55566">
        <ele>1018.65</ele>
        <time>2017-06-14T09:33:47Z</time>
      </trkpt>
      <trkpt lat="44.51694" lon="5.5556">
        <ele>1021.06</ele>
        <time>2017-06-14T09:34:04Z</time>
      </trkpt>
      <trkpt lat="44.51704" lon="5.55554">
        <ele>1022.98</ele>
        <time>2017-06-14T09:34:18Z</time>
      </trkpt>
      <trkpt lat="44.51715" lon="5.55536">
        <ele>1024.42</ele>
        <time>2017-06-14T09:34:33Z</time>
      </trkpt>
      <trkpt lat="44.51726" lon="5.55528">
        <ele>1026.83</ele>
        <time>2017-06-14T09:34:48Z</time>
      </trkpt>
      <trkpt lat="44.51737" lon="5.55512">
        <ele>1029.23</ele>
        <time>2017-06-14T09:35:04Z</time>
      </trkpt>
      <trkpt lat="44.51742" lon="5.55501">
        <ele>1032.11</ele>
        <time>2017-06-14T09:35:20Z</time>
      </trkpt>
      <trkpt lat="44.51749" lon="5.55498">
        <ele>1034.52</ele>
        <time>2017-06-14T09:35:35Z</time>
      </trkpt>
      <trkpt lat="44.51754" lon="5.55497">
        <ele>1035.48</ele>
        <time>2017-06-14T09:35:50Z</time>
      </trkpt>
      <trkpt lat="44.51759" lon="5.55497">
        <ele>1035.96</ele>
        <time>2017-06-14T09:36:10Z</time>
      </trkpt>
      <trkpt lat="44.5177" lon="5.55485">
        <ele>1036.92</ele>
        <time>2017-06-14T09:36:24Z</time>
      </trkpt>
      <trkpt lat="44.51779" lon="5.55475">
        <ele>1038.84</ele>
        <time>2017-06-14T09:36:39Z</time>
      </trkpt>
      <trkpt lat="44.51786" lon="5.55466">
        <ele>1039.32</ele>
        <time>2017-06-14T09:36:49Z</time>
      </trkpt>
      <trkpt lat="44.51794" lon="5.55452">
        <ele>1042.21</ele>
        <time>2017-06-14T09:37:05Z</time>
      </trkpt>
      <trkpt lat="44.518" lon="5.55435">
        <ele>1044.13</ele>
        <time>2017-06-14T09:37:20Z</time>
      </trkpt>
      <trkpt lat="44.51809" lon="5.55418">
        <ele>1046.53</ele>
        <time>2017-06-14T09:37:35Z</time>
      </trkpt>
      <trkpt lat="44.51821" lon="5.55401">
        <ele>1048.45</ele>
        <time>2017-06-14T09:37:49Z</time>
      </trkpt>
      <trkpt lat="44.51832" lon="5.5539">
        <ele>1051.34</ele>
        <time>2017-06-14T09:38:05Z</time>
      </trkpt>
      <trkpt lat="44.51842" lon="5.55375">
        <ele>1053.26</ele>
        <time>2017-06-14T09:38:19Z</time>
      </trkpt>
      <trkpt lat="44.51855" lon="5.55361">
        <ele>1054.7</ele>
        <time>2017-06-14T09:38:34Z</time>
      </trkpt>
      <trkpt lat="44.51866" lon="5.5535">
        <ele>1056.15</ele>
        <time>2017-06-14T09:38:48Z</time>
      </trkpt>
      <trkpt lat="44.51874" lon="5.55338">
        <ele>1058.55</ele>
        <time>2017-06-14T09:39:03Z</time>
      </trkpt>
      <trkpt lat="44.51878" lon="5.55327">
        <ele>1059.03</ele>
        <time>2017-06-14T09:39:16Z</time>
      </trkpt>
      <trkpt lat="44.51883" lon="5.55315">
        <ele>1059.51</ele>
        <time>2017-06-14T09:39:31Z</time>
      </trkpt>
      <trkpt lat="44.51883" lon="5.55309">
        <ele>1059.99</ele>
        <time>2017-06-14T09:39:48Z</time>
      </trkpt>
      <trkpt lat="44.51887" lon="5.553">
        <ele>1060.47</ele>
        <time>2017-06-14T09:39:56Z</time>
      </trkpt>
      <trkpt lat="44.5189" lon="5.55288">
        <ele>1060.47</ele>
        <time>2017-06-14T09:40:07Z</time>
      </trkpt>
      <trkpt lat="44.51897" lon="5.55268">
        <ele>1060.95</ele>
        <time>2017-06-14T09:40:22Z</time>
      </trkpt>
      <trkpt lat="44.51896" lon="5.55268">
        <ele>1060.95</ele>
        <time>2017-06-14T09:40:23Z</time>
      </trkpt>
      <trkpt lat="44.51898" lon="5.55266">
        <ele>1060.95</ele>
        <time>2017-06-14T09:40:25Z</time>
      </trkpt>
      <trkpt lat="44.51912" lon="5.55244">
        <ele>1062.39</ele>
        <time>2017-06-14T09:40:43Z</time>
      </trkpt>
      <trkpt lat="44.51913" lon="5.55243">
        <ele>1062.87</ele>
        <time>2017-06-14T09:40:44Z</time>
      </trkpt>
      <trkpt lat="44.51933" lon="5.55224">
        <ele>1063.84</ele>
        <time>2017-06-14T09:41:03Z</time>
      </trkpt>
      <trkpt lat="44.51951" lon="5.55208">
        <ele>1065.28</ele>
        <time>2017-06-14T09:41:21Z</time>
      </trkpt>
      <trkpt lat="44.51954" lon="5.55186">
        <ele>1064.32</ele>
        <time>2017-06-14T09:41:37Z</time>
      </trkpt>
      <trkpt lat="44.51961" lon="5.55159">
        <ele>1065.28</ele>
        <time>2017-06-14T09:41:52Z</time>
      </trkpt>
      <trkpt lat="44.51965" lon="5.55132">
        <ele>1066.24</ele>
        <time>2017-06-14T09:42:07Z</time>
      </trkpt>
      <trkpt lat="44.51976" lon="5.55112">
        <ele>1067.2</ele>
        <time>2017-06-14T09:42:22Z</time>
      </trkpt>
      <trkpt lat="44.51987" lon="5.55097">
        <ele>1068.64</ele>
        <time>2017-06-14T09:42:34Z</time>
      </trkpt>
      <trkpt lat="44.51993" lon="5.55083">
        <ele>1069.12</ele>
        <time>2017-06-14T09:42:45Z</time>
      </trkpt>
      <trkpt lat="44.52012" lon="5.55078">
        <ele>1068.16</ele>
        <time>2017-06-14T09:43:02Z</time>
      </trkpt>
      <trkpt lat="44.52039" lon="5.55062">
        <ele>1070.08</ele>
        <time>2017-06-14T09:43:22Z</time>
      </trkpt>
      <trkpt lat="44.52057" lon="5.55059">
        <ele>1072.49</ele>
        <time>2017-06-14T09:43:36Z</time>
      </trkpt>
      <trkpt lat="44.52071" lon="5.55052">
        <ele>1073.93</ele>
        <time>2017-06-14T09:43:49Z</time>
      </trkpt>
      <trkpt lat="44.52083" lon="5.55044">
        <ele>1075.85</ele>
        <time>2017-06-14T09:44:03Z</time>
      </trkpt>
      <trkpt lat="44.52092" lon="5.55037">
        <ele>1076.33</ele>
        <time>2017-06-14T09:44:15Z</time>
      </trkpt>
      <trkpt lat="44.52106" lon="5.55029">
        <ele>1078.26</ele>
        <time>2017-06-14T09:44:29Z</time>
      </trkpt>
      <trkpt lat="44.52131" lon="5.55038">
        <ele>1081.14</ele>
        <time>2017-06-14T09:44:44Z</time>
      </trkpt>
      <trkpt lat="44.52149" lon="5.55042">
        <ele>1084.5</ele>
        <time>2017-06-14T09:44:58Z</time>
      </trkpt>
      <trkpt lat="44.52151" lon="5.5504">
        <ele>1084.5</ele>
        <time>2017-06-14T09:45:01Z</time>
      </trkpt>
      <trkpt lat="44.52171" lon="5.55025">
        <ele>1085.95</ele>
        <time>2017-06-14T09:45:18Z</time>
      </trkpt>
      <trkpt lat="44.52187" lon="5.5501">
        <ele>1088.83</ele>
        <time>2017-06-14T09:45:34Z</time>
      </trkpt>
      <trkpt lat="44.52196" lon="5.54991">
        <ele>1091.23</ele>
        <time>2017-06-14T09:45:48Z</time>
      </trkpt>
      <trkpt lat="44.52207" lon="5.54965">
        <ele>1093.16</ele>
        <time>2017-06-14T09:46:07Z</time>
      </trkpt>
      <trkpt lat="44.52219" lon="5.54939">
        <ele>1094.6</ele>
        <time>2017-06-14T09:46:23Z</time>
      </trkpt>
      <trkpt lat="44.5223" lon="5.5492">
        <ele>1094.12</ele>
        <time>2017-06-14T09:46:38Z</time>
      </trkpt>
      <trkpt lat="44.5224" lon="5.5491">
        <ele>1095.08</ele>
        <time>2017-06-14T09:46:55Z</time>
      </trkpt>
      <trkpt lat="44.52243" lon="5.54905">
        <ele>1095.08</ele>
        <time>2017-06-14T09:47:09Z</time>
      </trkpt>
      <trkpt lat="44.52243" lon="5.54895">
        <ele>1095.08</ele>
        <time>2017-06-14T09:47:31Z</time>
      </trkpt>
      <trkpt lat="44.52246" lon="5.54896">
        <ele>1095.08</ele>
        <time>2017-06-14T09:47:47Z</time>
      </trkpt>
      <trkpt lat="44.52247" lon="5.54897">
        <ele>1095.08</ele>
        <time>2017-06-14T09:48:04Z</time>
      </trkpt>
      <trkpt lat="44.52247" lon="5.54895">
        <ele>1095.08</ele>
        <time>2017-06-14T09:48:16Z</time>
      </trkpt>
      <trkpt lat="44.52246" lon="5.54894">
        <ele>1095.08</ele>
        <time>2017-06-14T09:48:33Z</time>
      </trkpt>
      <trkpt lat="44.52246" lon="5.54893">
        <ele>1095.08</ele>
        <time>2017-06-14T09:48:46Z</time>
      </trkpt>
      <trkpt lat="44.52245" lon="5.54896">
        <ele>1095.08</ele>
        <time>2017-06-14T09:49:01Z</time>
      </trkpt>
      <trkpt lat="44.52246" lon="5.54896">
        <ele>1095.08</ele>
        <time>2017-06-14T09:49:16Z</time>
      </trkpt>
      <trkpt lat="44.52246" lon="5.54895">
        <ele>1095.56</ele>
        <time>2017-06-14T09:49:49Z</time>
      </trkpt>
      <trkpt lat="44.5225" lon="5.54896">
        <ele>1095.08</ele>
        <time>2017-06-14T09:50:04Z</time>
      </trkpt>
      <trkpt lat="44.52251" lon="5.54896">
        <ele>1095.08</ele>
        <time>2017-06-14T09:50:17Z</time>
      </trkpt>
      <trkpt lat="44.52262" lon="5.54877">
        <ele>1093.64</ele>
        <time>2017-06-14T09:50:35Z</time>
      </trkpt>
      <trkpt lat="44.52283" lon="5.54851">
        <ele>1091.71</ele>
        <time>2017-06-14T09:50:53Z</time>
      </trkpt>
      <trkpt lat="44.52304" lon="5.54834">
        <ele>1090.75</ele>
        <time>2017-06-14T09:51:10Z</time>
      </trkpt>
      <trkpt lat="44.5232" lon="5.54816">
        <ele>1090.27</ele>
        <time>2017-06-14T09:51:27Z</time>
      </trkpt>
      <trkpt lat="44.52332" lon="5.54804">
        <ele>1089.79</ele>
        <time>2017-06-14T09:51:39Z</time>
      </trkpt>
      <trkpt lat="44.52335" lon="5.548">
        <ele>1089.79</ele>
        <time>2017-06-14T09:51:43Z</time>
      </trkpt>
      <trkpt lat="44.52352" lon="5.54785">
        <ele>1088.83</ele>
        <time>2017-06-14T09:51:59Z</time>
      </trkpt>
      <trkpt lat="44.5236" lon="5.54774">
        <ele>1087.87</ele>
        <time>2017-06-14T09:52:10Z</time>
      </trkpt>
      <trkpt lat="44.52376" lon="5.54755">
        <ele>1085.95</ele>
        <time>2017-06-14T09:52:27Z</time>
      </trkpt>
      <trkpt lat="44.5239" lon="5.54733">
        <ele>1084.99</ele>
        <time>2017-06-14T09:52:43Z</time>
      </trkpt>
      <trkpt lat="44.52408" lon="5.54727">
        <ele>1084.5</ele>
        <time>2017-06-14T09:52:59Z</time>
      </trkpt>
      <trkpt lat="44.52431" lon="5.54717">
        <ele>1084.5</ele>
        <time>2017-06-14T09:53:18Z</time>
      </trkpt>
      <trkpt lat="44.52452" lon="5.54711">
        <ele>1083.54</ele>
        <time>2017-06-14T09:53:35Z</time>
      </trkpt>
      <trkpt lat="44.52471" lon="5.54704">
        <ele>1081.14</ele>
        <time>2017-06-14T09:53:51Z</time>
      </trkpt>
      <trkpt lat="44.52475" lon="5.54703">
        <ele>1081.14</ele>
        <time>2017-06-14T09:53:55Z</time>
      </trkpt>
      <trkpt lat="44.52494" lon="5.54699">
        <ele>1079.7</ele>
        <time>2017-06-14T09:54:14Z</time>
      </trkpt>
      <trkpt lat="44.525" lon="5.54701">
        <ele>1080.18</ele>
        <time>2017-06-14T09:54:19Z</time>
      </trkpt>
      <trkpt lat="44.52513" lon="5.54709">
        <ele>1078.74</ele>
        <time>2017-06-14T09:54:33Z</time>
      </trkpt>
      <trkpt lat="44.52531" lon="5.54729">
        <ele>1078.26</ele>
        <time>2017-06-14T09:54:52Z</time>
      </trkpt>
      <trkpt lat="44.52552" lon="5.54743">
        <ele>1079.22</ele>
        <time>2017-06-14T09:55:10Z</time>
      </trkpt>
      <trkpt lat="44.52557" lon="5.54749">
        <ele>1078.74</ele>
        <time>2017-06-14T09:55:16Z</time>
      </trkpt>
      <trkpt lat="44.52571" lon="5.54772">
        <ele>1077.29</ele>
        <time>2017-06-14T09:55:33Z</time>
      </trkpt>
      <trkpt lat="44.52581" lon="5.54793">
        <ele>1075.85</ele>
        <time>2017-06-14T09:55:48Z</time>
      </trkpt>
      <trkpt lat="44.52597" lon="5.54818">
        <ele>1074.41</ele>
        <time>2017-06-14T09:56:05Z</time>
      </trkpt>
      <trkpt lat="44.52608" lon="5.54834">
        <ele>1074.41</ele>
        <time>2017-06-14T09:56:18Z</time>
      </trkpt>
      <trkpt lat="44.52623" lon="5.54846">
        <ele>1074.41</ele>
        <time>2017-06-14T09:56:33Z</time>
      </trkpt>
      <trkpt lat="44.52642" lon="5.54857">
        <ele>1073.93</ele>
        <time>2017-06-14T09:56:49Z</time>
      </trkpt>
      <trkpt lat="44.52645" lon="5.54861">
        <ele>1073.93</ele>
        <time>2017-06-14T09:56:52Z</time>
      </trkpt>
      <trkpt lat="44.52668" lon="5.54872">
        <ele>1074.41</ele>
        <time>2017-06-14T09:57:08Z</time>
      </trkpt>
      <trkpt lat="44.52684" lon="5.54881">
        <ele>1075.37</ele>
        <time>2017-06-14T09:57:21Z</time>
      </trkpt>
      <trkpt lat="44.52694" lon="5.54887">
        <ele>1076.33</ele>
        <time>2017-06-14T09:57:27Z</time>
      </trkpt>
      <trkpt lat="44.52718" lon="5.54895">
        <ele>1079.22</ele>
        <time>2017-06-14T09:57:48Z</time>
      </trkpt>
      <trkpt lat="44.52734" lon="5.54905">
        <ele>1081.14</ele>
        <time>2017-06-14T09:58:04Z</time>
      </trkpt>
      <trkpt lat="44.52747" lon="5.54909">
        <ele>1083.06</ele>
        <time>2017-06-14T09:58:16Z</time>
      </trkpt>
      <trkpt lat="44.52763" lon="5.54915">
        <ele>1085.47</ele>
        <time>2017-06-14T09:58:33Z</time>
      </trkpt>
      <trkpt lat="44.52782" lon="5.54913">
        <ele>1087.39</ele>
        <time>2017-06-14T09:58:50Z</time>
      </trkpt>
      <trkpt lat="44.52799" lon="5.54921">
        <ele>1090.27</ele>
        <time>2017-06-14T09:59:10Z</time>
      </trkpt>
      <trkpt lat="44.52812" lon="5.54942">
        <ele>1092.68</ele>
        <time>2017-06-14T09:59:30Z</time>
      </trkpt>
      <trkpt lat="44.52832" lon="5.54957">
        <ele>1095.08</ele>
        <time>2017-06-14T09:59:48Z</time>
      </trkpt>
      <trkpt lat="44.5284" lon="5.54955">
        <ele>1096.04</ele>
        <time>2017-06-14T09:59:56Z</time>
      </trkpt>
      <trkpt lat="44.52858" lon="5.54949">
        <ele>1097.48</ele>
        <time>2017-06-14T10:00:13Z</time>
      </trkpt>
      <trkpt lat="44.52865" lon="5.54944">
        <ele>1097</ele>
        <time>2017-06-14T10:00:20Z</time>
      </trkpt>
      <trkpt lat="44.52877" lon="5.54936">
        <ele>1096.52</ele>
        <time>2017-06-14T10:00:33Z</time>
      </trkpt>
      <trkpt lat="44.52884" lon="5.54928">
        <ele>1096.04</ele>
        <time>2017-06-14T10:00:51Z</time>
      </trkpt>
      <trkpt lat="44.52881" lon="5.54918">
        <ele>1098.44</ele>
        <time>2017-06-14T10:01:05Z</time>
      </trkpt>
      <trkpt lat="44.52872" lon="5.54916">
        <ele>1101.33</ele>
        <time>2017-06-14T10:01:19Z</time>
      </trkpt>
      <trkpt lat="44.52861" lon="5.54915">
        <ele>1104.21</ele>
        <time>2017-06-14T10:01:36Z</time>
      </trkpt>
      <trkpt lat="44.52854" lon="5.54909">
        <ele>1106.61</ele>
        <time>2017-06-14T10:01:50Z</time>
      </trkpt>
      <trkpt lat="44.52846" lon="5.54898">
        <ele>1109.5</ele>
        <time>2017-06-14T10:02:07Z</time>
      </trkpt>
      <trkpt lat="44.52843" lon="5.54882">
        <ele>1110.94</ele>
        <time>2017-06-14T10:02:22Z</time>
      </trkpt>
      <trkpt lat="44.52836" lon="5.54868">
        <ele>1114.31</ele>
        <time>2017-06-14T10:02:41Z</time>
      </trkpt>
      <trkpt lat="44.52828" lon="5.54854">
        <ele>1117.19</ele>
        <time>2017-06-14T10:03:00Z</time>
      </trkpt>
      <trkpt lat="44.52831" lon="5.54842">
        <ele>1119.59</ele>
        <time>2017-06-14T10:03:19Z</time>
      </trkpt>
      <trkpt lat="44.52833" lon="5.54828">
        <ele>1121.52</ele>
        <time>2017-06-14T10:03:35Z</time>
      </trkpt>
      <trkpt lat="44.52834" lon="5.54814">
        <ele>1124.4</ele>
        <time>2017-06-14T10:03:52Z</time>
      </trkpt>
      <trkpt lat="44.52829" lon="5.54803">
        <ele>1127.28</ele>
        <time>2017-06-14T10:04:06Z</time>
      </trkpt>
      <trkpt lat="44.52825" lon="5.54792">
        <ele>1129.69</ele>
        <time>2017-06-14T10:04:21Z</time>
      </trkpt>
      <trkpt lat="44.52822" lon="5.5478">
        <ele>1132.57</ele>
        <time>2017-06-14T10:04:38Z</time>
      </trkpt>
      <trkpt lat="44.52819" lon="5.54769">
        <ele>1135.45</ele>
        <time>2017-06-14T10:04:55Z</time>
      </trkpt>
      <trkpt lat="44.52813" lon="5.54761">
        <ele>1138.34</ele>
        <time>2017-06-14T10:05:09Z</time>
      </trkpt>
      <trkpt lat="44.52811" lon="5.54753">
        <ele>1141.22</ele>
        <time>2017-06-14T10:05:26Z</time>
      </trkpt>
      <trkpt lat="44.52809" lon="5.54743">
        <ele>1143.63</ele>
        <time>2017-06-14T10:05:42Z</time>
      </trkpt>
      <trkpt lat="44.52805" lon="5.54736">
        <ele>1146.51</ele>
        <time>2017-06-14T10:05:56Z</time>
      </trkpt>
      <trkpt lat="44.528" lon="5.54726">
        <ele>1149.39</ele>
        <time>2017-06-14T10:06:13Z</time>
      </trkpt>
      <trkpt lat="44.52798" lon="5.54723">
        <ele>1150.84</ele>
        <time>2017-06-14T10:06:28Z</time>
      </trkpt>
      <trkpt lat="44.52799" lon="5.54723">
        <ele>1151.32</ele>
        <time>2017-06-14T10:06:50Z</time>
      </trkpt>
      <trkpt lat="44.52795" lon="5.54718">
        <ele>1153.24</ele>
        <time>2017-06-14T10:07:03Z</time>
      </trkpt>
      <trkpt lat="44.52789" lon="5.54714">
        <ele>1156.12</ele>
        <time>2017-06-14T10:07:17Z</time>
      </trkpt>
      <trkpt lat="44.52785" lon="5.54709">
        <ele>1159.01</ele>
        <time>2017-06-14T10:07:32Z</time>
      </trkpt>
      <trkpt lat="44.52784" lon="5.54704">
        <ele>1161.89</ele>
        <time>2017-06-14T10:07:48Z</time>
      </trkpt>
      <trkpt lat="44.52782" lon="5.54696">
        <ele>1164.29</ele>
        <time>2017-06-14T10:08:03Z</time>
      </trkpt>
      <trkpt lat="44.5278" lon="5.54692">
        <ele>1165.74</ele>
        <time>2017-06-14T10:08:15Z</time>
      </trkpt>
      <trkpt lat="44.52778" lon="5.54691">
        <ele>1166.7</ele>
        <time>2017-06-14T10:08:31Z</time>
      </trkpt>
      <trkpt lat="44.5277" lon="5.54689">
        <ele>1169.58</ele>
        <time>2017-06-14T10:08:49Z</time>
      </trkpt>
      <trkpt lat="44.52768" lon="5.54689">
        <ele>1171.5</ele>
        <time>2017-06-14T10:09:03Z</time>
      </trkpt>
      <trkpt lat="44.52765" lon="5.54692">
        <ele>1172.95</ele>
        <time>2017-06-14T10:09:25Z</time>
      </trkpt>
      <trkpt lat="44.52761" lon="5.54689">
        <ele>1175.83</ele>
        <time>2017-06-14T10:09:40Z</time>
      </trkpt>
      <trkpt lat="44.52759" lon="5.54688">
        <ele>1177.75</ele>
        <time>2017-06-14T10:09:52Z</time>
      </trkpt>
      <trkpt lat="44.52758" lon="5.54684">
        <ele>1179.67</ele>
        <time>2017-06-14T10:10:05Z</time>
      </trkpt>
      <trkpt lat="44.52755" lon="5.5468">
        <ele>1181.12</ele>
        <time>2017-06-14T10:10:19Z</time>
      </trkpt>
      <trkpt lat="44.52751" lon="5.54679">
        <ele>1183.52</ele>
        <time>2017-06-14T10:10:32Z</time>
      </trkpt>
      <trkpt lat="44.52746" lon="5.54682">
        <ele>1185.44</ele>
        <time>2017-06-14T10:10:45Z</time>
      </trkpt>
      <trkpt lat="44.52744" lon="5.5468">
        <ele>1187.37</ele>
        <time>2017-06-14T10:10:56Z</time>
      </trkpt>
      <trkpt lat="44.52741" lon="5.54675">
        <ele>1189.77</ele>
        <time>2017-06-14T10:11:13Z</time>
      </trkpt>
      <trkpt lat="44.52739" lon="5.54667">
        <ele>1191.69</ele>
        <time>2017-06-14T10:11:28Z</time>
      </trkpt>
      <trkpt lat="44.52739" lon="5.54664">
        <ele>1191.69</ele>
        <time>2017-06-14T10:11:32Z</time>
      </trkpt>
      <trkpt lat="44.52744" lon="5.54656">
        <ele>1190.25</ele>
        <time>2017-06-14T10:11:45Z</time>
      </trkpt>
      <trkpt lat="44.52748" lon="5.54649">
        <ele>1191.21</ele>
        <time>2017-06-14T10:11:58Z</time>
      </trkpt>
      <trkpt lat="44.52754" lon="5.54649">
        <ele>1191.69</ele>
        <time>2017-06-14T10:12:11Z</time>
      </trkpt>
      <trkpt lat="44.52752" lon="5.54645">
        <ele>1191.21</ele>
        <time>2017-06-14T10:12:31Z</time>
      </trkpt>
      <trkpt lat="44.52749" lon="5.54641">
        <ele>1190.73</ele>
        <time>2017-06-14T10:12:46Z</time>
      </trkpt>
      <trkpt lat="44.52746" lon="5.54642">
        <ele>1190.73</ele>
        <time>2017-06-14T10:13:07Z</time>
      </trkpt>
      <trkpt lat="44.52751" lon="5.54639">
        <ele>1191.21</ele>
        <time>2017-06-14T10:13:27Z</time>
      </trkpt>
      <trkpt lat="44.52752" lon="5.54639">
        <ele>1191.21</ele>
        <time>2017-06-14T10:13:56Z</time>
      </trkpt>
      <trkpt lat="44.5275" lon="5.5464">
        <ele>1191.21</ele>
        <time>2017-06-14T10:14:20Z</time>
      </trkpt>
      <trkpt lat="44.52752" lon="5.54643">
        <ele>1191.69</ele>
        <time>2017-06-14T10:14:34Z</time>
      </trkpt>
      <trkpt lat="44.52751" lon="5.54641">
        <ele>1191.21</ele>
        <time>2017-06-14T10:15:11Z</time>
      </trkpt>
      <trkpt lat="44.52752" lon="5.54635">
        <ele>1191.21</ele>
        <time>2017-06-14T10:15:21Z</time>
      </trkpt>
      <trkpt lat="44.52753" lon="5.54633">
        <ele>1191.21</ele>
        <time>2017-06-14T10:15:33Z</time>
      </trkpt>
      <trkpt lat="44.52749" lon="5.54634">
        <ele>1191.21</ele>
        <time>2017-06-14T10:15:50Z</time>
      </trkpt>
      <trkpt lat="44.52746" lon="5.54634">
        <ele>1191.21</ele>
        <time>2017-06-14T10:16:08Z</time>
      </trkpt>
      <trkpt lat="44.5275" lon="5.54636">
        <ele>1191.21</ele>
        <time>2017-06-14T10:16:23Z</time>
      </trkpt>
      <trkpt lat="44.52751" lon="5.54637">
        <ele>1191.21</ele>
        <time>2017-06-14T10:16:41Z</time>
      </trkpt>
      <trkpt lat="44.52753" lon="5.54632">
        <ele>1191.21</ele>
        <time>2017-06-14T10:16:59Z</time>
      </trkpt>
      <trkpt lat="44.52753" lon="5.54616">
        <ele>1193.13</ele>
        <time>2017-06-14T10:17:13Z</time>
      </trkpt>
      <trkpt lat="44.5276" lon="5.54604">
        <ele>1193.61</ele>
        <time>2017-06-14T10:17:27Z</time>
      </trkpt>
      <trkpt lat="44.52766" lon="5.54587">
        <ele>1196.02</ele>
        <time>2017-06-14T10:17:41Z</time>
      </trkpt>
      <trkpt lat="44.52773" lon="5.54582">
        <ele>1197.94</ele>
        <time>2017-06-14T10:17:53Z</time>
      </trkpt>
      <trkpt lat="44.52783" lon="5.54575">
        <ele>1198.42</ele>
        <time>2017-06-14T10:18:07Z</time>
      </trkpt>
      <trkpt lat="44.52791" lon="5.54554">
        <ele>1201.3</ele>
        <time>2017-06-14T10:18:21Z</time>
      </trkpt>
      <trkpt lat="44.52794" lon="5.5455">
        <ele>1201.3</ele>
        <time>2017-06-14T10:18:24Z</time>
      </trkpt>
      <trkpt lat="44.52802" lon="5.5453">
        <ele>1201.79</ele>
        <time>2017-06-14T10:18:39Z</time>
      </trkpt>
      <trkpt lat="44.5281" lon="5.54517">
        <ele>1202.27</ele>
        <time>2017-06-14T10:18:50Z</time>
      </trkpt>
      <trkpt lat="44.52825" lon="5.54501">
        <ele>1201.79</ele>
        <time>2017-06-14T10:19:05Z</time>
      </trkpt>
      <trkpt lat="44.52833" lon="5.54491">
        <ele>1203.23</ele>
        <time>2017-06-14T10:19:17Z</time>
      </trkpt>
      <trkpt lat="44.5284" lon="5.54482">
        <ele>1205.15</ele>
        <time>2017-06-14T10:19:29Z</time>
      </trkpt>
      <trkpt lat="44.52841" lon="5.54471">
        <ele>1208.03</ele>
        <time>2017-06-14T10:19:43Z</time>
      </trkpt>
      <trkpt lat="44.52839" lon="5.54455">
        <ele>1210.92</ele>
        <time>2017-06-14T10:19:56Z</time>
      </trkpt>
      <trkpt lat="44.52837" lon="5.54443">
        <ele>1214.28</ele>
        <time>2017-06-14T10:20:09Z</time>
      </trkpt>
      <trkpt lat="44.52824" lon="5.54411">
        <ele>1217.17</ele>
        <time>2017-06-14T10:20:24Z</time>
      </trkpt>
      <trkpt lat="44.52823" lon="5.54404">
        <ele>1219.57</ele>
        <time>2017-06-14T10:20:39Z</time>
      </trkpt>
      <trkpt lat="44.5282" lon="5.54396">
        <ele>1222.45</ele>
        <time>2017-06-14T10:20:55Z</time>
      </trkpt>
      <trkpt lat="44.52819" lon="5.54388">
        <ele>1224.86</ele>
        <time>2017-06-14T10:21:12Z</time>
      </trkpt>
      <trkpt lat="44.52815" lon="5.54382">
        <ele>1227.26</ele>
        <time>2017-06-14T10:21:28Z</time>
      </trkpt>
      <trkpt lat="44.52812" lon="5.54372">
        <ele>1229.66</ele>
        <time>2017-06-14T10:21:45Z</time>
      </trkpt>
      <trkpt lat="44.5281" lon="5.54362">
        <ele>1232.55</ele>
        <time>2017-06-14T10:22:01Z</time>
      </trkpt>
      <trkpt lat="44.52806" lon="5.54354">
        <ele>1234.95</ele>
        <time>2017-06-14T10:22:17Z</time>
      </trkpt>
      <trkpt lat="44.52799" lon="5.54348">
        <ele>1237.35</ele>
        <time>2017-06-14T10:22:32Z</time>
      </trkpt>
      <trkpt lat="44.52799" lon="5.54342">
        <ele>1239.76</ele>
        <time>2017-06-14T10:22:46Z</time>
      </trkpt>
      <trkpt lat="44.528" lon="5.54334">
        <ele>1240.72</ele>
        <time>2017-06-14T10:22:59Z</time>
      </trkpt>
      <trkpt lat="44.52801" lon="5.54326">
        <ele>1240.72</ele>
        <time>2017-06-14T10:23:13Z</time>
      </trkpt>
      <trkpt lat="44.52803" lon="5.54314">
        <ele>1242.16</ele>
        <time>2017-06-14T10:23:26Z</time>
      </trkpt>
      <trkpt lat="44.52801" lon="5.54296">
        <ele>1245.04</ele>
        <time>2017-06-14T10:23:40Z</time>
      </trkpt>
      <trkpt lat="44.52796" lon="5.54282">
        <ele>1247.45</ele>
        <time>2017-06-14T10:23:54Z</time>
      </trkpt>
      <trkpt lat="44.52793" lon="5.54271">
        <ele>1250.33</ele>
        <time>2017-06-14T10:24:12Z</time>
      </trkpt>
      <trkpt lat="44.52789" lon="5.54265">
        <ele>1253.22</ele>
        <time>2017-06-14T10:24:28Z</time>
      </trkpt>
      <trkpt lat="44.52786" lon="5.54263">
        <ele>1255.62</ele>
        <time>2017-06-14T10:24:41Z</time>
      </trkpt>
      <trkpt lat="44.52783" lon="5.54257">
        <ele>1258.02</ele>
        <time>2017-06-14T10:24:57Z</time>
      </trkpt>
      <trkpt lat="44.52782" lon="5.54255">
        <ele>1259.94</ele>
        <time>2017-06-14T10:25:10Z</time>
      </trkpt>
      <trkpt lat="44.52777" lon="5.5425">
        <ele>1262.83</ele>
        <time>2017-06-14T10:25:24Z</time>
      </trkpt>
      <trkpt lat="44.52776" lon="5.5424">
        <ele>1263.79</ele>
        <time>2017-06-14T10:25:39Z</time>
      </trkpt>
      <trkpt lat="44.52774" lon="5.54227">
        <ele>1264.27</ele>
        <time>2017-06-14T10:25:54Z</time>
      </trkpt>
      <trkpt lat="44.52771" lon="5.54221">
        <ele>1266.19</ele>
        <time>2017-06-14T10:26:05Z</time>
      </trkpt>
      <trkpt lat="44.52765" lon="5.54217">
        <ele>1268.6</ele>
        <time>2017-06-14T10:26:17Z</time>
      </trkpt>
      <trkpt lat="44.52765" lon="5.54212">
        <ele>1271.48</ele>
        <time>2017-06-14T10:26:33Z</time>
      </trkpt>
      <trkpt lat="44.5276" lon="5.54204">
        <ele>1274.85</ele>
        <time>2017-06-14T10:26:50Z</time>
      </trkpt>
      <trkpt lat="44.52755" lon="5.54208">
        <ele>1277.25</ele>
        <time>2017-06-14T10:27:06Z</time>
      </trkpt>
      <trkpt lat="44.52753" lon="5.54207">
        <ele>1279.17</ele>
        <time>2017-06-14T10:27:21Z</time>
      </trkpt>
      <trkpt lat="44.52753" lon="5.54206">
        <ele>1280.13</ele>
        <time>2017-06-14T10:27:41Z</time>
      </trkpt>
      <trkpt lat="44.52752" lon="5.542">
        <ele>1282.54</ele>
        <time>2017-06-14T10:27:58Z</time>
      </trkpt>
      <trkpt lat="44.52747" lon="5.54189">
        <ele>1284.46</ele>
        <time>2017-06-14T10:28:13Z</time>
      </trkpt>
      <trkpt lat="44.52743" lon="5.54182">
        <ele>1285.9</ele>
        <time>2017-06-14T10:28:30Z</time>
      </trkpt>
      <trkpt lat="44.52741" lon="5.54168">
        <ele>1288.3</ele>
        <time>2017-06-14T10:28:43Z</time>
      </trkpt>
      <trkpt lat="44.52738" lon="5.54159">
        <ele>1290.23</ele>
        <time>2017-06-14T10:28:59Z</time>
      </trkpt>
      <trkpt lat="44.52736" lon="5.54154">
        <ele>1290.71</ele>
        <time>2017-06-14T10:29:17Z</time>
      </trkpt>
      <trkpt lat="44.52738" lon="5.5415">
        <ele>1290.71</ele>
        <time>2017-06-14T10:29:43Z</time>
      </trkpt>
      <trkpt lat="44.52741" lon="5.54143">
        <ele>1289.75</ele>
        <time>2017-06-14T10:29:57Z</time>
      </trkpt>
      <trkpt lat="44.52741" lon="5.54132">
        <ele>1291.19</ele>
        <time>2017-06-14T10:30:10Z</time>
      </trkpt>
      <trkpt lat="44.52744" lon="5.54122">
        <ele>1292.63</ele>
        <time>2017-06-14T10:30:23Z</time>
      </trkpt>
      <trkpt lat="44.52738" lon="5.54102">
        <ele>1295.03</ele>
        <time>2017-06-14T10:30:37Z</time>
      </trkpt>
      <trkpt lat="44.52735" lon="5.54092">
        <ele>1295.99</ele>
        <time>2017-06-14T10:30:50Z</time>
      </trkpt>
      <trkpt lat="44.5273" lon="5.54083">
        <ele>1298.4</ele>
        <time>2017-06-14T10:31:05Z</time>
      </trkpt>
      <trkpt lat="44.5273" lon="5.54079">
        <ele>1301.28</ele>
        <time>2017-06-14T10:31:22Z</time>
      </trkpt>
      <trkpt lat="44.52729" lon="5.54066">
        <ele>1302.72</ele>
        <time>2017-06-14T10:31:36Z</time>
      </trkpt>
      <trkpt lat="44.52728" lon="5.54056">
        <ele>1302.72</ele>
        <time>2017-06-14T10:31:50Z</time>
      </trkpt>
      <trkpt lat="44.5273" lon="5.54044">
        <ele>1302.72</ele>
        <time>2017-06-14T10:32:03Z</time>
      </trkpt>
      <trkpt lat="44.52727" lon="5.54034">
        <ele>1302.72</ele>
        <time>2017-06-14T10:32:17Z</time>
      </trkpt>
      <trkpt lat="44.52729" lon="5.54027">
        <ele>1300.8</ele>
        <time>2017-06-14T10:32:34Z</time>
      </trkpt>
      <trkpt lat="44.52729" lon="5.54014">
        <ele>1300.32</ele>
        <time>2017-06-14T10:32:46Z</time>
      </trkpt>
      <trkpt lat="44.52726" lon="5.54006">
        <ele>1298.4</ele>
        <time>2017-06-14T10:33:00Z</time>
      </trkpt>
      <trkpt lat="44.52724" lon="5.5399">
        <ele>1299.84</ele>
        <time>2017-06-14T10:33:14Z</time>
      </trkpt>
      <trkpt lat="44.52719" lon="5.53975">
        <ele>1300.8</ele>
        <time>2017-06-14T10:33:27Z</time>
      </trkpt>
      <trkpt lat="44.52717" lon="5.53967">
        <ele>1301.28</ele>
        <time>2017-06-14T10:33:32Z</time>
      </trkpt>
      <trkpt lat="44.52708" lon="5.53947">
        <ele>1302.72</ele>
        <time>2017-06-14T10:33:47Z</time>
      </trkpt>
      <trkpt lat="44.52704" lon="5.53939">
        <ele>1302.24</ele>
        <time>2017-06-14T10:34:08Z</time>
      </trkpt>
      <trkpt lat="44.527" lon="5.53927">
        <ele>1300.8</ele>
        <time>2017-06-14T10:34:23Z</time>
      </trkpt>
      <trkpt lat="44.52699" lon="5.53915">
        <ele>1300.8</ele>
        <time>2017-06-14T10:34:36Z</time>
      </trkpt>
      <trkpt lat="44.52704" lon="5.53901">
        <ele>1303.69</ele>
        <time>2017-06-14T10:34:53Z</time>
      </trkpt>
      <trkpt lat="44.52705" lon="5.53885">
        <ele>1305.13</ele>
        <time>2017-06-14T10:35:07Z</time>
      </trkpt>
      <trkpt lat="44.52707" lon="5.53871">
        <ele>1307.53</ele>
        <time>2017-06-14T10:35:23Z</time>
      </trkpt>
      <trkpt lat="44.52707" lon="5.53855">
        <ele>1309.45</ele>
        <time>2017-06-14T10:35:40Z</time>
      </trkpt>
      <trkpt lat="44.52709" lon="5.53842">
        <ele>1311.86</ele>
        <time>2017-06-14T10:35:55Z</time>
      </trkpt>
      <trkpt lat="44.52711" lon="5.53826">
        <ele>1314.74</ele>
        <time>2017-06-14T10:36:14Z</time>
      </trkpt>
      <trkpt lat="44.52707" lon="5.53813">
        <ele>1313.3</ele>
        <time>2017-06-14T10:36:32Z</time>
      </trkpt>
      <trkpt lat="44.52709" lon="5.53803">
        <ele>1316.18</ele>
        <time>2017-06-14T10:36:48Z</time>
      </trkpt>
      <trkpt lat="44.52712" lon="5.53793">
        <ele>1318.59</ele>
        <time>2017-06-14T10:37:03Z</time>
      </trkpt>
      <trkpt lat="44.52712" lon="5.53782">
        <ele>1320.99</ele>
        <time>2017-06-14T10:37:19Z</time>
      </trkpt>
      <trkpt lat="44.52713" lon="5.53769">
        <ele>1322.91</ele>
        <time>2017-06-14T10:37:35Z</time>
      </trkpt>
      <trkpt lat="44.52713" lon="5.53757">
        <ele>1322.43</ele>
        <time>2017-06-14T10:37:50Z</time>
      </trkpt>
      <trkpt lat="44.52713" lon="5.5375">
        <ele>1322.43</ele>
        <time>2017-06-14T10:38:02Z</time>
      </trkpt>
      <trkpt lat="44.52713" lon="5.53746">
        <ele>1321.95</ele>
        <time>2017-06-14T10:38:27Z</time>
      </trkpt>
      <trkpt lat="44.52713" lon="5.53746">
        <ele>1321.95</ele>
        <time>2017-06-14T10:38:58Z</time>
      </trkpt>
      <trkpt lat="44.52713" lon="5.53746">
        <ele>1322.43</ele>
        <time>2017-06-14T10:39:29Z</time>
      </trkpt>
      <trkpt lat="44.52711" lon="5.53746">
        <ele>1322.43</ele>
        <time>2017-06-14T10:40:01Z</time>
      </trkpt>
      <trkpt lat="44.5271" lon="5.53746">
        <ele>1322.43</ele>
        <time>2017-06-14T10:40:38Z</time>
      </trkpt>
      <trkpt lat="44.52712" lon="5.53746">
        <ele>1322.43</ele>
        <time>2017-06-14T10:41:12Z</time>
      </trkpt>
      <trkpt lat="44.52712" lon="5.53747">
        <ele>1322.43</ele>
        <time>2017-06-14T10:41:45Z</time>
      </trkpt>
      <trkpt lat="44.52711" lon="5.5375">
        <ele>1322.43</ele>
        <time>2017-06-14T10:42:17Z</time>
      </trkpt>
      <trkpt lat="44.52713" lon="5.53747">
        <ele>1322.91</ele>
        <time>2017-06-14T10:42:52Z</time>
      </trkpt>
      <trkpt lat="44.52712" lon="5.53748">
        <ele>1322.43</ele>
        <time>2017-06-14T10:43:23Z</time>
      </trkpt>
      <trkpt lat="44.52713" lon="5.53747">
        <ele>1322.43</ele>
        <time>2017-06-14T10:43:54Z</time>
      </trkpt>
      <trkpt lat="44.52711" lon="5.53747">
        <ele>1322.91</ele>
        <time>2017-06-14T10:44:32Z</time>
      </trkpt>
      <trkpt lat="44.52712" lon="5.53748">
        <ele>1322.91</ele>
        <time>2017-06-14T10:45:13Z</time>
      </trkpt>
      <trkpt lat="44.52711" lon="5.53741">
        <ele>1322.91</ele>
        <time>2017-06-14T10:45:21Z</time>
      </trkpt>
      <trkpt lat="44.52712" lon="5.53719">
        <ele>1325.8</ele>
        <time>2017-06-14T10:45:41Z</time>
      </trkpt>
      <trkpt lat="44.52712" lon="5.53709">
        <ele>1326.76</ele>
        <time>2017-06-14T10:45:54Z</time>
      </trkpt>
      <trkpt lat="44.52714" lon="5.537">
        <ele>1326.76</ele>
        <time>2017-06-14T10:46:10Z</time>
      </trkpt>
      <trkpt lat="44.52714" lon="5.53688">
        <ele>1326.28</ele>
        <time>2017-06-14T10:46:23Z</time>
      </trkpt>
      <trkpt lat="44.52712" lon="5.53667">
        <ele>1326.76</ele>
        <time>2017-06-14T10:46:40Z</time>
      </trkpt>
      <trkpt lat="44.5271" lon="5.53648">
        <ele>1327.72</ele>
        <time>2017-06-14T10:46:54Z</time>
      </trkpt>
      <trkpt lat="44.5271" lon="5.5363">
        <ele>1329.64</ele>
        <time>2017-06-14T10:47:10Z</time>
      </trkpt>
      <trkpt lat="44.52711" lon="5.53616">
        <ele>1332.04</ele>
        <time>2017-06-14T10:47:25Z</time>
      </trkpt>
      <trkpt lat="44.52709" lon="5.536">
        <ele>1333.97</ele>
        <time>2017-06-14T10:47:39Z</time>
      </trkpt>
      <trkpt lat="44.5271" lon="5.5359">
        <ele>1335.41</ele>
        <time>2017-06-14T10:47:52Z</time>
      </trkpt>
      <trkpt lat="44.52708" lon="5.53577">
        <ele>1337.33</ele>
        <time>2017-06-14T10:48:07Z</time>
      </trkpt>
      <trkpt lat="44.52705" lon="5.53559">
        <ele>1338.29</ele>
        <time>2017-06-14T10:48:23Z</time>
      </trkpt>
      <trkpt lat="44.52706" lon="5.53547">
        <ele>1340.22</ele>
        <time>2017-06-14T10:48:39Z</time>
      </trkpt>
      <trkpt lat="44.52707" lon="5.53535">
        <ele>1342.14</ele>
        <time>2017-06-14T10:48:52Z</time>
      </trkpt>
      <trkpt lat="44.52709" lon="5.53522">
        <ele>1344.54</ele>
        <time>2017-06-14T10:49:07Z</time>
      </trkpt>
      <trkpt lat="44.52711" lon="5.53507">
        <ele>1346.94</ele>
        <time>2017-06-14T10:49:24Z</time>
      </trkpt>
      <trkpt lat="44.5271" lon="5.53492">
        <ele>1345.5</ele>
        <time>2017-06-14T10:49:38Z</time>
      </trkpt>
      <trkpt lat="44.52704" lon="5.53475">
        <ele>1344.06</ele>
        <time>2017-06-14T10:49:53Z</time>
      </trkpt>
      <trkpt lat="44.52702" lon="5.53454">
        <ele>1345.02</ele>
        <time>2017-06-14T10:50:09Z</time>
      </trkpt>
      <trkpt lat="44.52701" lon="5.53444">
        <ele>1344.06</ele>
        <time>2017-06-14T10:50:22Z</time>
      </trkpt>
      <trkpt lat="44.52706" lon="5.5343">
        <ele>1344.06</ele>
        <time>2017-06-14T10:50:35Z</time>
      </trkpt>
      <trkpt lat="44.52706" lon="5.53425">
        <ele>1343.58</ele>
        <time>2017-06-14T10:50:38Z</time>
      </trkpt>
      <trkpt lat="44.52711" lon="5.53414">
        <ele>1343.58</ele>
        <time>2017-06-14T10:50:53Z</time>
      </trkpt>
      <trkpt lat="44.5271" lon="5.53411">
        <ele>1343.1</ele>
        <time>2017-06-14T10:51:02Z</time>
      </trkpt>
      <trkpt lat="44.52714" lon="5.5339">
        <ele>1343.1</ele>
        <time>2017-06-14T10:51:19Z</time>
      </trkpt>
      <trkpt lat="44.52713" lon="5.53367">
        <ele>1343.1</ele>
        <time>2017-06-14T10:51:34Z</time>
      </trkpt>
      <trkpt lat="44.52712" lon="5.53363">
        <ele>1343.58</ele>
        <time>2017-06-14T10:51:37Z</time>
      </trkpt>
      <trkpt lat="44.52706" lon="5.53345">
        <ele>1343.58</ele>
        <time>2017-06-14T10:51:52Z</time>
      </trkpt>
      <trkpt lat="44.52703" lon="5.5334">
        <ele>1343.1</ele>
        <time>2017-06-14T10:52:01Z</time>
      </trkpt>
      <trkpt lat="44.52701" lon="5.53323">
        <ele>1344.54</ele>
        <time>2017-06-14T10:52:16Z</time>
      </trkpt>
      <trkpt lat="44.52701" lon="5.53319">
        <ele>1344.54</ele>
        <time>2017-06-14T10:52:19Z</time>
      </trkpt>
      <trkpt lat="44.52701" lon="5.53304">
        <ele>1345.98</ele>
        <time>2017-06-14T10:52:33Z</time>
      </trkpt>
      <trkpt lat="44.527" lon="5.53297">
        <ele>1346.46</ele>
        <time>2017-06-14T10:52:40Z</time>
      </trkpt>
      <trkpt lat="44.52689" lon="5.53283">
        <ele>1344.54</ele>
        <time>2017-06-14T10:52:58Z</time>
      </trkpt>
      <trkpt lat="44.52688" lon="5.53281">
        <ele>1344.06</ele>
        <time>2017-06-14T10:53:00Z</time>
      </trkpt>
      <trkpt lat="44.52679" lon="5.5327">
        <ele>1344.54</ele>
        <time>2017-06-14T10:53:16Z</time>
      </trkpt>
      <trkpt lat="44.52684" lon="5.53262">
        <ele>1347.43</ele>
        <time>2017-06-14T10:53:30Z</time>
      </trkpt>
      <trkpt lat="44.52684" lon="5.53248">
        <ele>1348.87</ele>
        <time>2017-06-14T10:53:44Z</time>
      </trkpt>
      <trkpt lat="44.52686" lon="5.53237">
        <ele>1352.23</ele>
        <time>2017-06-14T10:54:01Z</time>
      </trkpt>
      <trkpt lat="44.52686" lon="5.53229">
        <ele>1354.63</ele>
        <time>2017-06-14T10:54:15Z</time>
      </trkpt>
      <trkpt lat="44.52682" lon="5.53224">
        <ele>1356.56</ele>
        <time>2017-06-14T10:54:27Z</time>
      </trkpt>
      <trkpt lat="44.52682" lon="5.53215">
        <ele>1359.44</ele>
        <time>2017-06-14T10:54:44Z</time>
      </trkpt>
      <trkpt lat="44.52681" lon="5.53206">
        <ele>1360.4</ele>
        <time>2017-06-14T10:54:58Z</time>
      </trkpt>
      <trkpt lat="44.52679" lon="5.53198">
        <ele>1361.36</ele>
        <time>2017-06-14T10:55:13Z</time>
      </trkpt>
      <trkpt lat="44.52679" lon="5.53187">
        <ele>1363.77</ele>
        <time>2017-06-14T10:55:29Z</time>
      </trkpt>
      <trkpt lat="44.52681" lon="5.53181">
        <ele>1366.17</ele>
        <time>2017-06-14T10:55:42Z</time>
      </trkpt>
      <trkpt lat="44.52682" lon="5.53171">
        <ele>1368.57</ele>
        <time>2017-06-14T10:55:56Z</time>
      </trkpt>
      <trkpt lat="44.52685" lon="5.53161">
        <ele>1370.98</ele>
        <time>2017-06-14T10:56:13Z</time>
      </trkpt>
      <trkpt lat="44.52686" lon="5.53148">
        <ele>1372.42</ele>
        <time>2017-06-14T10:56:30Z</time>
      </trkpt>
      <trkpt lat="44.52687" lon="5.53137">
        <ele>1375.3</ele>
        <time>2017-06-14T10:56:47Z</time>
      </trkpt>
      <trkpt lat="44.52691" lon="5.53131">
        <ele>1376.75</ele>
        <time>2017-06-14T10:57:02Z</time>
      </trkpt>
      <trkpt lat="44.52696" lon="5.53127">
        <ele>1378.67</ele>
        <time>2017-06-14T10:57:16Z</time>
      </trkpt>
      <trkpt lat="44.52699" lon="5.53117">
        <ele>1380.59</ele>
        <time>2017-06-14T10:57:30Z</time>
      </trkpt>
      <trkpt lat="44.52698" lon="5.53101">
        <ele>1382.51</ele>
        <time>2017-06-14T10:57:47Z</time>
      </trkpt>
      <trkpt lat="44.52697" lon="5.53088">
        <ele>1383.96</ele>
        <time>2017-06-14T10:58:01Z</time>
      </trkpt>
      <trkpt lat="44.52697" lon="5.53084">
        <ele>1384.44</ele>
        <time>2017-06-14T10:58:04Z</time>
      </trkpt>
      <trkpt lat="44.52697" lon="5.5306">
        <ele>1384.44</ele>
        <time>2017-06-14T10:58:22Z</time>
      </trkpt>
      <trkpt lat="44.52696" lon="5.53045">
        <ele>1384.44</ele>
        <time>2017-06-14T10:58:36Z</time>
      </trkpt>
      <trkpt lat="44.52695" lon="5.5303">
        <ele>1382.51</ele>
        <time>2017-06-14T10:58:52Z</time>
      </trkpt>
      <trkpt lat="44.52699" lon="5.53021">
        <ele>1382.03</ele>
        <time>2017-06-14T10:59:01Z</time>
      </trkpt>
      <trkpt lat="44.52701" lon="5.53016">
        <ele>1382.51</ele>
        <time>2017-06-14T10:59:04Z</time>
      </trkpt>
      <trkpt lat="44.52699" lon="5.53002">
        <ele>1383.47</ele>
        <time>2017-06-14T10:59:13Z</time>
      </trkpt>
      <trkpt lat="44.52697" lon="5.52993">
        <ele>1384.44</ele>
        <time>2017-06-14T10:59:20Z</time>
      </trkpt>
      <trkpt lat="44.52697" lon="5.52991">
        <ele>1385.4</ele>
        <time>2017-06-14T10:59:22Z</time>
      </trkpt>
      <trkpt lat="44.52691" lon="5.52971">
        <ele>1385.88</ele>
        <time>2017-06-14T10:59:39Z</time>
      </trkpt>
      <trkpt lat="44.52689" lon="5.52954">
        <ele>1387.8</ele>
        <time>2017-06-14T10:59:55Z</time>
      </trkpt>
      <trkpt lat="44.52689" lon="5.52953">
        <ele>1387.8</ele>
        <time>2017-06-14T10:59:56Z</time>
      </trkpt>
      <trkpt lat="44.52689" lon="5.5295">
        <ele>1387.8</ele>
        <time>2017-06-14T10:59:58Z</time>
      </trkpt>
      <trkpt lat="44.52687" lon="5.52931">
        <ele>1389.72</ele>
        <time>2017-06-14T11:00:16Z</time>
      </trkpt>
      <trkpt lat="44.52685" lon="5.52912">
        <ele>1392.13</ele>
        <time>2017-06-14T11:00:33Z</time>
      </trkpt>
      <trkpt lat="44.52683" lon="5.52894">
        <ele>1394.05</ele>
        <time>2017-06-14T11:00:49Z</time>
      </trkpt>
      <trkpt lat="44.52683" lon="5.52895">
        <ele>1394.05</ele>
        <time>2017-06-14T11:01:04Z</time>
      </trkpt>
      <trkpt lat="44.52684" lon="5.52896">
        <ele>1394.53</ele>
        <time>2017-06-14T11:01:18Z</time>
      </trkpt>
      <trkpt lat="44.52684" lon="5.52897">
        <ele>1394.53</ele>
        <time>2017-06-14T11:01:49Z</time>
      </trkpt>
      <trkpt lat="44.52683" lon="5.52893">
        <ele>1394.53</ele>
        <time>2017-06-14T11:02:09Z</time>
      </trkpt>
      <trkpt lat="44.52684" lon="5.52892">
        <ele>1394.53</ele>
        <time>2017-06-14T11:02:28Z</time>
      </trkpt>
      <trkpt lat="44.5268" lon="5.52891">
        <ele>1394.53</ele>
        <time>2017-06-14T11:02:49Z</time>
      </trkpt>
      <trkpt lat="44.52681" lon="5.5289">
        <ele>1394.53</ele>
        <time>2017-06-14T11:03:07Z</time>
      </trkpt>
      <trkpt lat="44.52679" lon="5.52889">
        <ele>1394.53</ele>
        <time>2017-06-14T11:03:31Z</time>
      </trkpt>
      <trkpt lat="44.52682" lon="5.52891">
        <ele>1394.05</ele>
        <time>2017-06-14T11:03:50Z</time>
      </trkpt>
      <trkpt lat="44.52683" lon="5.52885">
        <ele>1395.01</ele>
        <time>2017-06-14T11:04:12Z</time>
      </trkpt>
      <trkpt lat="44.52681" lon="5.52871">
        <ele>1397.41</ele>
        <time>2017-06-14T11:04:28Z</time>
      </trkpt>
      <trkpt lat="44.52681" lon="5.52864">
        <ele>1398.37</ele>
        <time>2017-06-14T11:04:41Z</time>
      </trkpt>
      <trkpt lat="44.52682" lon="5.5285">
        <ele>1401.74</ele>
        <time>2017-06-14T11:04:58Z</time>
      </trkpt>
      <trkpt lat="44.52679" lon="5.52838">
        <ele>1404.14</ele>
        <time>2017-06-14T11:05:15Z</time>
      </trkpt>
      <trkpt lat="44.52678" lon="5.52829">
        <ele>1406.55</ele>
        <time>2017-06-14T11:05:31Z</time>
      </trkpt>
      <trkpt lat="44.52677" lon="5.52818">
        <ele>1408.95</ele>
        <time>2017-06-14T11:05:46Z</time>
      </trkpt>
      <trkpt lat="44.52677" lon="5.5281">
        <ele>1411.35</ele>
        <time>2017-06-14T11:06:02Z</time>
      </trkpt>
      <trkpt lat="44.52676" lon="5.52803">
        <ele>1413.28</ele>
        <time>2017-06-14T11:06:15Z</time>
      </trkpt>
      <trkpt lat="44.52675" lon="5.52796">
        <ele>1415.2</ele>
        <time>2017-06-14T11:06:30Z</time>
      </trkpt>
      <trkpt lat="44.52675" lon="5.52787">
        <ele>1417.12</ele>
        <time>2017-06-14T11:06:44Z</time>
      </trkpt>
      <trkpt lat="44.52672" lon="5.52778">
        <ele>1419.52</ele>
        <time>2017-06-14T11:06:59Z</time>
      </trkpt>
      <trkpt lat="44.52669" lon="5.52773">
        <ele>1421.93</ele>
        <time>2017-06-14T11:07:13Z</time>
      </trkpt>
      <trkpt lat="44.52668" lon="5.52763">
        <ele>1423.85</ele>
        <time>2017-06-14T11:07:29Z</time>
      </trkpt>
      <trkpt lat="44.52668" lon="5.52756">
        <ele>1425.77</ele>
        <time>2017-06-14T11:07:42Z</time>
      </trkpt>
      <trkpt lat="44.52668" lon="5.52749">
        <ele>1428.66</ele>
        <time>2017-06-14T11:07:57Z</time>
      </trkpt>
      <trkpt lat="44.52667" lon="5.5274">
        <ele>1430.58</ele>
        <time>2017-06-14T11:08:12Z</time>
      </trkpt>
      <trkpt lat="44.52665" lon="5.52735">
        <ele>1432.98</ele>
        <time>2017-06-14T11:08:25Z</time>
      </trkpt>
      <trkpt lat="44.52663" lon="5.5273">
        <ele>1434.91</ele>
        <time>2017-06-14T11:08:36Z</time>
      </trkpt>
      <trkpt lat="44.52663" lon="5.52726">
        <ele>1436.83</ele>
        <time>2017-06-14T11:08:49Z</time>
      </trkpt>
      <trkpt lat="44.52661" lon="5.52722">
        <ele>1438.75</ele>
        <time>2017-06-14T11:09:02Z</time>
      </trkpt>
      <trkpt lat="44.52662" lon="5.52713">
        <ele>1441.15</ele>
        <time>2017-06-14T11:09:18Z</time>
      </trkpt>
      <trkpt lat="44.52661" lon="5.52704">
        <ele>1443.08</ele>
        <time>2017-06-14T11:09:32Z</time>
      </trkpt>
      <trkpt lat="44.52655" lon="5.52691">
        <ele>1445</ele>
        <time>2017-06-14T11:09:50Z</time>
      </trkpt>
      <trkpt lat="44.52647" lon="5.5268">
        <ele>1447.4</ele>
        <time>2017-06-14T11:10:06Z</time>
      </trkpt>
      <trkpt lat="44.52642" lon="5.52674">
        <ele>1448.84</ele>
        <time>2017-06-14T11:10:16Z</time>
      </trkpt>
      <trkpt lat="44.52635" lon="5.52664">
        <ele>1450.29</ele>
        <time>2017-06-14T11:10:30Z</time>
      </trkpt>
      <trkpt lat="44.52628" lon="5.52649">
        <ele>1452.21</ele>
        <time>2017-06-14T11:10:46Z</time>
      </trkpt>
      <trkpt lat="44.52625" lon="5.52644">
        <ele>1452.69</ele>
        <time>2017-06-14T11:11:05Z</time>
      </trkpt>
      <trkpt lat="44.52622" lon="5.52641">
        <ele>1452.69</ele>
        <time>2017-06-14T11:11:18Z</time>
      </trkpt>
      <trkpt lat="44.52621" lon="5.52643">
        <ele>1452.69</ele>
        <time>2017-06-14T11:11:40Z</time>
      </trkpt>
      <trkpt lat="44.52622" lon="5.52644">
        <ele>1452.69</ele>
        <time>2017-06-14T11:12:03Z</time>
      </trkpt>
      <trkpt lat="44.52621" lon="5.5264">
        <ele>1453.17</ele>
        <time>2017-06-14T11:12:20Z</time>
      </trkpt>
      <trkpt lat="44.52615" lon="5.52639">
        <ele>1452.69</ele>
        <time>2017-06-14T11:12:29Z</time>
      </trkpt>
      <trkpt lat="44.52606" lon="5.52634">
        <ele>1452.21</ele>
        <time>2017-06-14T11:12:42Z</time>
      </trkpt>
      <trkpt lat="44.52599" lon="5.52619">
        <ele>1453.65</ele>
        <time>2017-06-14T11:12:59Z</time>
      </trkpt>
      <trkpt lat="44.52593" lon="5.5261">
        <ele>1454.61</ele>
        <time>2017-06-14T11:13:12Z</time>
      </trkpt>
      <trkpt lat="44.52588" lon="5.52603">
        <ele>1456.53</ele>
        <time>2017-06-14T11:13:22Z</time>
      </trkpt>
      <trkpt lat="44.52578" lon="5.52598">
        <ele>1455.09</ele>
        <time>2017-06-14T11:13:35Z</time>
      </trkpt>
      <trkpt lat="44.52568" lon="5.52598">
        <ele>1452.21</ele>
        <time>2017-06-14T11:13:50Z</time>
      </trkpt>
      <trkpt lat="44.52565" lon="5.52598">
        <ele>1450.77</ele>
        <time>2017-06-14T11:13:57Z</time>
      </trkpt>
      <trkpt lat="44.52558" lon="5.52589">
        <ele>1451.25</ele>
        <time>2017-06-14T11:14:14Z</time>
      </trkpt>
      <trkpt lat="44.52547" lon="5.52582">
        <ele>1448.84</ele>
        <time>2017-06-14T11:14:30Z</time>
      </trkpt>
      <trkpt lat="44.52534" lon="5.52571">
        <ele>1449.32</ele>
        <time>2017-06-14T11:14:47Z</time>
      </trkpt>
      <trkpt lat="44.5253" lon="5.52567">
        <ele>1448.84</ele>
        <time>2017-06-14T11:14:54Z</time>
      </trkpt>
      <trkpt lat="44.52527" lon="5.52565">
        <ele>1448.84</ele>
        <time>2017-06-14T11:14:57Z</time>
      </trkpt>
      <trkpt lat="44.52518" lon="5.52555">
        <ele>1448.36</ele>
        <time>2017-06-14T11:15:09Z</time>
      </trkpt>
      <trkpt lat="44.52511" lon="5.5254">
        <ele>1450.29</ele>
        <time>2017-06-14T11:15:26Z</time>
      </trkpt>
      <trkpt lat="44.52507" lon="5.5253">
        <ele>1452.69</ele>
        <time>2017-06-14T11:15:39Z</time>
      </trkpt>
      <trkpt lat="44.525" lon="5.5252">
        <ele>1454.61</ele>
        <time>2017-06-14T11:15:55Z</time>
      </trkpt>
      <trkpt lat="44.52496" lon="5.52517">
        <ele>1456.05</ele>
        <time>2017-06-14T11:16:10Z</time>
      </trkpt>
      <trkpt lat="44.52494" lon="5.52513">
        <ele>1457.5</ele>
        <time>2017-06-14T11:16:23Z</time>
      </trkpt>
      <trkpt lat="44.52491" lon="5.52504">
        <ele>1459.42</ele>
        <time>2017-06-14T11:16:38Z</time>
      </trkpt>
      <trkpt lat="44.52486" lon="5.52497">
        <ele>1461.82</ele>
        <time>2017-06-14T11:16:54Z</time>
      </trkpt>
      <trkpt lat="44.52485" lon="5.52492">
        <ele>1463.74</ele>
        <time>2017-06-14T11:17:07Z</time>
      </trkpt>
      <trkpt lat="44.52485" lon="5.52489">
        <ele>1465.19</ele>
        <time>2017-06-14T11:17:21Z</time>
      </trkpt>
      <trkpt lat="44.52483" lon="5.52485">
        <ele>1466.63</ele>
        <time>2017-06-14T11:17:37Z</time>
      </trkpt>
      <trkpt lat="44.52483" lon="5.52486">
        <ele>1466.63</ele>
        <time>2017-06-14T11:17:40Z</time>
      </trkpt>
      <trkpt lat="44.52482" lon="5.52483">
        <ele>1466.15</ele>
        <time>2017-06-14T11:17:53Z</time>
      </trkpt>
      <trkpt lat="44.52481" lon="5.52484">
        <ele>1466.63</ele>
        <time>2017-06-14T11:18:12Z</time>
      </trkpt>
      <trkpt lat="44.5248" lon="5.52481">
        <ele>1467.11</ele>
        <time>2017-06-14T11:18:31Z</time>
      </trkpt>
      <trkpt lat="44.52478" lon="5.52476">
        <ele>1469.03</ele>
        <time>2017-06-14T11:18:43Z</time>
      </trkpt>
      <trkpt lat="44.52477" lon="5.52472">
        <ele>1470.95</ele>
        <time>2017-06-14T11:18:56Z</time>
      </trkpt>
      <trkpt lat="44.52475" lon="5.52467">
        <ele>1472.4</ele>
        <time>2017-06-14T11:19:08Z</time>
      </trkpt>
      <trkpt lat="44.52471" lon="5.52461">
        <ele>1474.8</ele>
        <time>2017-06-14T11:19:23Z</time>
      </trkpt>
      <trkpt lat="44.52469" lon="5.52457">
        <ele>1476.24</ele>
        <time>2017-06-14T11:19:35Z</time>
      </trkpt>
      <trkpt lat="44.52471" lon="5.52453">
        <ele>1477.68</ele>
        <time>2017-06-14T11:19:46Z</time>
      </trkpt>
      <trkpt lat="44.52469" lon="5.52447">
        <ele>1480.09</ele>
        <time>2017-06-14T11:19:59Z</time>
      </trkpt>
      <trkpt lat="44.52469" lon="5.52444">
        <ele>1481.53</ele>
        <time>2017-06-14T11:20:12Z</time>
      </trkpt>
      <trkpt lat="44.5247" lon="5.5244">
        <ele>1482.97</ele>
        <time>2017-06-14T11:20:26Z</time>
      </trkpt>
      <trkpt lat="44.52471" lon="5.52435">
        <ele>1484.89</ele>
        <time>2017-06-14T11:20:38Z</time>
      </trkpt>
      <trkpt lat="44.52473" lon="5.52429">
        <ele>1487.3</ele>
        <time>2017-06-14T11:20:54Z</time>
      </trkpt>
      <trkpt lat="44.52473" lon="5.52424">
        <ele>1489.22</ele>
        <time>2017-06-14T11:21:06Z</time>
      </trkpt>
      <trkpt lat="44.5247" lon="5.52415">
        <ele>1491.14</ele>
        <time>2017-06-14T11:21:21Z</time>
      </trkpt>
      <trkpt lat="44.52469" lon="5.52409">
        <ele>1493.06</ele>
        <time>2017-06-14T11:21:36Z</time>
      </trkpt>
      <trkpt lat="44.52462" lon="5.52399">
        <ele>1494.03</ele>
        <time>2017-06-14T11:21:50Z</time>
      </trkpt>
      <trkpt lat="44.52462" lon="5.52389">
        <ele>1496.43</ele>
        <time>2017-06-14T11:22:02Z</time>
      </trkpt>
      <trkpt lat="44.52461" lon="5.52384">
        <ele>1496.91</ele>
        <time>2017-06-14T11:22:06Z</time>
      </trkpt>
      <trkpt lat="44.52457" lon="5.52373">
        <ele>1497.87</ele>
        <time>2017-06-14T11:22:21Z</time>
      </trkpt>
      <trkpt lat="44.52454" lon="5.52374">
        <ele>1498.35</ele>
        <time>2017-06-14T11:22:43Z</time>
      </trkpt>
      <trkpt lat="44.52454" lon="5.52375">
        <ele>1498.35</ele>
        <time>2017-06-14T11:23:05Z</time>
      </trkpt>
      <trkpt lat="44.52454" lon="5.52374">
        <ele>1498.35</ele>
        <time>2017-06-14T11:23:42Z</time>
      </trkpt>
      <trkpt lat="44.5245" lon="5.52365">
        <ele>1499.31</ele>
        <time>2017-06-14T11:23:55Z</time>
      </trkpt>
      <trkpt lat="44.52448" lon="5.52366">
        <ele>1497.87</ele>
        <time>2017-06-14T11:24:08Z</time>
      </trkpt>
      <trkpt lat="44.52448" lon="5.52366">
        <ele>1498.35</ele>
        <time>2017-06-14T11:24:35Z</time>
      </trkpt>
      <trkpt lat="44.52448" lon="5.52367">
        <ele>1497.87</ele>
        <time>2017-06-14T11:25:09Z</time>
      </trkpt>
      <trkpt lat="44.52448" lon="5.52368">
        <ele>1497.87</ele>
        <time>2017-06-14T11:25:35Z</time>
      </trkpt>
      <trkpt lat="44.52446" lon="5.52369">
        <ele>1498.83</ele>
        <time>2017-06-14T11:26:17Z</time>
      </trkpt>
      <trkpt lat="44.52447" lon="5.52367">
        <ele>1498.83</ele>
        <time>2017-06-14T11:26:51Z</time>
      </trkpt>
      <trkpt lat="44.52448" lon="5.52367">
        <ele>1498.35</ele>
        <time>2017-06-14T11:27:17Z</time>
      </trkpt>
      <trkpt lat="44.52447" lon="5.52365">
        <ele>1499.31</ele>
        <time>2017-06-14T11:27:52Z</time>
      </trkpt>
      <trkpt lat="44.5244" lon="5.5236">
        <ele>1497.87</ele>
        <time>2017-06-14T11:28:06Z</time>
      </trkpt>
      <trkpt lat="44.52431" lon="5.52357">
        <ele>1494.51</ele>
        <time>2017-06-14T11:28:25Z</time>
      </trkpt>
      <trkpt lat="44.52421" lon="5.52354">
        <ele>1491.62</ele>
        <time>2017-06-14T11:28:41Z</time>
      </trkpt>
      <trkpt lat="44.52414" lon="5.52345">
        <ele>1488.74</ele>
        <time>2017-06-14T11:28:56Z</time>
      </trkpt>
      <trkpt lat="44.52409" lon="5.52339">
        <ele>1487.3</ele>
        <time>2017-06-14T11:29:03Z</time>
      </trkpt>
      <trkpt lat="44.52405" lon="5.52336">
        <ele>1486.34</ele>
        <time>2017-06-14T11:29:07Z</time>
      </trkpt>
      <trkpt lat="44.52393" lon="5.52317">
        <ele>1483.93</ele>
        <time>2017-06-14T11:29:24Z</time>
      </trkpt>
      <trkpt lat="44.52382" lon="5.52304">
        <ele>1481.05</ele>
        <time>2017-06-14T11:29:41Z</time>
      </trkpt>
      <trkpt lat="44.52374" lon="5.52295">
        <ele>1478.65</ele>
        <time>2017-06-14T11:29:56Z</time>
      </trkpt>
      <trkpt lat="44.52371" lon="5.52287">
        <ele>1477.2</ele>
        <time>2017-06-14T11:30:09Z</time>
      </trkpt>
      <trkpt lat="44.52366" lon="5.52282">
        <ele>1474.8</ele>
        <time>2017-06-14T11:30:21Z</time>
      </trkpt>
      <trkpt lat="44.52356" lon="5.52281">
        <ele>1471.44</ele>
        <time>2017-06-14T11:30:35Z</time>
      </trkpt>
      <trkpt lat="44.52355" lon="5.52275">
        <ele>1469.99</ele>
        <time>2017-06-14T11:30:44Z</time>
      </trkpt>
      <trkpt lat="44.52354" lon="5.52273">
        <ele>1469.51</ele>
        <time>2017-06-14T11:30:46Z</time>
      </trkpt>
      <trkpt lat="44.52355" lon="5.52265">
        <ele>1469.99</ele>
        <time>2017-06-14T11:30:53Z</time>
      </trkpt>
      <trkpt lat="44.52355" lon="5.52257">
        <ele>1469.03</ele>
        <time>2017-06-14T11:31:06Z</time>
      </trkpt>
      <trkpt lat="44.52351" lon="5.52243">
        <ele>1466.15</ele>
        <time>2017-06-14T11:31:20Z</time>
      </trkpt>
      <trkpt lat="44.52348" lon="5.52228">
        <ele>1465.67</ele>
        <time>2017-06-14T11:31:32Z</time>
      </trkpt>
      <trkpt lat="44.52344" lon="5.52211">
        <ele>1465.19</ele>
        <time>2017-06-14T11:31:46Z</time>
      </trkpt>
      <trkpt lat="44.52341" lon="5.52199">
        <ele>1463.74</ele>
        <time>2017-06-14T11:32:00Z</time>
      </trkpt>
      <trkpt lat="44.52335" lon="5.52192">
        <ele>1460.86</ele>
        <time>2017-06-14T11:32:12Z</time>
      </trkpt>
      <trkpt lat="44.52328" lon="5.5218">
        <ele>1457.98</ele>
        <time>2017-06-14T11:32:29Z</time>
      </trkpt>
      <trkpt lat="44.52321" lon="5.52168">
        <ele>1455.09</ele>
        <time>2017-06-14T11:32:45Z</time>
      </trkpt>
      <trkpt lat="44.52314" lon="5.52163">
        <ele>1451.73</ele>
        <time>2017-06-14T11:32:57Z</time>
      </trkpt>
      <trkpt lat="44.52313" lon="5.52163">
        <ele>1451.25</ele>
        <time>2017-06-14T11:32:59Z</time>
      </trkpt>
      <trkpt lat="44.52307" lon="5.52154">
        <ele>1448.36</ele>
        <time>2017-06-14T11:33:15Z</time>
      </trkpt>
      <trkpt lat="44.52301" lon="5.52145">
        <ele>1447.4</ele>
        <time>2017-06-14T11:33:28Z</time>
      </trkpt>
      <trkpt lat="44.52297" lon="5.5214">
        <ele>1445.48</ele>
        <time>2017-06-14T11:33:35Z</time>
      </trkpt>
      <trkpt lat="44.52285" lon="5.52121">
        <ele>1443.08</ele>
        <time>2017-06-14T11:33:53Z</time>
      </trkpt>
      <trkpt lat="44.52271" lon="5.521">
        <ele>1445.96</ele>
        <time>2017-06-14T11:34:15Z</time>
      </trkpt>
      <trkpt lat="44.52264" lon="5.5209">
        <ele>1448.84</ele>
        <time>2017-06-14T11:34:31Z</time>
      </trkpt>
      <trkpt lat="44.52261" lon="5.52086">
        <ele>1450.29</ele>
        <time>2017-06-14T11:34:45Z</time>
      </trkpt>
      <trkpt lat="44.52259" lon="5.52082">
        <ele>1451.73</ele>
        <time>2017-06-14T11:35:00Z</time>
      </trkpt>
      <trkpt lat="44.52254" lon="5.52077">
        <ele>1453.65</ele>
        <time>2017-06-14T11:35:15Z</time>
      </trkpt>
      <trkpt lat="44.52248" lon="5.52074">
        <ele>1456.05</ele>
        <time>2017-06-14T11:35:29Z</time>
      </trkpt>
      <trkpt lat="44.52244" lon="5.52072">
        <ele>1457.02</ele>
        <time>2017-06-14T11:35:43Z</time>
      </trkpt>
      <trkpt lat="44.52239" lon="5.52069">
        <ele>1458.94</ele>
        <time>2017-06-14T11:35:57Z</time>
      </trkpt>
      <trkpt lat="44.52236" lon="5.52066">
        <ele>1460.86</ele>
        <time>2017-06-14T11:36:11Z</time>
      </trkpt>
      <trkpt lat="44.52233" lon="5.52062">
        <ele>1462.3</ele>
        <time>2017-06-14T11:36:25Z</time>
      </trkpt>
      <trkpt lat="44.5223" lon="5.52051">
        <ele>1465.19</ele>
        <time>2017-06-14T11:36:42Z</time>
      </trkpt>
      <trkpt lat="44.52229" lon="5.52044">
        <ele>1466.63</ele>
        <time>2017-06-14T11:36:55Z</time>
      </trkpt>
      <trkpt lat="44.52225" lon="5.52033">
        <ele>1469.03</ele>
        <time>2017-06-14T11:37:13Z</time>
      </trkpt>
      <trkpt lat="44.5222" lon="5.52024">
        <ele>1470.95</ele>
        <time>2017-06-14T11:37:29Z</time>
      </trkpt>
      <trkpt lat="44.52214" lon="5.52014">
        <ele>1472.88</ele>
        <time>2017-06-14T11:37:45Z</time>
      </trkpt>
      <trkpt lat="44.52205" lon="5.52002">
        <ele>1474.32</ele>
        <time>2017-06-14T11:38:03Z</time>
      </trkpt>
      <trkpt lat="44.52196" lon="5.51987">
        <ele>1476.72</ele>
        <time>2017-06-14T11:38:23Z</time>
      </trkpt>
      <trkpt lat="44.52186" lon="5.51972">
        <ele>1478.65</ele>
        <time>2017-06-14T11:38:41Z</time>
      </trkpt>
      <trkpt lat="44.52178" lon="5.51959">
        <ele>1480.09</ele>
        <time>2017-06-14T11:38:57Z</time>
      </trkpt>
      <trkpt lat="44.52172" lon="5.51946">
        <ele>1482.01</ele>
        <time>2017-06-14T11:39:12Z</time>
      </trkpt>
      <trkpt lat="44.52163" lon="5.5193">
        <ele>1483.45</ele>
        <time>2017-06-14T11:39:30Z</time>
      </trkpt>
      <trkpt lat="44.52156" lon="5.51921">
        <ele>1485.37</ele>
        <time>2017-06-14T11:39:44Z</time>
      </trkpt>
      <trkpt lat="44.52147" lon="5.51908">
        <ele>1486.82</ele>
        <time>2017-06-14T11:40:03Z</time>
      </trkpt>
      <trkpt lat="44.52139" lon="5.51897">
        <ele>1489.22</ele>
        <time>2017-06-14T11:40:21Z</time>
      </trkpt>
      <trkpt lat="44.52128" lon="5.51883">
        <ele>1492.1</ele>
        <time>2017-06-14T11:40:43Z</time>
      </trkpt>
      <trkpt lat="44.52119" lon="5.51878">
        <ele>1494.51</ele>
        <time>2017-06-14T11:41:01Z</time>
      </trkpt>
      <trkpt lat="44.5211" lon="5.51877">
        <ele>1496.43</ele>
        <time>2017-06-14T11:41:18Z</time>
      </trkpt>
      <trkpt lat="44.52106" lon="5.51873">
        <ele>1498.35</ele>
        <time>2017-06-14T11:41:31Z</time>
      </trkpt>
      <trkpt lat="44.52099" lon="5.51864">
        <ele>1500.76</ele>
        <time>2017-06-14T11:41:49Z</time>
      </trkpt>
      <trkpt lat="44.52092" lon="5.51856">
        <ele>1502.68</ele>
        <time>2017-06-14T11:42:06Z</time>
      </trkpt>
      <trkpt lat="44.52087" lon="5.51849">
        <ele>1505.08</ele>
        <time>2017-06-14T11:42:23Z</time>
      </trkpt>
      <trkpt lat="44.5208" lon="5.51836">
        <ele>1507</ele>
        <time>2017-06-14T11:42:44Z</time>
      </trkpt>
      <trkpt lat="44.52074" lon="5.51826">
        <ele>1508.93</ele>
        <time>2017-06-14T11:43:02Z</time>
      </trkpt>
      <trkpt lat="44.52067" lon="5.51814">
        <ele>1511.33</ele>
        <time>2017-06-14T11:43:21Z</time>
      </trkpt>
      <trkpt lat="44.5206" lon="5.51803">
        <ele>1513.25</ele>
        <time>2017-06-14T11:43:38Z</time>
      </trkpt>
      <trkpt lat="44.52051" lon="5.51791">
        <ele>1515.66</ele>
        <time>2017-06-14T11:43:57Z</time>
      </trkpt>
      <trkpt lat="44.52044" lon="5.51783">
        <ele>1517.1</ele>
        <time>2017-06-14T11:44:13Z</time>
      </trkpt>
      <trkpt lat="44.52041" lon="5.51771">
        <ele>1519.02</ele>
        <time>2017-06-14T11:44:30Z</time>
      </trkpt>
      <trkpt lat="44.52037" lon="5.51761">
        <ele>1520.94</ele>
        <time>2017-06-14T11:44:45Z</time>
      </trkpt>
      <trkpt lat="44.52031" lon="5.51753">
        <ele>1521.42</ele>
        <time>2017-06-14T11:44:57Z</time>
      </trkpt>
      <trkpt lat="44.52023" lon="5.51746">
        <ele>1522.39</ele>
        <time>2017-06-14T11:45:11Z</time>
      </trkpt>
      <trkpt lat="44.52021" lon="5.51736">
        <ele>1524.31</ele>
        <time>2017-06-14T11:45:27Z</time>
      </trkpt>
      <trkpt lat="44.52017" lon="5.51724">
        <ele>1526.71</ele>
        <time>2017-06-14T11:45:44Z</time>
      </trkpt>
      <trkpt lat="44.52017" lon="5.51717">
        <ele>1529.11</ele>
        <time>2017-06-14T11:45:57Z</time>
      </trkpt>
      <trkpt lat="44.52012" lon="5.51705">
        <ele>1530.08</ele>
        <time>2017-06-14T11:46:14Z</time>
      </trkpt>
      <trkpt lat="44.5201" lon="5.51698">
        <ele>1531.52</ele>
        <time>2017-06-14T11:46:31Z</time>
      </trkpt>
      <trkpt lat="44.5201" lon="5.51697">
        <ele>1531.04</ele>
        <time>2017-06-14T11:46:54Z</time>
      </trkpt>
      <trkpt lat="44.52006" lon="5.51683">
        <ele>1533.44</ele>
        <time>2017-06-14T11:47:10Z</time>
      </trkpt>
      <trkpt lat="44.52001" lon="5.51673">
        <ele>1535.84</ele>
        <time>2017-06-14T11:47:24Z</time>
      </trkpt>
      <trkpt lat="44.51994" lon="5.51661">
        <ele>1536.8</ele>
        <time>2017-06-14T11:47:40Z</time>
      </trkpt>
      <trkpt lat="44.51993" lon="5.51653">
        <ele>1538.25</ele>
        <time>2017-06-14T11:47:54Z</time>
      </trkpt>
      <trkpt lat="44.51987" lon="5.51641">
        <ele>1539.21</ele>
        <time>2017-06-14T11:48:10Z</time>
      </trkpt>
      <trkpt lat="44.51988" lon="5.51635">
        <ele>1541.61</ele>
        <time>2017-06-14T11:48:25Z</time>
      </trkpt>
      <trkpt lat="44.51988" lon="5.51627">
        <ele>1543.53</ele>
        <time>2017-06-14T11:48:38Z</time>
      </trkpt>
      <trkpt lat="44.51987" lon="5.51616">
        <ele>1546.9</ele>
        <time>2017-06-14T11:48:54Z</time>
      </trkpt>
      <trkpt lat="44.51984" lon="5.51608">
        <ele>1547.86</ele>
        <time>2017-06-14T11:49:03Z</time>
      </trkpt>
      <trkpt lat="44.51972" lon="5.51591">
        <ele>1547.86</ele>
        <time>2017-06-14T11:49:20Z</time>
      </trkpt>
      <trkpt lat="44.51961" lon="5.51578">
        <ele>1546.42</ele>
        <time>2017-06-14T11:49:37Z</time>
      </trkpt>
      <trkpt lat="44.51958" lon="5.51575">
        <ele>1545.94</ele>
        <time>2017-06-14T11:50:01Z</time>
      </trkpt>
      <trkpt lat="44.51955" lon="5.51556">
        <ele>1546.9</ele>
        <time>2017-06-14T11:50:17Z</time>
      </trkpt>
      <trkpt lat="44.51954" lon="5.51553">
        <ele>1547.38</ele>
        <time>2017-06-14T11:50:19Z</time>
      </trkpt>
      <trkpt lat="44.51953" lon="5.51545">
        <ele>1547.38</ele>
        <time>2017-06-14T11:50:25Z</time>
      </trkpt>
      <trkpt lat="44.51952" lon="5.51536">
        <ele>1547.86</ele>
        <time>2017-06-14T11:50:40Z</time>
      </trkpt>
      <trkpt lat="44.51948" lon="5.51527">
        <ele>1546.42</ele>
        <time>2017-06-14T11:50:53Z</time>
      </trkpt>
      <trkpt lat="44.51946" lon="5.51519">
        <ele>1545.46</ele>
        <time>2017-06-14T11:51:09Z</time>
      </trkpt>
      <trkpt lat="44.5195" lon="5.51503">
        <ele>1542.57</ele>
        <time>2017-06-14T11:51:26Z</time>
      </trkpt>
      <trkpt lat="44.5195" lon="5.51497">
        <ele>1542.09</ele>
        <time>2017-06-14T11:51:41Z</time>
      </trkpt>
      <trkpt lat="44.51946" lon="5.51492">
        <ele>1542.09</ele>
        <time>2017-06-14T11:51:56Z</time>
      </trkpt>
      <trkpt lat="44.51941" lon="5.51488">
        <ele>1540.65</ele>
        <time>2017-06-14T11:52:09Z</time>
      </trkpt>
      <trkpt lat="44.51941" lon="5.51486">
        <ele>1540.17</ele>
        <time>2017-06-14T11:52:23Z</time>
      </trkpt>
      <trkpt lat="44.51942" lon="5.51486">
        <ele>1540.17</ele>
        <time>2017-06-14T11:52:37Z</time>
      </trkpt>
      <trkpt lat="44.51945" lon="5.51499">
        <ele>1541.13</ele>
        <time>2017-06-14T11:52:53Z</time>
      </trkpt>
      <trkpt lat="44.51951" lon="5.51505">
        <ele>1542.09</ele>
        <time>2017-06-14T11:53:09Z</time>
      </trkpt>
      <trkpt lat="44.51951" lon="5.51504">
        <ele>1541.61</ele>
        <time>2017-06-14T11:53:26Z</time>
      </trkpt>
      <trkpt lat="44.51951" lon="5.51504">
        <ele>1541.61</ele>
        <time>2017-06-14T11:54:08Z</time>
      </trkpt>
      <trkpt lat="44.51947" lon="5.51498">
        <ele>1542.09</ele>
        <time>2017-06-14T11:54:25Z</time>
      </trkpt>
      <trkpt lat="44.51941" lon="5.51487">
        <ele>1540.17</ele>
        <time>2017-06-14T11:54:40Z</time>
      </trkpt>
      <trkpt lat="44.51936" lon="5.51486">
        <ele>1538.73</ele>
        <time>2017-06-14T11:54:53Z</time>
      </trkpt>
      <trkpt lat="44.51929" lon="5.51491">
        <ele>1535.84</ele>
        <time>2017-06-14T11:55:08Z</time>
      </trkpt>
      <trkpt lat="44.51921" lon="5.51492">
        <ele>1532.96</ele>
        <time>2017-06-14T11:55:22Z</time>
      </trkpt>
      <trkpt lat="44.51912" lon="5.51487">
        <ele>1530.08</ele>
        <time>2017-06-14T11:55:37Z</time>
      </trkpt>
      <trkpt lat="44.51905" lon="5.5149">
        <ele>1526.71</ele>
        <time>2017-06-14T11:55:49Z</time>
      </trkpt>
      <trkpt lat="44.51899" lon="5.51497">
        <ele>1524.79</ele>
        <time>2017-06-14T11:56:03Z</time>
      </trkpt>
      <trkpt lat="44.519" lon="5.51499">
        <ele>1524.79</ele>
        <time>2017-06-14T11:56:16Z</time>
      </trkpt>
      <trkpt lat="44.51898" lon="5.51497">
        <ele>1524.31</ele>
        <time>2017-06-14T11:56:47Z</time>
      </trkpt>
      <trkpt lat="44.51899" lon="5.51498">
        <ele>1523.83</ele>
        <time>2017-06-14T11:57:07Z</time>
      </trkpt>
      <trkpt lat="44.51899" lon="5.51496">
        <ele>1524.31</ele>
        <time>2017-06-14T11:57:40Z</time>
      </trkpt>
      <trkpt lat="44.51901" lon="5.51498">
        <ele>1524.31</ele>
        <time>2017-06-14T11:58:07Z</time>
      </trkpt>
      <trkpt lat="44.519" lon="5.51497">
        <ele>1524.79</ele>
        <time>2017-06-14T11:58:35Z</time>
      </trkpt>
      <trkpt lat="44.519" lon="5.51498">
        <ele>1524.79</ele>
        <time>2017-06-14T11:59:06Z</time>
      </trkpt>
      <trkpt lat="44.519" lon="5.51497">
        <ele>1525.27</ele>
        <time>2017-06-14T11:59:37Z</time>
      </trkpt>
      <trkpt lat="44.519" lon="5.515">
        <ele>1524.79</ele>
        <time>2017-06-14T11:59:57Z</time>
      </trkpt>
      <trkpt lat="44.51899" lon="5.515">
        <ele>1524.79</ele>
        <time>2017-06-14T12:00:24Z</time>
      </trkpt>
      <trkpt lat="44.51899" lon="5.51498">
        <ele>1525.27</ele>
        <time>2017-06-14T12:00:54Z</time>
      </trkpt>
      <trkpt lat="44.51901" lon="5.515">
        <ele>1525.27</ele>
        <time>2017-06-14T12:01:29Z</time>
      </trkpt>
      <trkpt lat="44.519" lon="5.515">
        <ele>1525.75</ele>
        <time>2017-06-14T12:02:04Z</time>
      </trkpt>
      <trkpt lat="44.519" lon="5.515">
        <ele>1526.23</ele>
        <time>2017-06-14T12:02:36Z</time>
      </trkpt>
      <trkpt lat="44.51899" lon="5.51499">
        <ele>1525.75</ele>
        <time>2017-06-14T12:03:12Z</time>
      </trkpt>
      <trkpt lat="44.519" lon="5.51498">
        <ele>1525.27</ele>
        <time>2017-06-14T12:03:43Z</time>
      </trkpt>
      <trkpt lat="44.519" lon="5.51499">
        <ele>1525.27</ele>
        <time>2017-06-14T12:04:21Z</time>
      </trkpt>
      <trkpt lat="44.51899" lon="5.51499">
        <ele>1526.23</ele>
        <time>2017-06-14T12:04:57Z</time>
      </trkpt>
      <trkpt lat="44.519" lon="5.51499">
        <ele>1525.27</ele>
        <time>2017-06-14T12:05:36Z</time>
      </trkpt>
      <trkpt lat="44.519" lon="5.51499">
        <ele>1525.75</ele>
        <time>2017-06-14T12:06:20Z</time>
      </trkpt>
      <trkpt lat="44.51899" lon="5.51498">
        <ele>1524.79</ele>
        <time>2017-06-14T12:06:59Z</time>
      </trkpt>
      <trkpt lat="44.51898" lon="5.51499">
        <ele>1525.27</ele>
        <time>2017-06-14T12:07:43Z</time>
      </trkpt>
      <trkpt lat="44.51897" lon="5.51499">
        <ele>1525.27</ele>
        <time>2017-06-14T12:08:16Z</time>
      </trkpt>
      <trkpt lat="44.51897" lon="5.51503">
        <ele>1525.75</ele>
        <time>2017-06-14T12:08:44Z</time>
      </trkpt>
      <trkpt lat="44.51897" lon="5.51501">
        <ele>1526.23</ele>
        <time>2017-06-14T12:09:11Z</time>
      </trkpt>
      <trkpt lat="44.519" lon="5.51497">
        <ele>1525.75</ele>
        <time>2017-06-14T12:09:42Z</time>
      </trkpt>
      <trkpt lat="44.519" lon="5.51502">
        <ele>1526.23</ele>
        <time>2017-06-14T12:10:18Z</time>
      </trkpt>
      <trkpt lat="44.51899" lon="5.515">
        <ele>1526.23</ele>
        <time>2017-06-14T12:10:51Z</time>
      </trkpt>
      <trkpt lat="44.519" lon="5.51496">
        <ele>1526.71</ele>
        <time>2017-06-14T12:11:25Z</time>
      </trkpt>
      <trkpt lat="44.51899" lon="5.51501">
        <ele>1526.71</ele>
        <time>2017-06-14T12:12:01Z</time>
      </trkpt>
      <trkpt lat="44.519" lon="5.51501">
        <ele>1526.71</ele>
        <time>2017-06-14T12:12:33Z</time>
      </trkpt>
      <trkpt lat="44.51899" lon="5.51498">
        <ele>1526.71</ele>
        <time>2017-06-14T12:13:01Z</time>
      </trkpt>
      <trkpt lat="44.51899" lon="5.51497">
        <ele>1526.71</ele>
        <time>2017-06-14T12:13:31Z</time>
      </trkpt>
      <trkpt lat="44.51899" lon="5.51499">
        <ele>1527.19</ele>
        <time>2017-06-14T12:13:38Z</time>
      </trkpt>
      <trkpt lat="44.519" lon="5.51497">
        <ele>1526.71</ele>
        <time>2017-06-14T12:14:01Z</time>
      </trkpt>
      <trkpt lat="44.51899" lon="5.51499">
        <ele>1526.71</ele>
        <time>2017-06-14T12:14:35Z</time>
      </trkpt>
      <trkpt lat="44.51899" lon="5.51499">
        <ele>1527.19</ele>
        <time>2017-06-14T12:14:58Z</time>
      </trkpt>
      <trkpt lat="44.51898" lon="5.51498">
        <ele>1527.19</ele>
        <time>2017-06-14T12:15:23Z</time>
      </trkpt>
      <trkpt lat="44.51899" lon="5.51497">
        <ele>1526.71</ele>
        <time>2017-06-14T12:15:52Z</time>
      </trkpt>
      <trkpt lat="44.51898" lon="5.51498">
        <ele>1527.19</ele>
        <time>2017-06-14T12:16:28Z</time>
      </trkpt>
      <trkpt lat="44.51899" lon="5.51498">
        <ele>1527.19</ele>
        <time>2017-06-14T12:17:05Z</time>
      </trkpt>
      <trkpt lat="44.51899" lon="5.515">
        <ele>1527.19</ele>
        <time>2017-06-14T12:17:29Z</time>
      </trkpt>
      <trkpt lat="44.51899" lon="5.51498">
        <ele>1527.19</ele>
        <time>2017-06-14T12:17:59Z</time>
      </trkpt>
      <trkpt lat="44.51898" lon="5.51497">
        <ele>1527.67</ele>
        <time>2017-06-14T12:18:33Z</time>
      </trkpt>
      <trkpt lat="44.51898" lon="5.51498">
        <ele>1527.67</ele>
        <time>2017-06-14T12:19:03Z</time>
      </trkpt>
      <trkpt lat="44.51898" lon="5.51499">
        <ele>1527.67</ele>
        <time>2017-06-14T12:19:43Z</time>
      </trkpt>
      <trkpt lat="44.51897" lon="5.51498">
        <ele>1527.19</ele>
        <time>2017-06-14T12:20:20Z</time>
      </trkpt>
      <trkpt lat="44.51898" lon="5.51499">
        <ele>1528.15</ele>
        <time>2017-06-14T12:20:56Z</time>
      </trkpt>
      <trkpt lat="44.51898" lon="5.51499">
        <ele>1528.15</ele>
        <time>2017-06-14T12:21:39Z</time>
      </trkpt>
      <trkpt lat="44.51899" lon="5.515">
        <ele>1527.67</ele>
        <time>2017-06-14T12:22:04Z</time>
      </trkpt>
      <trkpt lat="44.51899" lon="5.515">
        <ele>1527.19</ele>
        <time>2017-06-14T12:22:40Z</time>
      </trkpt>
      <trkpt lat="44.51898" lon="5.51499">
        <ele>1527.67</ele>
        <time>2017-06-14T12:23:13Z</time>
      </trkpt>
      <trkpt lat="44.51898" lon="5.51498">
        <ele>1527.67</ele>
        <time>2017-06-14T12:23:53Z</time>
      </trkpt>
      <trkpt lat="44.51898" lon="5.51497">
        <ele>1527.67</ele>
        <time>2017-06-14T12:24:30Z</time>
      </trkpt>
      <trkpt lat="44.51898" lon="5.51498">
        <ele>1527.67</ele>
        <time>2017-06-14T12:25:02Z</time>
      </trkpt>
      <trkpt lat="44.51898" lon="5.51497">
        <ele>1527.67</ele>
        <time>2017-06-14T12:25:35Z</time>
      </trkpt>
      <trkpt lat="44.51899" lon="5.51497">
        <ele>1528.15</ele>
        <time>2017-06-14T12:25:55Z</time>
      </trkpt>
      <trkpt lat="44.51899" lon="5.51498">
        <ele>1528.15</ele>
        <time>2017-06-14T12:26:19Z</time>
      </trkpt>
      <trkpt lat="44.51898" lon="5.51498">
        <ele>1528.63</ele>
        <time>2017-06-14T12:26:54Z</time>
      </trkpt>
      <trkpt lat="44.51898" lon="5.51498">
        <ele>1528.63</ele>
        <time>2017-06-14T12:27:28Z</time>
      </trkpt>
      <trkpt lat="44.51899" lon="5.51498">
        <ele>1528.63</ele>
        <time>2017-06-14T12:28:09Z</time>
      </trkpt>
      <trkpt lat="44.51899" lon="5.51498">
        <ele>1529.11</ele>
        <time>2017-06-14T12:28:41Z</time>
      </trkpt>
      <trkpt lat="44.51899" lon="5.51498">
        <ele>1528.63</ele>
        <time>2017-06-14T12:29:16Z</time>
      </trkpt>
      <trkpt lat="44.51899" lon="5.51498">
        <ele>1529.11</ele>
        <time>2017-06-14T12:29:34Z</time>
      </trkpt>
      <trkpt lat="44.51899" lon="5.51498">
        <ele>1529.11</ele>
        <time>2017-06-14T12:30:09Z</time>
      </trkpt>
      <trkpt lat="44.51898" lon="5.51497">
        <ele>1529.11</ele>
        <time>2017-06-14T12:30:35Z</time>
      </trkpt>
      <trkpt lat="44.51898" lon="5.51498">
        <ele>1529.11</ele>
        <time>2017-06-14T12:30:59Z</time>
      </trkpt>
      <trkpt lat="44.51898" lon="5.51497">
        <ele>1529.11</ele>
        <time>2017-06-14T12:31:25Z</time>
      </trkpt>
      <trkpt lat="44.51899" lon="5.51499">
        <ele>1529.59</ele>
        <time>2017-06-14T12:31:53Z</time>
      </trkpt>
      <trkpt lat="44.51898" lon="5.51499">
        <ele>1529.11</ele>
        <time>2017-06-14T12:32:25Z</time>
      </trkpt>
      <trkpt lat="44.51899" lon="5.51497">
        <ele>1529.11</ele>
        <time>2017-06-14T12:32:52Z</time>
      </trkpt>
      <trkpt lat="44.51898" lon="5.51496">
        <ele>1529.11</ele>
        <time>2017-06-14T12:33:22Z</time>
      </trkpt>
      <trkpt lat="44.51899" lon="5.51497">
        <ele>1529.11</ele>
        <time>2017-06-14T12:33:59Z</time>
      </trkpt>
      <trkpt lat="44.51898" lon="5.51497">
        <ele>1529.11</ele>
        <time>2017-06-14T12:34:27Z</time>
      </trkpt>
      <trkpt lat="44.51898" lon="5.51499">
        <ele>1529.59</ele>
        <time>2017-06-14T12:35:04Z</time>
      </trkpt>
      <trkpt lat="44.51899" lon="5.51497">
        <ele>1529.59</ele>
        <time>2017-06-14T12:35:36Z</time>
      </trkpt>
      <trkpt lat="44.51898" lon="5.51498">
        <ele>1529.59</ele>
        <time>2017-06-14T12:36:06Z</time>
      </trkpt>
      <trkpt lat="44.51899" lon="5.51498">
        <ele>1529.59</ele>
        <time>2017-06-14T12:36:43Z</time>
      </trkpt>
      <trkpt lat="44.51897" lon="5.51499">
        <ele>1529.59</ele>
        <time>2017-06-14T12:37:15Z</time>
      </trkpt>
      <trkpt lat="44.51898" lon="5.51499">
        <ele>1529.59</ele>
        <time>2017-06-14T12:37:43Z</time>
      </trkpt>
      <trkpt lat="44.51897" lon="5.515">
        <ele>1529.59</ele>
        <time>2017-06-14T12:38:11Z</time>
      </trkpt>
      <trkpt lat="44.51898" lon="5.51499">
        <ele>1530.08</ele>
        <time>2017-06-14T12:38:37Z</time>
      </trkpt>
      <trkpt lat="44.51899" lon="5.51498">
        <ele>1529.59</ele>
        <time>2017-06-14T12:39:06Z</time>
      </trkpt>
      <trkpt lat="44.51898" lon="5.51498">
        <ele>1530.08</ele>
        <time>2017-06-14T12:39:40Z</time>
      </trkpt>
      <trkpt lat="44.51899" lon="5.51498">
        <ele>1530.08</ele>
        <time>2017-06-14T12:40:15Z</time>
      </trkpt>
      <trkpt lat="44.51899" lon="5.51497">
        <ele>1530.08</ele>
        <time>2017-06-14T12:40:49Z</time>
      </trkpt>
      <trkpt lat="44.519" lon="5.51498">
        <ele>1531.04</ele>
        <time>2017-06-14T12:41:24Z</time>
      </trkpt>
      <trkpt lat="44.51898" lon="5.51499">
        <ele>1531.04</ele>
        <time>2017-06-14T12:41:54Z</time>
      </trkpt>
      <trkpt lat="44.51897" lon="5.51498">
        <ele>1531.04</ele>
        <time>2017-06-14T12:42:30Z</time>
      </trkpt>
      <trkpt lat="44.51897" lon="5.51497">
        <ele>1531.04</ele>
        <time>2017-06-14T12:43:17Z</time>
      </trkpt>
      <trkpt lat="44.51897" lon="5.51497">
        <ele>1531.04</ele>
        <time>2017-06-14T12:44:00Z</time>
      </trkpt>
      <trkpt lat="44.51898" lon="5.51496">
        <ele>1531.04</ele>
        <time>2017-06-14T12:44:43Z</time>
      </trkpt>
      <trkpt lat="44.519" lon="5.51499">
        <ele>1531.52</ele>
        <time>2017-06-14T12:45:09Z</time>
      </trkpt>
      <trkpt lat="44.51898" lon="5.51499">
        <ele>1531.04</ele>
        <time>2017-06-14T12:45:29Z</time>
      </trkpt>
      <trkpt lat="44.51898" lon="5.51499">
        <ele>1531.52</ele>
        <time>2017-06-14T12:45:49Z</time>
      </trkpt>
      <trkpt lat="44.51898" lon="5.515">
        <ele>1531.52</ele>
        <time>2017-06-14T12:46:20Z</time>
      </trkpt>
      <trkpt lat="44.519" lon="5.51501">
        <ele>1532.48</ele>
        <time>2017-06-14T12:46:39Z</time>
      </trkpt>
      <trkpt lat="44.519" lon="5.515">
        <ele>1532</ele>
        <time>2017-06-14T12:46:52Z</time>
      </trkpt>
      <trkpt lat="44.51901" lon="5.51501">
        <ele>1532.48</ele>
        <time>2017-06-14T12:47:16Z</time>
      </trkpt>
      <trkpt lat="44.51904" lon="5.51498">
        <ele>1532.48</ele>
        <time>2017-06-14T12:47:32Z</time>
      </trkpt>
      <trkpt lat="44.51905" lon="5.51495">
        <ele>1532.96</ele>
        <time>2017-06-14T12:47:48Z</time>
      </trkpt>
      <trkpt lat="44.51902" lon="5.51495">
        <ele>1532.48</ele>
        <time>2017-06-14T12:47:59Z</time>
      </trkpt>
      <trkpt lat="44.51902" lon="5.51496">
        <ele>1533.44</ele>
        <time>2017-06-14T12:48:17Z</time>
      </trkpt>
      <trkpt lat="44.51903" lon="5.51496">
        <ele>1532.96</ele>
        <time>2017-06-14T12:48:36Z</time>
      </trkpt>
      <trkpt lat="44.51902" lon="5.51492">
        <ele>1532.48</ele>
        <time>2017-06-14T12:48:49Z</time>
      </trkpt>
      <trkpt lat="44.51903" lon="5.51491">
        <ele>1532.96</ele>
        <time>2017-06-14T12:49:01Z</time>
      </trkpt>
      <trkpt lat="44.51904" lon="5.51487">
        <ele>1533.44</ele>
        <time>2017-06-14T12:49:08Z</time>
      </trkpt>
      <trkpt lat="44.51905" lon="5.51475">
        <ele>1533.92</ele>
        <time>2017-06-14T12:49:23Z</time>
      </trkpt>
      <trkpt lat="44.51907" lon="5.51467">
        <ele>1534.88</ele>
        <time>2017-06-14T12:49:31Z</time>
      </trkpt>
      <trkpt lat="44.51907" lon="5.51463">
        <ele>1534.88</ele>
        <time>2017-06-14T12:49:34Z</time>
      </trkpt>
      <trkpt lat="44.51908" lon="5.51451">
        <ele>1535.36</ele>
        <time>2017-06-14T12:49:44Z</time>
      </trkpt>
      <trkpt lat="44.51908" lon="5.51445">
        <ele>1534.88</ele>
        <time>2017-06-14T12:49:48Z</time>
      </trkpt>
      <trkpt lat="44.51905" lon="5.51432">
        <ele>1532.48</ele>
        <time>2017-06-14T12:50:03Z</time>
      </trkpt>
      <trkpt lat="44.51902" lon="5.51418">
        <ele>1529.59</ele>
        <time>2017-06-14T12:50:19Z</time>
      </trkpt>
      <trkpt lat="44.51901" lon="5.51408">
        <ele>1528.63</ele>
        <time>2017-06-14T12:50:35Z</time>
      </trkpt>
      <trkpt lat="44.51898" lon="5.51399">
        <ele>1526.71</ele>
        <time>2017-06-14T12:50:52Z</time>
      </trkpt>
      <trkpt lat="44.51892" lon="5.51393">
        <ele>1525.27</ele>
        <time>2017-06-14T12:51:06Z</time>
      </trkpt>
      <trkpt lat="44.51887" lon="5.51384">
        <ele>1522.87</ele>
        <time>2017-06-14T12:51:20Z</time>
      </trkpt>
      <trkpt lat="44.51886" lon="5.51377">
        <ele>1521.42</ele>
        <time>2017-06-14T12:51:33Z</time>
      </trkpt>
      <trkpt lat="44.51883" lon="5.51373">
        <ele>1518.54</ele>
        <time>2017-06-14T12:51:44Z</time>
      </trkpt>
      <trkpt lat="44.51879" lon="5.51367">
        <ele>1515.66</ele>
        <time>2017-06-14T12:51:57Z</time>
      </trkpt>
      <trkpt lat="44.51873" lon="5.51363">
        <ele>1512.77</ele>
        <time>2017-06-14T12:52:09Z</time>
      </trkpt>
      <trkpt lat="44.51871" lon="5.51353">
        <ele>1509.89</ele>
        <time>2017-06-14T12:52:24Z</time>
      </trkpt>
      <trkpt lat="44.51869" lon="5.5134">
        <ele>1507</ele>
        <time>2017-06-14T12:52:37Z</time>
      </trkpt>
      <trkpt lat="44.51869" lon="5.51339">
        <ele>1507</ele>
        <time>2017-06-14T12:52:38Z</time>
      </trkpt>
      <trkpt lat="44.5187" lon="5.51327">
        <ele>1503.64</ele>
        <time>2017-06-14T12:52:51Z</time>
      </trkpt>
      <trkpt lat="44.51869" lon="5.51321">
        <ele>1502.2</ele>
        <time>2017-06-14T12:52:56Z</time>
      </trkpt>
      <trkpt lat="44.51867" lon="5.51309">
        <ele>1499.31</ele>
        <time>2017-06-14T12:53:09Z</time>
      </trkpt>
      <trkpt lat="44.51867" lon="5.51303">
        <ele>1498.35</ele>
        <time>2017-06-14T12:53:13Z</time>
      </trkpt>
      <trkpt lat="44.51862" lon="5.51277">
        <ele>1495.47</ele>
        <time>2017-06-14T12:53:31Z</time>
      </trkpt>
      <trkpt lat="44.5186" lon="5.5127">
        <ele>1494.03</ele>
        <time>2017-06-14T12:53:46Z</time>
      </trkpt>
      <trkpt lat="44.51858" lon="5.51271">
        <ele>1494.99</ele>
        <time>2017-06-14T12:53:54Z</time>
      </trkpt>
      <trkpt lat="44.51861" lon="5.51269">
        <ele>1494.03</ele>
        <time>2017-06-14T12:54:11Z</time>
      </trkpt>
      <trkpt lat="44.51861" lon="5.51266">
        <ele>1493.55</ele>
        <time>2017-06-14T12:54:25Z</time>
      </trkpt>
      <trkpt lat="44.51864" lon="5.51264">
        <ele>1493.06</ele>
        <time>2017-06-14T12:54:37Z</time>
      </trkpt>
      <trkpt lat="44.51863" lon="5.51262">
        <ele>1491.14</ele>
        <time>2017-06-14T12:54:46Z</time>
      </trkpt>
      <trkpt lat="44.51867" lon="5.51254">
        <ele>1487.78</ele>
        <time>2017-06-14T12:55:01Z</time>
      </trkpt>
      <trkpt lat="44.51871" lon="5.51253">
        <ele>1486.82</ele>
        <time>2017-06-14T12:55:11Z</time>
      </trkpt>
      <trkpt lat="44.51873" lon="5.5125">
        <ele>1483.93</ele>
        <time>2017-06-14T12:55:20Z</time>
      </trkpt>
      <trkpt lat="44.51878" lon="5.51247">
        <ele>1480.57</ele>
        <time>2017-06-14T12:55:31Z</time>
      </trkpt>
      <trkpt lat="44.51879" lon="5.51239">
        <ele>1477.68</ele>
        <time>2017-06-14T12:55:44Z</time>
      </trkpt>
      <trkpt lat="44.51886" lon="5.51233">
        <ele>1474.8</ele>
        <time>2017-06-14T12:55:57Z</time>
      </trkpt>
      <trkpt lat="44.51886" lon="5.51227">
        <ele>1471.92</ele>
        <time>2017-06-14T12:56:08Z</time>
      </trkpt>
      <trkpt lat="44.51884" lon="5.51219">
        <ele>1469.03</ele>
        <time>2017-06-14T12:56:23Z</time>
      </trkpt>
      <trkpt lat="44.51883" lon="5.51218">
        <ele>1469.03</ele>
        <time>2017-06-14T12:56:49Z</time>
      </trkpt>
      <trkpt lat="44.5189" lon="5.51221">
        <ele>1465.67</ele>
        <time>2017-06-14T12:57:02Z</time>
      </trkpt>
      <trkpt lat="44.51893" lon="5.51221">
        <ele>1464.71</ele>
        <time>2017-06-14T12:57:04Z</time>
      </trkpt>
      <trkpt lat="44.51904" lon="5.51217">
        <ele>1461.82</ele>
        <time>2017-06-14T12:57:12Z</time>
      </trkpt>
      <trkpt lat="44.51907" lon="5.51217">
        <ele>1458.46</ele>
        <time>2017-06-14T12:57:24Z</time>
      </trkpt>
      <trkpt lat="44.51912" lon="5.5122">
        <ele>1455.09</ele>
        <time>2017-06-14T12:57:42Z</time>
      </trkpt>
      <trkpt lat="44.51915" lon="5.51214">
        <ele>1452.21</ele>
        <time>2017-06-14T12:57:56Z</time>
      </trkpt>
      <trkpt lat="44.51919" lon="5.51209">
        <ele>1449.81</ele>
        <time>2017-06-14T12:58:10Z</time>
      </trkpt>
      <trkpt lat="44.5192" lon="5.51203">
        <ele>1446.92</ele>
        <time>2017-06-14T12:58:24Z</time>
      </trkpt>
      <trkpt lat="44.51915" lon="5.51201">
        <ele>1446.92</ele>
        <time>2017-06-14T12:58:42Z</time>
      </trkpt>
      <trkpt lat="44.51917" lon="5.51199">
        <ele>1445.96</ele>
        <time>2017-06-14T12:59:05Z</time>
      </trkpt>
      <trkpt lat="44.51915" lon="5.51194">
        <ele>1443.56</ele>
        <time>2017-06-14T12:59:19Z</time>
      </trkpt>
      <trkpt lat="44.51913" lon="5.51193">
        <ele>1442.11</ele>
        <time>2017-06-14T12:59:39Z</time>
      </trkpt>
      <trkpt lat="44.51915" lon="5.51187">
        <ele>1439.23</ele>
        <time>2017-06-14T12:59:50Z</time>
      </trkpt>
      <trkpt lat="44.51917" lon="5.51184">
        <ele>1437.79</ele>
        <time>2017-06-14T13:00:00Z</time>
      </trkpt>
      <trkpt lat="44.51921" lon="5.51175">
        <ele>1435.39</ele>
        <time>2017-06-14T13:00:16Z</time>
      </trkpt>
      <trkpt lat="44.51923" lon="5.51169">
        <ele>1432.98</ele>
        <time>2017-06-14T13:00:32Z</time>
      </trkpt>
      <trkpt lat="44.51922" lon="5.51166">
        <ele>1432.02</ele>
        <time>2017-06-14T13:00:44Z</time>
      </trkpt>
      <trkpt lat="44.51923" lon="5.51161">
        <ele>1430.58</ele>
        <time>2017-06-14T13:00:58Z</time>
      </trkpt>
      <trkpt lat="44.51922" lon="5.51158">
        <ele>1428.66</ele>
        <time>2017-06-14T13:01:11Z</time>
      </trkpt>
      <trkpt lat="44.51923" lon="5.51157">
        <ele>1427.21</ele>
        <time>2017-06-14T13:01:26Z</time>
      </trkpt>
      <trkpt lat="44.51922" lon="5.51149">
        <ele>1424.33</ele>
        <time>2017-06-14T13:01:39Z</time>
      </trkpt>
      <trkpt lat="44.5192" lon="5.51144">
        <ele>1421.93</ele>
        <time>2017-06-14T13:01:53Z</time>
      </trkpt>
      <trkpt lat="44.5192" lon="5.51143">
        <ele>1420.49</ele>
        <time>2017-06-14T13:02:06Z</time>
      </trkpt>
      <trkpt lat="44.51921" lon="5.5114">
        <ele>1419.04</ele>
        <time>2017-06-14T13:02:21Z</time>
      </trkpt>
      <trkpt lat="44.51926" lon="5.51139">
        <ele>1416.16</ele>
        <time>2017-06-14T13:02:35Z</time>
      </trkpt>
      <trkpt lat="44.51929" lon="5.51132">
        <ele>1412.79</ele>
        <time>2017-06-14T13:02:48Z</time>
      </trkpt>
      <trkpt lat="44.51929" lon="5.51124">
        <ele>1409.43</ele>
        <time>2017-06-14T13:03:02Z</time>
      </trkpt>
      <trkpt lat="44.51936" lon="5.51116">
        <ele>1406.55</ele>
        <time>2017-06-14T13:03:17Z</time>
      </trkpt>
      <trkpt lat="44.51941" lon="5.51104">
        <ele>1403.18</ele>
        <time>2017-06-14T13:03:29Z</time>
      </trkpt>
      <trkpt lat="44.51947" lon="5.51105">
        <ele>1400.3</ele>
        <time>2017-06-14T13:03:42Z</time>
      </trkpt>
      <trkpt lat="44.51952" lon="5.51099">
        <ele>1397.41</ele>
        <time>2017-06-14T13:03:58Z</time>
      </trkpt>
      <trkpt lat="44.51957" lon="5.51099">
        <ele>1395.49</ele>
        <time>2017-06-14T13:04:15Z</time>
      </trkpt>
      <trkpt lat="44.51962" lon="5.51099">
        <ele>1392.61</ele>
        <time>2017-06-14T13:04:31Z</time>
      </trkpt>
      <trkpt lat="44.51967" lon="5.511">
        <ele>1390.2</ele>
        <time>2017-06-14T13:04:48Z</time>
      </trkpt>
      <trkpt lat="44.51973" lon="5.51097">
        <ele>1389.72</ele>
        <time>2017-06-14T13:05:09Z</time>
      </trkpt>
      <trkpt lat="44.51979" lon="5.51094">
        <ele>1389.72</ele>
        <time>2017-06-14T13:05:38Z</time>
      </trkpt>
      <trkpt lat="44.51983" lon="5.51099">
        <ele>1389.72</ele>
        <time>2017-06-14T13:05:58Z</time>
      </trkpt>
      <trkpt lat="44.51977" lon="5.51095">
        <ele>1388.28</ele>
        <time>2017-06-14T13:06:17Z</time>
      </trkpt>
      <trkpt lat="44.51973" lon="5.51086">
        <ele>1385.4</ele>
        <time>2017-06-14T13:06:30Z</time>
      </trkpt>
      <trkpt lat="44.5198" lon="5.51074">
        <ele>1382.03</ele>
        <time>2017-06-14T13:06:46Z</time>
      </trkpt>
      <trkpt lat="44.51982" lon="5.51073">
        <ele>1381.55</ele>
        <time>2017-06-14T13:06:48Z</time>
      </trkpt>
      <trkpt lat="44.5198" lon="5.51056">
        <ele>1379.15</ele>
        <time>2017-06-14T13:07:03Z</time>
      </trkpt>
      <trkpt lat="44.51981" lon="5.51048">
        <ele>1377.23</ele>
        <time>2017-06-14T13:07:12Z</time>
      </trkpt>
      <trkpt lat="44.51976" lon="5.51034">
        <ele>1374.82</ele>
        <time>2017-06-14T13:07:28Z</time>
      </trkpt>
      <trkpt lat="44.51966" lon="5.51019">
        <ele>1371.94</ele>
        <time>2017-06-14T13:07:45Z</time>
      </trkpt>
      <trkpt lat="44.51962" lon="5.51002">
        <ele>1369.05</ele>
        <time>2017-06-14T13:08:00Z</time>
      </trkpt>
      <trkpt lat="44.51962" lon="5.50982">
        <ele>1365.69</ele>
        <time>2017-06-14T13:08:18Z</time>
      </trkpt>
      <trkpt lat="44.51967" lon="5.50973">
        <ele>1362.33</ele>
        <time>2017-06-14T13:08:30Z</time>
      </trkpt>
      <trkpt lat="44.51973" lon="5.50971">
        <ele>1361.36</ele>
        <time>2017-06-14T13:08:35Z</time>
      </trkpt>
      <trkpt lat="44.51985" lon="5.50965">
        <ele>1358</ele>
        <time>2017-06-14T13:08:50Z</time>
      </trkpt>
      <trkpt lat="44.51993" lon="5.50957">
        <ele>1355.12</ele>
        <time>2017-06-14T13:09:03Z</time>
      </trkpt>
      <trkpt lat="44.52002" lon="5.5095">
        <ele>1353.19</ele>
        <time>2017-06-14T13:09:14Z</time>
      </trkpt>
      <trkpt lat="44.52009" lon="5.50925">
        <ele>1356.08</ele>
        <time>2017-06-14T13:09:30Z</time>
      </trkpt>
      <trkpt lat="44.52011" lon="5.50916">
        <ele>1356.56</ele>
        <time>2017-06-14T13:09:36Z</time>
      </trkpt>
      <trkpt lat="44.5202" lon="5.509">
        <ele>1357.04</ele>
        <time>2017-06-14T13:09:51Z</time>
      </trkpt>
      <trkpt lat="44.52021" lon="5.50897">
        <ele>1357.04</ele>
        <time>2017-06-14T13:09:54Z</time>
      </trkpt>
      <trkpt lat="44.5203" lon="5.50868">
        <ele>1358.48</ele>
        <time>2017-06-14T13:10:14Z</time>
      </trkpt>
      <trkpt lat="44.52033" lon="5.50851">
        <ele>1360.4</ele>
        <time>2017-06-14T13:10:28Z</time>
      </trkpt>
      <trkpt lat="44.52043" lon="5.50842">
        <ele>1362.33</ele>
        <time>2017-06-14T13:10:45Z</time>
      </trkpt>
      <trkpt lat="44.52052" lon="5.50835">
        <ele>1363.77</ele>
        <time>2017-06-14T13:10:59Z</time>
      </trkpt>
      <trkpt lat="44.52064" lon="5.50824">
        <ele>1365.21</ele>
        <time>2017-06-14T13:11:17Z</time>
      </trkpt>
      <trkpt lat="44.52065" lon="5.50808">
        <ele>1364.73</ele>
        <time>2017-06-14T13:11:32Z</time>
      </trkpt>
      <trkpt lat="44.52072" lon="5.50806">
        <ele>1362.81</ele>
        <time>2017-06-14T13:11:48Z</time>
      </trkpt>
      <trkpt lat="44.52081" lon="5.50804">
        <ele>1359.44</ele>
        <time>2017-06-14T13:12:02Z</time>
      </trkpt>
      <trkpt lat="44.52091" lon="5.50799">
        <ele>1356.56</ele>
        <time>2017-06-14T13:12:15Z</time>
      </trkpt>
      <trkpt lat="44.52096" lon="5.50785">
        <ele>1353.67</ele>
        <time>2017-06-14T13:12:31Z</time>
      </trkpt>
      <trkpt lat="44.52102" lon="5.5078">
        <ele>1352.71</ele>
        <time>2017-06-14T13:12:47Z</time>
      </trkpt>
      <trkpt lat="44.52091" lon="5.50792">
        <ele>1352.71</ele>
        <time>2017-06-14T13:13:17Z</time>
      </trkpt>
      <trkpt lat="44.52098" lon="5.50785">
        <ele>1352.71</ele>
        <time>2017-06-14T13:13:46Z</time>
      </trkpt>
      <trkpt lat="44.521" lon="5.50783">
        <ele>1352.71</ele>
        <time>2017-06-14T13:13:55Z</time>
      </trkpt>
      <trkpt lat="44.52098" lon="5.50775">
        <ele>1353.67</ele>
        <time>2017-06-14T13:14:04Z</time>
      </trkpt>
      <trkpt lat="44.52096" lon="5.50771">
        <ele>1353.67</ele>
        <time>2017-06-14T13:14:08Z</time>
      </trkpt>
      <trkpt lat="44.52089" lon="5.50759">
        <ele>1351.27</ele>
        <time>2017-06-14T13:14:22Z</time>
      </trkpt>
      <trkpt lat="44.52082" lon="5.50751">
        <ele>1348.39</ele>
        <time>2017-06-14T13:14:38Z</time>
      </trkpt>
      <trkpt lat="44.52075" lon="5.50744">
        <ele>1345.5</ele>
        <time>2017-06-14T13:14:50Z</time>
      </trkpt>
      <trkpt lat="44.52068" lon="5.50729">
        <ele>1342.14</ele>
        <time>2017-06-14T13:15:05Z</time>
      </trkpt>
      <trkpt lat="44.52069" lon="5.50722">
        <ele>1338.77</ele>
        <time>2017-06-14T13:15:18Z</time>
      </trkpt>
      <trkpt lat="44.52069" lon="5.50702">
        <ele>1335.89</ele>
        <time>2017-06-14T13:15:34Z</time>
      </trkpt>
      <trkpt lat="44.52069" lon="5.50693">
        <ele>1334.45</ele>
        <time>2017-06-14T13:15:40Z</time>
      </trkpt>
      <trkpt lat="44.52065" lon="5.50679">
        <ele>1333.49</ele>
        <time>2017-06-14T13:15:48Z</time>
      </trkpt>
      <trkpt lat="44.52068" lon="5.50661">
        <ele>1332.04</ele>
        <time>2017-06-14T13:16:01Z</time>
      </trkpt>
      <trkpt lat="44.52073" lon="5.50641">
        <ele>1330.12</ele>
        <time>2017-06-14T13:16:14Z</time>
      </trkpt>
      <trkpt lat="44.52073" lon="5.50624">
        <ele>1328.68</ele>
        <time>2017-06-14T13:16:24Z</time>
      </trkpt>
      <trkpt lat="44.52074" lon="5.50616">
        <ele>1328.2</ele>
        <time>2017-06-14T13:16:29Z</time>
      </trkpt>
      <trkpt lat="44.52079" lon="5.50601">
        <ele>1327.72</ele>
        <time>2017-06-14T13:16:40Z</time>
      </trkpt>
      <trkpt lat="44.5208" lon="5.50596">
        <ele>1327.24</ele>
        <time>2017-06-14T13:16:42Z</time>
      </trkpt>
      <trkpt lat="44.52081" lon="5.50575">
        <ele>1325.31</ele>
        <time>2017-06-14T13:16:57Z</time>
      </trkpt>
      <trkpt lat="44.52079" lon="5.50552">
        <ele>1322.43</ele>
        <time>2017-06-14T13:17:11Z</time>
      </trkpt>
      <trkpt lat="44.52076" lon="5.50532">
        <ele>1320.99</ele>
        <time>2017-06-14T13:17:21Z</time>
      </trkpt>
      <trkpt lat="44.52075" lon="5.50519">
        <ele>1320.51</ele>
        <time>2017-06-14T13:17:27Z</time>
      </trkpt>
      <trkpt lat="44.52072" lon="5.50498">
        <ele>1319.07</ele>
        <time>2017-06-14T13:17:39Z</time>
      </trkpt>
      <trkpt lat="44.52077" lon="5.50474">
        <ele>1318.1</ele>
        <time>2017-06-14T13:17:52Z</time>
      </trkpt>
      <trkpt lat="44.52085" lon="5.50476">
        <ele>1317.62</ele>
        <time>2017-06-14T13:18:05Z</time>
      </trkpt>
      <trkpt lat="44.52085" lon="5.50475">
        <ele>1318.1</ele>
        <time>2017-06-14T13:18:13Z</time>
      </trkpt>
      <trkpt lat="44.52086" lon="5.50467">
        <ele>1317.62</ele>
        <time>2017-06-14T13:18:26Z</time>
      </trkpt>
      <trkpt lat="44.52086" lon="5.50462">
        <ele>1317.62</ele>
        <time>2017-06-14T13:18:35Z</time>
      </trkpt>
      <trkpt lat="44.52089" lon="5.50459">
        <ele>1318.1</ele>
        <time>2017-06-14T13:18:49Z</time>
      </trkpt>
      <trkpt lat="44.52084" lon="5.50463">
        <ele>1318.1</ele>
        <time>2017-06-14T13:18:56Z</time>
      </trkpt>
      <trkpt lat="44.52069" lon="5.50477">
        <ele>1317.62</ele>
        <time>2017-06-14T13:19:11Z</time>
      </trkpt>
      <trkpt lat="44.5206" lon="5.5049">
        <ele>1317.14</ele>
        <time>2017-06-14T13:19:23Z</time>
      </trkpt>
      <trkpt lat="44.52048" lon="5.50507">
        <ele>1316.18</ele>
        <time>2017-06-14T13:19:37Z</time>
      </trkpt>
      <trkpt lat="44.52038" lon="5.50524">
        <ele>1315.22</ele>
        <time>2017-06-14T13:19:51Z</time>
      </trkpt>
      <trkpt lat="44.52028" lon="5.50542">
        <ele>1312.82</ele>
        <time>2017-06-14T13:20:06Z</time>
      </trkpt>
      <trkpt lat="44.52026" lon="5.50544">
        <ele>1312.34</ele>
        <time>2017-06-14T13:20:08Z</time>
      </trkpt>
      <trkpt lat="44.52017" lon="5.50558">
        <ele>1310.9</ele>
        <time>2017-06-14T13:20:18Z</time>
      </trkpt>
      <trkpt lat="44.52008" lon="5.50583">
        <ele>1309.93</ele>
        <time>2017-06-14T13:20:33Z</time>
      </trkpt>
      <trkpt lat="44.51998" lon="5.50606">
        <ele>1309.45</ele>
        <time>2017-06-14T13:20:49Z</time>
      </trkpt>
      <trkpt lat="44.51991" lon="5.50629">
        <ele>1308.97</ele>
        <time>2017-06-14T13:21:04Z</time>
      </trkpt>
      <trkpt lat="44.51982" lon="5.50654">
        <ele>1308.01</ele>
        <time>2017-06-14T13:21:21Z</time>
      </trkpt>
      <trkpt lat="44.51981" lon="5.50657">
        <ele>1307.53</ele>
        <time>2017-06-14T13:21:24Z</time>
      </trkpt>
      <trkpt lat="44.51966" lon="5.50685">
        <ele>1305.61</ele>
        <time>2017-06-14T13:21:43Z</time>
      </trkpt>
      <trkpt lat="44.51959" lon="5.507">
        <ele>1303.2</ele>
        <time>2017-06-14T13:21:57Z</time>
      </trkpt>
      <trkpt lat="44.51949" lon="5.50707">
        <ele>1300.8</ele>
        <time>2017-06-14T13:22:09Z</time>
      </trkpt>
      <trkpt lat="44.51936" lon="5.50707">
        <ele>1297.44</ele>
        <time>2017-06-14T13:22:25Z</time>
      </trkpt>
      <trkpt lat="44.51929" lon="5.50708">
        <ele>1295.03</ele>
        <time>2017-06-14T13:22:34Z</time>
      </trkpt>
      <trkpt lat="44.51915" lon="5.50722">
        <ele>1291.67</ele>
        <time>2017-06-14T13:22:48Z</time>
      </trkpt>
      <trkpt lat="44.51906" lon="5.50733">
        <ele>1290.71</ele>
        <time>2017-06-14T13:23:00Z</time>
      </trkpt>
      <trkpt lat="44.51902" lon="5.5074">
        <ele>1290.23</ele>
        <time>2017-06-14T13:23:07Z</time>
      </trkpt>
      <trkpt lat="44.51886" lon="5.50764">
        <ele>1290.23</ele>
        <time>2017-06-14T13:23:22Z</time>
      </trkpt>
      <trkpt lat="44.51873" lon="5.50782">
        <ele>1290.23</ele>
        <time>2017-06-14T13:23:38Z</time>
      </trkpt>
      <trkpt lat="44.51861" lon="5.50799">
        <ele>1289.27</ele>
        <time>2017-06-14T13:23:53Z</time>
      </trkpt>
      <trkpt lat="44.51847" lon="5.50808">
        <ele>1287.82</ele>
        <time>2017-06-14T13:24:06Z</time>
      </trkpt>
      <trkpt lat="44.51845" lon="5.5081">
        <ele>1288.3</ele>
        <time>2017-06-14T13:24:08Z</time>
      </trkpt>
      <trkpt lat="44.51844" lon="5.50811">
        <ele>1288.3</ele>
        <time>2017-06-14T13:24:09Z</time>
      </trkpt>
      <trkpt lat="44.51837" lon="5.50813">
        <ele>1288.78</ele>
        <time>2017-06-14T13:24:18Z</time>
      </trkpt>
      <trkpt lat="44.51831" lon="5.50815">
        <ele>1288.78</ele>
        <time>2017-06-14T13:24:24Z</time>
      </trkpt>
      <trkpt lat="44.51823" lon="5.50811">
        <ele>1287.34</ele>
        <time>2017-06-14T13:24:37Z</time>
      </trkpt>
      <trkpt lat="44.51808" lon="5.5082">
        <ele>1283.98</ele>
        <time>2017-06-14T13:24:50Z</time>
      </trkpt>
      <trkpt lat="44.51792" lon="5.50827">
        <ele>1282.54</ele>
        <time>2017-06-14T13:25:04Z</time>
      </trkpt>
      <trkpt lat="44.51776" lon="5.50835">
        <ele>1281.09</ele>
        <time>2017-06-14T13:25:19Z</time>
      </trkpt>
      <trkpt lat="44.51763" lon="5.50844">
        <ele>1279.65</ele>
        <time>2017-06-14T13:25:33Z</time>
      </trkpt>
      <trkpt lat="44.51757" lon="5.50846">
        <ele>1279.65</ele>
        <time>2017-06-14T13:25:39Z</time>
      </trkpt>
      <trkpt lat="44.51749" lon="5.50843">
        <ele>1278.69</ele>
        <time>2017-06-14T13:25:48Z</time>
      </trkpt>
      <trkpt lat="44.51731" lon="5.50853">
        <ele>1277.25</ele>
        <time>2017-06-14T13:26:03Z</time>
      </trkpt>
      <trkpt lat="44.5173" lon="5.50855">
        <ele>1277.25</ele>
        <time>2017-06-14T13:26:06Z</time>
      </trkpt>
      <trkpt lat="44.51714" lon="5.50864">
        <ele>1275.81</ele>
        <time>2017-06-14T13:26:20Z</time>
      </trkpt>
      <trkpt lat="44.51699" lon="5.50867">
        <ele>1274.85</ele>
        <time>2017-06-14T13:26:33Z</time>
      </trkpt>
      <trkpt lat="44.51686" lon="5.5087">
        <ele>1274.36</ele>
        <time>2017-06-14T13:26:41Z</time>
      </trkpt>
      <trkpt lat="44.51677" lon="5.50872">
        <ele>1273.88</ele>
        <time>2017-06-14T13:26:47Z</time>
      </trkpt>
      <trkpt lat="44.51659" lon="5.50882">
        <ele>1273.88</ele>
        <time>2017-06-14T13:27:01Z</time>
      </trkpt>
      <trkpt lat="44.51645" lon="5.50895">
        <ele>1271.96</ele>
        <time>2017-06-14T13:27:16Z</time>
      </trkpt>
      <trkpt lat="44.5163" lon="5.50902">
        <ele>1268.6</ele>
        <time>2017-06-14T13:27:30Z</time>
      </trkpt>
      <trkpt lat="44.51622" lon="5.50907">
        <ele>1265.71</ele>
        <time>2017-06-14T13:27:41Z</time>
      </trkpt>
      <trkpt lat="44.51616" lon="5.50911">
        <ele>1263.79</ele>
        <time>2017-06-14T13:27:47Z</time>
      </trkpt>
      <trkpt lat="44.51612" lon="5.50934">
        <ele>1260.43</ele>
        <time>2017-06-14T13:28:02Z</time>
      </trkpt>
      <trkpt lat="44.51606" lon="5.5095">
        <ele>1257.54</ele>
        <time>2017-06-14T13:28:16Z</time>
      </trkpt>
      <trkpt lat="44.51597" lon="5.50967">
        <ele>1256.1</ele>
        <time>2017-06-14T13:28:29Z</time>
      </trkpt>
      <trkpt lat="44.51596" lon="5.50968">
        <ele>1256.1</ele>
        <time>2017-06-14T13:28:30Z</time>
      </trkpt>
      <trkpt lat="44.51587" lon="5.5099">
        <ele>1253.7</ele>
        <time>2017-06-14T13:28:44Z</time>
      </trkpt>
      <trkpt lat="44.51586" lon="5.50992">
        <ele>1252.74</ele>
        <time>2017-06-14T13:28:46Z</time>
      </trkpt>
      <trkpt lat="44.51575" lon="5.51001">
        <ele>1250.33</ele>
        <time>2017-06-14T13:29:01Z</time>
      </trkpt>
      <trkpt lat="44.51564" lon="5.51001">
        <ele>1248.41</ele>
        <time>2017-06-14T13:29:15Z</time>
      </trkpt>
      <trkpt lat="44.51556" lon="5.51005">
        <ele>1248.41</ele>
        <time>2017-06-14T13:29:24Z</time>
      </trkpt>
      <trkpt lat="44.51544" lon="5.51011">
        <ele>1246.49</ele>
        <time>2017-06-14T13:29:40Z</time>
      </trkpt>
      <trkpt lat="44.51534" lon="5.51014">
        <ele>1245.04</ele>
        <time>2017-06-14T13:29:55Z</time>
      </trkpt>
      <trkpt lat="44.51527" lon="5.51014">
        <ele>1241.68</ele>
        <time>2017-06-14T13:30:08Z</time>
      </trkpt>
      <trkpt lat="44.51526" lon="5.51015">
        <ele>1241.2</ele>
        <time>2017-06-14T13:30:12Z</time>
      </trkpt>
      <trkpt lat="44.51522" lon="5.51016">
        <ele>1240.24</ele>
        <time>2017-06-14T13:30:16Z</time>
      </trkpt>
      <trkpt lat="44.5152" lon="5.51016">
        <ele>1240.24</ele>
        <time>2017-06-14T13:30:17Z</time>
      </trkpt>
      <trkpt lat="44.51507" lon="5.51012">
        <ele>1236.87</ele>
        <time>2017-06-14T13:30:31Z</time>
      </trkpt>
      <trkpt lat="44.51487" lon="5.51006">
        <ele>1233.99</ele>
        <time>2017-06-14T13:30:43Z</time>
      </trkpt>
      <trkpt lat="44.51486" lon="5.51005">
        <ele>1233.99</ele>
        <time>2017-06-14T13:30:44Z</time>
      </trkpt>
      <trkpt lat="44.51478" lon="5.50998">
        <ele>1233.03</ele>
        <time>2017-06-14T13:30:52Z</time>
      </trkpt>
      <trkpt lat="44.51466" lon="5.50988">
        <ele>1229.66</ele>
        <time>2017-06-14T13:31:06Z</time>
      </trkpt>
      <trkpt lat="44.51455" lon="5.50979">
        <ele>1227.26</ele>
        <time>2017-06-14T13:31:18Z</time>
      </trkpt>
      <trkpt lat="44.51441" lon="5.50974">
        <ele>1224.38</ele>
        <time>2017-06-14T13:31:33Z</time>
      </trkpt>
      <trkpt lat="44.51441" lon="5.50974">
        <ele>1223.9</ele>
        <time>2017-06-14T13:31:34Z</time>
      </trkpt>
      <trkpt lat="44.51432" lon="5.50966">
        <ele>1220.53</ele>
        <time>2017-06-14T13:31:47Z</time>
      </trkpt>
      <trkpt lat="44.51426" lon="5.50957">
        <ele>1217.17</ele>
        <time>2017-06-14T13:32:01Z</time>
      </trkpt>
      <trkpt lat="44.5142" lon="5.50948">
        <ele>1214.28</ele>
        <time>2017-06-14T13:32:13Z</time>
      </trkpt>
      <trkpt lat="44.51416" lon="5.50935">
        <ele>1210.92</ele>
        <time>2017-06-14T13:32:27Z</time>
      </trkpt>
      <trkpt lat="44.51411" lon="5.50925">
        <ele>1207.55</ele>
        <time>2017-06-14T13:32:41Z</time>
      </trkpt>
      <trkpt lat="44.51407" lon="5.50917">
        <ele>1206.11</ele>
        <time>2017-06-14T13:32:50Z</time>
      </trkpt>
      <trkpt lat="44.51394" lon="5.50911">
        <ele>1203.23</ele>
        <time>2017-06-14T13:33:04Z</time>
      </trkpt>
      <trkpt lat="44.51392" lon="5.50911">
        <ele>1202.75</ele>
        <time>2017-06-14T13:33:06Z</time>
      </trkpt>
      <trkpt lat="44.5139" lon="5.5091">
        <ele>1202.75</ele>
        <time>2017-06-14T13:33:08Z</time>
      </trkpt>
      <trkpt lat="44.51382" lon="5.50903">
        <ele>1200.34</ele>
        <time>2017-06-14T13:33:20Z</time>
      </trkpt>
      <trkpt lat="44.51374" lon="5.50895">
        <ele>1198.42</ele>
        <time>2017-06-14T13:33:33Z</time>
      </trkpt>
      <trkpt lat="44.51367" lon="5.50889">
        <ele>1197.46</ele>
        <time>2017-06-14T13:33:46Z</time>
      </trkpt>
      <trkpt lat="44.51346" lon="5.50895">
        <ele>1196.5</ele>
        <time>2017-06-14T13:33:59Z</time>
      </trkpt>
      <trkpt lat="44.51345" lon="5.50896">
        <ele>1196.5</ele>
        <time>2017-06-14T13:34:00Z</time>
      </trkpt>
      <trkpt lat="44.51335" lon="5.50915">
        <ele>1197.46</ele>
        <time>2017-06-14T13:34:16Z</time>
      </trkpt>
      <trkpt lat="44.51326" lon="5.50921">
        <ele>1198.42</ele>
        <time>2017-06-14T13:34:28Z</time>
      </trkpt>
      <trkpt lat="44.51319" lon="5.50924">
        <ele>1197.46</ele>
        <time>2017-06-14T13:34:36Z</time>
      </trkpt>
      <trkpt lat="44.51317" lon="5.50927">
        <ele>1197.46</ele>
        <time>2017-06-14T13:34:39Z</time>
      </trkpt>
      <trkpt lat="44.51299" lon="5.50935">
        <ele>1196.02</ele>
        <time>2017-06-14T13:34:55Z</time>
      </trkpt>
      <trkpt lat="44.5128" lon="5.50948">
        <ele>1196.5</ele>
        <time>2017-06-14T13:35:12Z</time>
      </trkpt>
      <trkpt lat="44.51264" lon="5.50962">
        <ele>1197.46</ele>
        <time>2017-06-14T13:35:28Z</time>
      </trkpt>
      <trkpt lat="44.51254" lon="5.50968">
        <ele>1196.5</ele>
        <time>2017-06-14T13:35:41Z</time>
      </trkpt>
      <trkpt lat="44.51246" lon="5.50971">
        <ele>1195.06</ele>
        <time>2017-06-14T13:35:48Z</time>
      </trkpt>
      <trkpt lat="44.51244" lon="5.50972">
        <ele>1195.06</ele>
        <time>2017-06-14T13:35:50Z</time>
      </trkpt>
      <trkpt lat="44.51226" lon="5.50975">
        <ele>1193.61</ele>
        <time>2017-06-14T13:36:06Z</time>
      </trkpt>
      <trkpt lat="44.5121" lon="5.50981">
        <ele>1194.58</ele>
        <time>2017-06-14T13:36:23Z</time>
      </trkpt>
      <trkpt lat="44.51208" lon="5.50982">
        <ele>1194.09</ele>
        <time>2017-06-14T13:36:25Z</time>
      </trkpt>
      <trkpt lat="44.51198" lon="5.50994">
        <ele>1191.21</ele>
        <time>2017-06-14T13:36:40Z</time>
      </trkpt>
      <trkpt lat="44.51198" lon="5.50995">
        <ele>1191.21</ele>
        <time>2017-06-14T13:36:41Z</time>
      </trkpt>
      <trkpt lat="44.51186" lon="5.51002">
        <ele>1187.85</ele>
        <time>2017-06-14T13:36:56Z</time>
      </trkpt>
      <trkpt lat="44.51179" lon="5.51012">
        <ele>1185.92</ele>
        <time>2017-06-14T13:37:07Z</time>
      </trkpt>
      <trkpt lat="44.51178" lon="5.51018">
        <ele>1185.44</ele>
        <time>2017-06-14T13:37:11Z</time>
      </trkpt>
      <trkpt lat="44.51163" lon="5.51041">
        <ele>1188.81</ele>
        <time>2017-06-14T13:37:26Z</time>
      </trkpt>
      <trkpt lat="44.5116" lon="5.51043">
        <ele>1188.81</ele>
        <time>2017-06-14T13:37:36Z</time>
      </trkpt>
      <trkpt lat="44.51151" lon="5.51043">
        <ele>1189.77</ele>
        <time>2017-06-14T13:37:51Z</time>
      </trkpt>
      <trkpt lat="44.51143" lon="5.51042">
        <ele>1189.29</ele>
        <time>2017-06-14T13:38:03Z</time>
      </trkpt>
      <trkpt lat="44.51125" lon="5.51046">
        <ele>1189.77</ele>
        <time>2017-06-14T13:38:18Z</time>
      </trkpt>
      <trkpt lat="44.5112" lon="5.51052">
        <ele>1189.77</ele>
        <time>2017-06-14T13:38:24Z</time>
      </trkpt>
      <trkpt lat="44.51103" lon="5.51064">
        <ele>1187.37</ele>
        <time>2017-06-14T13:38:40Z</time>
      </trkpt>
      <trkpt lat="44.51089" lon="5.51069">
        <ele>1186.88</ele>
        <time>2017-06-14T13:38:54Z</time>
      </trkpt>
      <trkpt lat="44.51076" lon="5.5107">
        <ele>1186.4</ele>
        <time>2017-06-14T13:39:03Z</time>
      </trkpt>
      <trkpt lat="44.51062" lon="5.51072">
        <ele>1184.48</ele>
        <time>2017-06-14T13:39:17Z</time>
      </trkpt>
      <trkpt lat="44.51047" lon="5.51079">
        <ele>1183.04</ele>
        <time>2017-06-14T13:39:30Z</time>
      </trkpt>
      <trkpt lat="44.51034" lon="5.51084">
        <ele>1181.6</ele>
        <time>2017-06-14T13:39:46Z</time>
      </trkpt>
      <trkpt lat="44.51031" lon="5.51083">
        <ele>1180.64</ele>
        <time>2017-06-14T13:39:49Z</time>
      </trkpt>
      <trkpt lat="44.51009" lon="5.51091">
        <ele>1179.19</ele>
        <time>2017-06-14T13:40:05Z</time>
      </trkpt>
      <trkpt lat="44.50994" lon="5.51118">
        <ele>1177.75</ele>
        <time>2017-06-14T13:40:23Z</time>
      </trkpt>
      <trkpt lat="44.5099" lon="5.51123">
        <ele>1178.71</ele>
        <time>2017-06-14T13:40:28Z</time>
      </trkpt>
      <trkpt lat="44.50986" lon="5.51128">
        <ele>1179.67</ele>
        <time>2017-06-14T13:40:34Z</time>
      </trkpt>
      <trkpt lat="44.50982" lon="5.51129">
        <ele>1180.16</ele>
        <time>2017-06-14T13:40:38Z</time>
      </trkpt>
      <trkpt lat="44.50966" lon="5.51131">
        <ele>1181.6</ele>
        <time>2017-06-14T13:40:53Z</time>
      </trkpt>
      <trkpt lat="44.50949" lon="5.51141">
        <ele>1183.52</ele>
        <time>2017-06-14T13:41:11Z</time>
      </trkpt>
      <trkpt lat="44.50938" lon="5.51152">
        <ele>1183.04</ele>
        <time>2017-06-14T13:41:23Z</time>
      </trkpt>
      <trkpt lat="44.50937" lon="5.51152">
        <ele>1183.04</ele>
        <time>2017-06-14T13:41:24Z</time>
      </trkpt>
      <trkpt lat="44.50926" lon="5.51174">
        <ele>1183.04</ele>
        <time>2017-06-14T13:41:36Z</time>
      </trkpt>
      <trkpt lat="44.50923" lon="5.51183">
        <ele>1183.04</ele>
        <time>2017-06-14T13:41:40Z</time>
      </trkpt>
      <trkpt lat="44.50916" lon="5.51211">
        <ele>1183.04</ele>
        <time>2017-06-14T13:41:56Z</time>
      </trkpt>
      <trkpt lat="44.50909" lon="5.51248">
        <ele>1182.08</ele>
        <time>2017-06-14T13:42:17Z</time>
      </trkpt>
      <trkpt lat="44.50907" lon="5.5128">
        <ele>1182.08</ele>
        <time>2017-06-14T13:42:34Z</time>
      </trkpt>
      <trkpt lat="44.50904" lon="5.51299">
        <ele>1182.08</ele>
        <time>2017-06-14T13:42:47Z</time>
      </trkpt>
      <trkpt lat="44.50907" lon="5.51322">
        <ele>1179.19</ele>
        <time>2017-06-14T13:43:04Z</time>
      </trkpt>
      <trkpt lat="44.50906" lon="5.51327">
        <ele>1177.75</ele>
        <time>2017-06-14T13:43:17Z</time>
      </trkpt>
      <trkpt lat="44.50911" lon="5.51334">
        <ele>1178.23</ele>
        <time>2017-06-14T13:43:34Z</time>
      </trkpt>
      <trkpt lat="44.50913" lon="5.51339">
        <ele>1178.23</ele>
        <time>2017-06-14T13:43:40Z</time>
      </trkpt>
      <trkpt lat="44.50912" lon="5.51348">
        <ele>1177.27</ele>
        <time>2017-06-14T13:43:47Z</time>
      </trkpt>
      <trkpt lat="44.5091" lon="5.51353">
        <ele>1176.79</ele>
        <time>2017-06-14T13:43:51Z</time>
      </trkpt>
      <trkpt lat="44.50913" lon="5.5137">
        <ele>1175.35</ele>
        <time>2017-06-14T13:44:06Z</time>
      </trkpt>
      <trkpt lat="44.50912" lon="5.51369">
        <ele>1175.35</ele>
        <time>2017-06-14T13:44:23Z</time>
      </trkpt>
      <trkpt lat="44.50911" lon="5.51367">
        <ele>1175.35</ele>
        <time>2017-06-14T13:44:38Z</time>
      </trkpt>
      <trkpt lat="44.50913" lon="5.5138">
        <ele>1174.39</ele>
        <time>2017-06-14T13:44:52Z</time>
      </trkpt>
      <trkpt lat="44.50919" lon="5.51402">
        <ele>1173.43</ele>
        <time>2017-06-14T13:45:07Z</time>
      </trkpt>
      <trkpt lat="44.50918" lon="5.51416">
        <ele>1173.43</ele>
        <time>2017-06-14T13:45:17Z</time>
      </trkpt>
      <trkpt lat="44.50916" lon="5.51421">
        <ele>1173.43</ele>
        <time>2017-06-14T13:45:21Z</time>
      </trkpt>
      <trkpt lat="44.50915" lon="5.51427">
        <ele>1172.95</ele>
        <time>2017-06-14T13:45:25Z</time>
      </trkpt>
      <trkpt lat="44.50909" lon="5.51455">
        <ele>1171.98</ele>
        <time>2017-06-14T13:45:43Z</time>
      </trkpt>
      <trkpt lat="44.50909" lon="5.51462">
        <ele>1171.5</ele>
        <time>2017-06-14T13:45:54Z</time>
      </trkpt>
      <trkpt lat="44.50908" lon="5.51471">
        <ele>1171.5</ele>
        <time>2017-06-14T13:46:01Z</time>
      </trkpt>
      <trkpt lat="44.50906" lon="5.51497">
        <ele>1170.54</ele>
        <time>2017-06-14T13:46:18Z</time>
      </trkpt>
      <trkpt lat="44.50906" lon="5.51531">
        <ele>1170.54</ele>
        <time>2017-06-14T13:46:36Z</time>
      </trkpt>
      <trkpt lat="44.50905" lon="5.51563">
        <ele>1170.06</ele>
        <time>2017-06-14T13:46:54Z</time>
      </trkpt>
      <trkpt lat="44.50907" lon="5.51598">
        <ele>1168.62</ele>
        <time>2017-06-14T13:47:13Z</time>
      </trkpt>
      <trkpt lat="44.50911" lon="5.51627">
        <ele>1167.18</ele>
        <time>2017-06-14T13:47:31Z</time>
      </trkpt>
      <trkpt lat="44.50914" lon="5.51662">
        <ele>1166.7</ele>
        <time>2017-06-14T13:47:50Z</time>
      </trkpt>
      <trkpt lat="44.50918" lon="5.51693">
        <ele>1166.7</ele>
        <time>2017-06-14T13:48:08Z</time>
      </trkpt>
      <trkpt lat="44.50924" lon="5.51722">
        <ele>1166.7</ele>
        <time>2017-06-14T13:48:26Z</time>
      </trkpt>
      <trkpt lat="44.50926" lon="5.51727">
        <ele>1166.7</ele>
        <time>2017-06-14T13:48:38Z</time>
      </trkpt>
      <trkpt lat="44.50925" lon="5.51732">
        <ele>1166.22</ele>
        <time>2017-06-14T13:49:09Z</time>
      </trkpt>
      <trkpt lat="44.50924" lon="5.51743">
        <ele>1164.77</ele>
        <time>2017-06-14T13:49:24Z</time>
      </trkpt>
      <trkpt lat="44.50923" lon="5.51749">
        <ele>1164.29</ele>
        <time>2017-06-14T13:49:29Z</time>
      </trkpt>
      <trkpt lat="44.50924" lon="5.51775">
        <ele>1163.81</ele>
        <time>2017-06-14T13:49:45Z</time>
      </trkpt>
      <trkpt lat="44.50922" lon="5.51797">
        <ele>1163.81</ele>
        <time>2017-06-14T13:49:59Z</time>
      </trkpt>
      <trkpt lat="44.5092" lon="5.51803">
        <ele>1163.81</ele>
        <time>2017-06-14T13:50:04Z</time>
      </trkpt>
      <trkpt lat="44.50926" lon="5.51836">
        <ele>1163.81</ele>
        <time>2017-06-14T13:50:19Z</time>
      </trkpt>
      <trkpt lat="44.50931" lon="5.51849">
        <ele>1163.33</ele>
        <time>2017-06-14T13:50:39Z</time>
      </trkpt>
      <trkpt lat="44.5093" lon="5.51853">
        <ele>1162.85</ele>
        <time>2017-06-14T13:50:55Z</time>
      </trkpt>
      <trkpt lat="44.50932" lon="5.51864">
        <ele>1163.33</ele>
        <time>2017-06-14T13:51:10Z</time>
      </trkpt>
      <trkpt lat="44.50934" lon="5.51877">
        <ele>1163.33</ele>
        <time>2017-06-14T13:51:28Z</time>
      </trkpt>
      <trkpt lat="44.50938" lon="5.51887">
        <ele>1163.33</ele>
        <time>2017-06-14T13:51:39Z</time>
      </trkpt>
      <trkpt lat="44.50958" lon="5.51898">
        <ele>1165.26</ele>
        <time>2017-06-14T13:51:58Z</time>
      </trkpt>
      <trkpt lat="44.50968" lon="5.51901">
        <ele>1167.18</ele>
        <time>2017-06-14T13:52:09Z</time>
      </trkpt>
      <trkpt lat="44.50988" lon="5.51902">
        <ele>1168.14</ele>
        <time>2017-06-14T13:52:27Z</time>
      </trkpt>
      <trkpt lat="44.50996" lon="5.51892">
        <ele>1168.14</ele>
        <time>2017-06-14T13:52:42Z</time>
      </trkpt>
      <trkpt lat="44.51004" lon="5.51882">
        <ele>1169.1</ele>
        <time>2017-06-14T13:52:55Z</time>
      </trkpt>
      <trkpt lat="44.51021" lon="5.51868">
        <ele>1169.58</ele>
        <time>2017-06-14T13:53:09Z</time>
      </trkpt>
      <trkpt lat="44.51022" lon="5.51867">
        <ele>1169.58</ele>
        <time>2017-06-14T13:53:13Z</time>
      </trkpt>
      <trkpt lat="44.51027" lon="5.51878">
        <ele>1170.06</ele>
        <time>2017-06-14T13:53:20Z</time>
      </trkpt>
      <trkpt lat="44.51031" lon="5.51901">
        <ele>1171.5</ele>
        <time>2017-06-14T13:53:37Z</time>
      </trkpt>
      <trkpt lat="44.51041" lon="5.51914">
        <ele>1174.39</ele>
        <time>2017-06-14T13:53:53Z</time>
      </trkpt>
      <trkpt lat="44.51049" lon="5.51911">
        <ele>1177.27</ele>
        <time>2017-06-14T13:54:09Z</time>
      </trkpt>
      <trkpt lat="44.51054" lon="5.51902">
        <ele>1178.23</ele>
        <time>2017-06-14T13:54:20Z</time>
      </trkpt>
      <trkpt lat="44.51066" lon="5.51883">
        <ele>1179.67</ele>
        <time>2017-06-14T13:54:40Z</time>
      </trkpt>
      <trkpt lat="44.51078" lon="5.51862">
        <ele>1180.64</ele>
        <time>2017-06-14T13:54:59Z</time>
      </trkpt>
      <trkpt lat="44.51083" lon="5.51847">
        <ele>1181.12</ele>
        <time>2017-06-14T13:55:12Z</time>
      </trkpt>
      <trkpt lat="44.51084" lon="5.51848">
        <ele>1181.12</ele>
        <time>2017-06-14T13:55:26Z</time>
      </trkpt>
      <trkpt lat="44.51096" lon="5.51857">
        <ele>1182.56</ele>
        <time>2017-06-14T13:55:42Z</time>
      </trkpt>
      <trkpt lat="44.51102" lon="5.51857">
        <ele>1184</ele>
        <time>2017-06-14T13:55:53Z</time>
      </trkpt>
      <trkpt lat="44.51113" lon="5.51852">
        <ele>1186.88</ele>
        <time>2017-06-14T13:56:09Z</time>
      </trkpt>
      <trkpt lat="44.51125" lon="5.5184">
        <ele>1189.77</ele>
        <time>2017-06-14T13:56:28Z</time>
      </trkpt>
      <trkpt lat="44.51129" lon="5.51833">
        <ele>1190.73</ele>
        <time>2017-06-14T13:56:41Z</time>
      </trkpt>
      <trkpt lat="44.51139" lon="5.51823">
        <ele>1193.61</ele>
        <time>2017-06-14T13:56:59Z</time>
      </trkpt>
      <trkpt lat="44.51148" lon="5.51814">
        <ele>1196.02</ele>
        <time>2017-06-14T13:57:14Z</time>
      </trkpt>
      <trkpt lat="44.51156" lon="5.51806">
        <ele>1197.94</ele>
        <time>2017-06-14T13:57:28Z</time>
      </trkpt>
      <trkpt lat="44.51157" lon="5.51807">
        <ele>1198.9</ele>
        <time>2017-06-14T13:57:34Z</time>
      </trkpt>
      <trkpt lat="44.51158" lon="5.51811">
        <ele>1200.34</ele>
        <time>2017-06-14T13:57:49Z</time>
      </trkpt>
      <trkpt lat="44.51158" lon="5.51825">
        <ele>1202.27</ele>
        <time>2017-06-14T13:58:04Z</time>
      </trkpt>
      <trkpt lat="44.51159" lon="5.51842">
        <ele>1204.67</ele>
        <time>2017-06-14T13:58:19Z</time>
      </trkpt>
      <trkpt lat="44.51158" lon="5.51852">
        <ele>1207.07</ele>
        <time>2017-06-14T13:58:33Z</time>
      </trkpt>
      <trkpt lat="44.51158" lon="5.51867">
        <ele>1209.48</ele>
        <time>2017-06-14T13:58:47Z</time>
      </trkpt>
      <trkpt lat="44.51153" lon="5.51878">
        <ele>1211.4</ele>
        <time>2017-06-14T13:59:02Z</time>
      </trkpt>
      <trkpt lat="44.51152" lon="5.51895">
        <ele>1213.8</ele>
        <time>2017-06-14T13:59:18Z</time>
      </trkpt>
      <trkpt lat="44.51153" lon="5.51914">
        <ele>1215.72</ele>
        <time>2017-06-14T13:59:31Z</time>
      </trkpt>
      <trkpt lat="44.51157" lon="5.5194">
        <ele>1217.17</ele>
        <time>2017-06-14T13:59:47Z</time>
      </trkpt>
      <trkpt lat="44.5116" lon="5.51944">
        <ele>1217.65</ele>
        <time>2017-06-14T13:59:50Z</time>
      </trkpt>
      <trkpt lat="44.5117" lon="5.51957">
        <ele>1219.57</ele>
        <time>2017-06-14T14:00:09Z</time>
      </trkpt>
      <trkpt lat="44.5117" lon="5.5196">
        <ele>1219.57</ele>
        <time>2017-06-14T14:00:22Z</time>
      </trkpt>
      <trkpt lat="44.51172" lon="5.5196">
        <ele>1219.57</ele>
        <time>2017-06-14T14:00:40Z</time>
      </trkpt>
      <trkpt lat="44.5117" lon="5.51961">
        <ele>1219.09</ele>
        <time>2017-06-14T14:01:00Z</time>
      </trkpt>
      <trkpt lat="44.5117" lon="5.51962">
        <ele>1219.09</ele>
        <time>2017-06-14T14:01:17Z</time>
      </trkpt>
      <trkpt lat="44.51172" lon="5.51957">
        <ele>1219.09</ele>
        <time>2017-06-14T14:01:32Z</time>
      </trkpt>
      <trkpt lat="44.51169" lon="5.51955">
        <ele>1219.09</ele>
        <time>2017-06-14T14:01:55Z</time>
      </trkpt>
      <trkpt lat="44.51168" lon="5.51954">
        <ele>1218.61</ele>
        <time>2017-06-14T14:02:09Z</time>
      </trkpt>
      <trkpt lat="44.51169" lon="5.51958">
        <ele>1218.61</ele>
        <time>2017-06-14T14:02:29Z</time>
      </trkpt>
      <trkpt lat="44.5117" lon="5.51958">
        <ele>1219.09</ele>
        <time>2017-06-14T14:02:45Z</time>
      </trkpt>
      <trkpt lat="44.51168" lon="5.5196">
        <ele>1218.61</ele>
        <time>2017-06-14T14:02:49Z</time>
      </trkpt>
      <trkpt lat="44.51165" lon="5.51965">
        <ele>1218.13</ele>
        <time>2017-06-14T14:02:56Z</time>
      </trkpt>
      <trkpt lat="44.51158" lon="5.51977">
        <ele>1218.13</ele>
        <time>2017-06-14T14:03:10Z</time>
      </trkpt>
      <trkpt lat="44.51148" lon="5.51998">
        <ele>1217.17</ele>
        <time>2017-06-14T14:03:27Z</time>
      </trkpt>
      <trkpt lat="44.51146" lon="5.52">
        <ele>1217.17</ele>
        <time>2017-06-14T14:03:29Z</time>
      </trkpt>
      <trkpt lat="44.51137" lon="5.52018">
        <ele>1215.72</ele>
        <time>2017-06-14T14:03:44Z</time>
      </trkpt>
      <trkpt lat="44.51127" lon="5.52041">
        <ele>1215.24</ele>
        <time>2017-06-14T14:04:00Z</time>
      </trkpt>
      <trkpt lat="44.51116" lon="5.5206">
        <ele>1214.76</ele>
        <time>2017-06-14T14:04:16Z</time>
      </trkpt>
      <trkpt lat="44.51114" lon="5.52062">
        <ele>1214.28</ele>
        <time>2017-06-14T14:04:18Z</time>
      </trkpt>
      <trkpt lat="44.51106" lon="5.52074">
        <ele>1213.32</ele>
        <time>2017-06-14T14:04:29Z</time>
      </trkpt>
      <trkpt lat="44.51099" lon="5.52095">
        <ele>1212.36</ele>
        <time>2017-06-14T14:04:45Z</time>
      </trkpt>
      <trkpt lat="44.51098" lon="5.52095">
        <ele>1212.84</ele>
        <time>2017-06-14T14:04:46Z</time>
      </trkpt>
      <trkpt lat="44.51086" lon="5.52108">
        <ele>1210.92</ele>
        <time>2017-06-14T14:05:00Z</time>
      </trkpt>
      <trkpt lat="44.51083" lon="5.52112">
        <ele>1210.44</ele>
        <time>2017-06-14T14:05:04Z</time>
      </trkpt>
      <trkpt lat="44.51073" lon="5.52126">
        <ele>1208.03</ele>
        <time>2017-06-14T14:05:18Z</time>
      </trkpt>
      <trkpt lat="44.51054" lon="5.52145">
        <ele>1207.07</ele>
        <time>2017-06-14T14:05:35Z</time>
      </trkpt>
      <trkpt lat="44.51041" lon="5.5217">
        <ele>1205.15</ele>
        <time>2017-06-14T14:05:52Z</time>
      </trkpt>
      <trkpt lat="44.51027" lon="5.52196">
        <ele>1203.23</ele>
        <time>2017-06-14T14:06:09Z</time>
      </trkpt>
      <trkpt lat="44.51014" lon="5.52221">
        <ele>1200.82</ele>
        <time>2017-06-14T14:06:27Z</time>
      </trkpt>
      <trkpt lat="44.51013" lon="5.52226">
        <ele>1200.34</ele>
        <time>2017-06-14T14:06:30Z</time>
      </trkpt>
      <trkpt lat="44.51003" lon="5.52254">
        <ele>1198.9</ele>
        <time>2017-06-14T14:06:48Z</time>
      </trkpt>
      <trkpt lat="44.5101" lon="5.52274">
        <ele>1197.94</ele>
        <time>2017-06-14T14:06:58Z</time>
      </trkpt>
      <trkpt lat="44.51025" lon="5.52276">
        <ele>1196.5</ele>
        <time>2017-06-14T14:07:11Z</time>
      </trkpt>
      <trkpt lat="44.5103" lon="5.52276">
        <ele>1196.02</ele>
        <time>2017-06-14T14:07:16Z</time>
      </trkpt>
      <trkpt lat="44.5104" lon="5.5227">
        <ele>1195.54</ele>
        <time>2017-06-14T14:07:31Z</time>
      </trkpt>
      <trkpt lat="44.51055" lon="5.5226">
        <ele>1194.09</ele>
        <time>2017-06-14T14:07:45Z</time>
      </trkpt>
      <trkpt lat="44.51072" lon="5.52248">
        <ele>1193.13</ele>
        <time>2017-06-14T14:08:02Z</time>
      </trkpt>
      <trkpt lat="44.51079" lon="5.52245">
        <ele>1192.65</ele>
        <time>2017-06-14T14:08:10Z</time>
      </trkpt>
      <trkpt lat="44.51094" lon="5.52239">
        <ele>1191.21</ele>
        <time>2017-06-14T14:08:25Z</time>
      </trkpt>
      <trkpt lat="44.51099" lon="5.52236">
        <ele>1189.77</ele>
        <time>2017-06-14T14:08:30Z</time>
      </trkpt>
      <trkpt lat="44.51116" lon="5.52229">
        <ele>1186.4</ele>
        <time>2017-06-14T14:08:46Z</time>
      </trkpt>
      <trkpt lat="44.51128" lon="5.5222">
        <ele>1184.48</ele>
        <time>2017-06-14T14:08:58Z</time>
      </trkpt>
      <trkpt lat="44.51143" lon="5.5221">
        <ele>1181.6</ele>
        <time>2017-06-14T14:09:14Z</time>
      </trkpt>
      <trkpt lat="44.51154" lon="5.5221">
        <ele>1178.71</ele>
        <time>2017-06-14T14:09:28Z</time>
      </trkpt>
      <trkpt lat="44.51171" lon="5.52215">
        <ele>1176.79</ele>
        <time>2017-06-14T14:09:43Z</time>
      </trkpt>
      <trkpt lat="44.51184" lon="5.52219">
        <ele>1174.39</ele>
        <time>2017-06-14T14:09:57Z</time>
      </trkpt>
      <trkpt lat="44.51199" lon="5.52231">
        <ele>1174.39</ele>
        <time>2017-06-14T14:10:12Z</time>
      </trkpt>
      <trkpt lat="44.51205" lon="5.5224">
        <ele>1174.39</ele>
        <time>2017-06-14T14:10:26Z</time>
      </trkpt>
      <trkpt lat="44.51212" lon="5.52256">
        <ele>1171.98</ele>
        <time>2017-06-14T14:10:40Z</time>
      </trkpt>
      <trkpt lat="44.51216" lon="5.52279">
        <ele>1168.62</ele>
        <time>2017-06-14T14:10:54Z</time>
      </trkpt>
      <trkpt lat="44.51217" lon="5.52288">
        <ele>1167.66</ele>
        <time>2017-06-14T14:11:03Z</time>
      </trkpt>
      <trkpt lat="44.51218" lon="5.52311">
        <ele>1165.74</ele>
        <time>2017-06-14T14:11:17Z</time>
      </trkpt>
      <trkpt lat="44.51221" lon="5.52319">
        <ele>1164.29</ele>
        <time>2017-06-14T14:11:23Z</time>
      </trkpt>
      <trkpt lat="44.51227" lon="5.52345">
        <ele>1161.89</ele>
        <time>2017-06-14T14:11:38Z</time>
      </trkpt>
      <trkpt lat="44.51228" lon="5.52351">
        <ele>1161.41</ele>
        <time>2017-06-14T14:11:41Z</time>
      </trkpt>
      <trkpt lat="44.51239" lon="5.52375">
        <ele>1159.49</ele>
        <time>2017-06-14T14:11:55Z</time>
      </trkpt>
      <trkpt lat="44.51241" lon="5.52392">
        <ele>1156.6</ele>
        <time>2017-06-14T14:12:08Z</time>
      </trkpt>
      <trkpt lat="44.51243" lon="5.52416">
        <ele>1154.68</ele>
        <time>2017-06-14T14:12:21Z</time>
      </trkpt>
      <trkpt lat="44.51249" lon="5.5243">
        <ele>1153.24</ele>
        <time>2017-06-14T14:12:34Z</time>
      </trkpt>
      <trkpt lat="44.51256" lon="5.5245">
        <ele>1150.84</ele>
        <time>2017-06-14T14:12:47Z</time>
      </trkpt>
      <trkpt lat="44.5126" lon="5.52474">
        <ele>1148.91</ele>
        <time>2017-06-14T14:13:00Z</time>
      </trkpt>
      <trkpt lat="44.5127" lon="5.52504">
        <ele>1146.99</ele>
        <time>2017-06-14T14:13:16Z</time>
      </trkpt>
      <trkpt lat="44.5128" lon="5.52533">
        <ele>1145.55</ele>
        <time>2017-06-14T14:13:32Z</time>
      </trkpt>
      <trkpt lat="44.51288" lon="5.52557">
        <ele>1144.11</ele>
        <time>2017-06-14T14:13:47Z</time>
      </trkpt>
      <trkpt lat="44.51288" lon="5.52559">
        <ele>1142.66</ele>
        <time>2017-06-14T14:13:53Z</time>
      </trkpt>
      <trkpt lat="44.51279" lon="5.52562">
        <ele>1139.78</ele>
        <time>2017-06-14T14:14:06Z</time>
      </trkpt>
      <trkpt lat="44.51273" lon="5.52563">
        <ele>1137.86</ele>
        <time>2017-06-14T14:14:14Z</time>
      </trkpt>
      <trkpt lat="44.51265" lon="5.52562">
        <ele>1135.45</ele>
        <time>2017-06-14T14:14:28Z</time>
      </trkpt>
      <trkpt lat="44.51252" lon="5.52568">
        <ele>1132.57</ele>
        <time>2017-06-14T14:14:42Z</time>
      </trkpt>
      <trkpt lat="44.5125" lon="5.52584">
        <ele>1129.21</ele>
        <time>2017-06-14T14:14:55Z</time>
      </trkpt>
      <trkpt lat="44.51244" lon="5.52597">
        <ele>1126.32</ele>
        <time>2017-06-14T14:15:08Z</time>
      </trkpt>
      <trkpt lat="44.51242" lon="5.52602">
        <ele>1124.88</ele>
        <time>2017-06-14T14:15:13Z</time>
      </trkpt>
      <trkpt lat="44.51238" lon="5.52608">
        <ele>1123.44</ele>
        <time>2017-06-14T14:15:19Z</time>
      </trkpt>
      <trkpt lat="44.51232" lon="5.52621">
        <ele>1119.59</ele>
        <time>2017-06-14T14:15:32Z</time>
      </trkpt>
      <trkpt lat="44.51224" lon="5.52633">
        <ele>1116.71</ele>
        <time>2017-06-14T14:15:45Z</time>
      </trkpt>
      <trkpt lat="44.51217" lon="5.52649">
        <ele>1113.34</ele>
        <time>2017-06-14T14:15:57Z</time>
      </trkpt>
      <trkpt lat="44.51217" lon="5.52651">
        <ele>1112.86</ele>
        <time>2017-06-14T14:15:58Z</time>
      </trkpt>
      <trkpt lat="44.51212" lon="5.52657">
        <ele>1109.98</ele>
        <time>2017-06-14T14:16:09Z</time>
      </trkpt>
      <trkpt lat="44.51206" lon="5.52666">
        <ele>1107.1</ele>
        <time>2017-06-14T14:16:20Z</time>
      </trkpt>
      <trkpt lat="44.512" lon="5.52682">
        <ele>1103.73</ele>
        <time>2017-06-14T14:16:34Z</time>
      </trkpt>
      <trkpt lat="44.51198" lon="5.52686">
        <ele>1102.77</ele>
        <time>2017-06-14T14:16:38Z</time>
      </trkpt>
      <trkpt lat="44.51196" lon="5.52687">
        <ele>1102.77</ele>
        <time>2017-06-14T14:16:40Z</time>
      </trkpt>
      <trkpt lat="44.51191" lon="5.52693">
        <ele>1101.33</ele>
        <time>2017-06-14T14:16:46Z</time>
      </trkpt>
      <trkpt lat="44.5119" lon="5.52694">
        <ele>1100.85</ele>
        <time>2017-06-14T14:16:48Z</time>
      </trkpt>
      <trkpt lat="44.51177" lon="5.52709">
        <ele>1099.89</ele>
        <time>2017-06-14T14:17:01Z</time>
      </trkpt>
      <trkpt lat="44.51174" lon="5.52725">
        <ele>1097.96</ele>
        <time>2017-06-14T14:17:12Z</time>
      </trkpt>
      <trkpt lat="44.51173" lon="5.52731">
        <ele>1097</ele>
        <time>2017-06-14T14:17:18Z</time>
      </trkpt>
      <trkpt lat="44.5117" lon="5.52756">
        <ele>1094.6</ele>
        <time>2017-06-14T14:17:25Z</time>
      </trkpt>
      <trkpt lat="44.51167" lon="5.52772">
        <ele>1093.64</ele>
        <time>2017-06-14T14:17:38Z</time>
      </trkpt>
      <trkpt lat="44.51169" lon="5.5279">
        <ele>1092.68</ele>
        <time>2017-06-14T14:17:52Z</time>
      </trkpt>
      <trkpt lat="44.51171" lon="5.52791">
        <ele>1092.2</ele>
        <time>2017-06-14T14:17:54Z</time>
      </trkpt>
      <trkpt lat="44.51175" lon="5.52803">
        <ele>1090.27</ele>
        <time>2017-06-14T14:18:06Z</time>
      </trkpt>
      <trkpt lat="44.51176" lon="5.52808">
        <ele>1090.27</ele>
        <time>2017-06-14T14:18:10Z</time>
      </trkpt>
      <trkpt lat="44.51172" lon="5.52818">
        <ele>1090.27</ele>
        <time>2017-06-14T14:18:18Z</time>
      </trkpt>
      <trkpt lat="44.51175" lon="5.52823">
        <ele>1089.79</ele>
        <time>2017-06-14T14:18:21Z</time>
      </trkpt>
      <trkpt lat="44.5118" lon="5.52827">
        <ele>1089.31</ele>
        <time>2017-06-14T14:18:24Z</time>
      </trkpt>
      <trkpt lat="44.51186" lon="5.52845">
        <ele>1088.83</ele>
        <time>2017-06-14T14:18:37Z</time>
      </trkpt>
      <trkpt lat="44.51192" lon="5.52861">
        <ele>1087.39</ele>
        <time>2017-06-14T14:18:51Z</time>
      </trkpt>
      <trkpt lat="44.51192" lon="5.52869">
        <ele>1087.87</ele>
        <time>2017-06-14T14:19:06Z</time>
      </trkpt>
      <trkpt lat="44.51195" lon="5.52872">
        <ele>1088.83</ele>
        <time>2017-06-14T14:19:15Z</time>
      </trkpt>
      <trkpt lat="44.51204" lon="5.52897">
        <ele>1089.79</ele>
        <time>2017-06-14T14:19:31Z</time>
      </trkpt>
      <trkpt lat="44.51214" lon="5.52911">
        <ele>1088.83</ele>
        <time>2017-06-14T14:19:44Z</time>
      </trkpt>
      <trkpt lat="44.51227" lon="5.52923">
        <ele>1087.39</ele>
        <time>2017-06-14T14:19:58Z</time>
      </trkpt>
      <trkpt lat="44.51237" lon="5.52939">
        <ele>1085.95</ele>
        <time>2017-06-14T14:20:12Z</time>
      </trkpt>
      <trkpt lat="44.51246" lon="5.52948">
        <ele>1084.02</ele>
        <time>2017-06-14T14:20:24Z</time>
      </trkpt>
      <trkpt lat="44.51251" lon="5.5296">
        <ele>1084.02</ele>
        <time>2017-06-14T14:20:36Z</time>
      </trkpt>
      <trkpt lat="44.51259" lon="5.52972">
        <ele>1081.62</ele>
        <time>2017-06-14T14:20:50Z</time>
      </trkpt>
      <trkpt lat="44.5126" lon="5.52975">
        <ele>1080.66</ele>
        <time>2017-06-14T14:20:53Z</time>
      </trkpt>
      <trkpt lat="44.51267" lon="5.5299">
        <ele>1078.26</ele>
        <time>2017-06-14T14:21:02Z</time>
      </trkpt>
      <trkpt lat="44.51275" lon="5.53004">
        <ele>1077.29</ele>
        <time>2017-06-14T14:21:15Z</time>
      </trkpt>
      <trkpt lat="44.51281" lon="5.53017">
        <ele>1076.81</ele>
        <time>2017-06-14T14:21:24Z</time>
      </trkpt>
      <trkpt lat="44.51288" lon="5.5303">
        <ele>1076.33</ele>
        <time>2017-06-14T14:21:33Z</time>
      </trkpt>
      <trkpt lat="44.51296" lon="5.53035">
        <ele>1076.81</ele>
        <time>2017-06-14T14:21:39Z</time>
      </trkpt>
      <trkpt lat="44.51298" lon="5.53034">
        <ele>1076.81</ele>
        <time>2017-06-14T14:21:41Z</time>
      </trkpt>
      <trkpt lat="44.51318" lon="5.53046">
        <ele>1079.22</ele>
        <time>2017-06-14T14:21:57Z</time>
      </trkpt>
      <trkpt lat="44.51338" lon="5.53049">
        <ele>1078.26</ele>
        <time>2017-06-14T14:22:15Z</time>
      </trkpt>
      <trkpt lat="44.51353" lon="5.53047">
        <ele>1078.74</ele>
        <time>2017-06-14T14:22:28Z</time>
      </trkpt>
      <trkpt lat="44.5136" lon="5.53049">
        <ele>1077.78</ele>
        <time>2017-06-14T14:22:34Z</time>
      </trkpt>
      <trkpt lat="44.51379" lon="5.5305">
        <ele>1076.81</ele>
        <time>2017-06-14T14:22:48Z</time>
      </trkpt>
      <trkpt lat="44.51393" lon="5.53048">
        <ele>1073.93</ele>
        <time>2017-06-14T14:23:05Z</time>
      </trkpt>
      <trkpt lat="44.51396" lon="5.53048">
        <ele>1072.49</ele>
        <time>2017-06-14T14:23:08Z</time>
      </trkpt>
      <trkpt lat="44.51403" lon="5.53053">
        <ele>1071.05</ele>
        <time>2017-06-14T14:23:18Z</time>
      </trkpt>
      <trkpt lat="44.51411" lon="5.53061">
        <ele>1073.93</ele>
        <time>2017-06-14T14:23:29Z</time>
      </trkpt>
      <trkpt lat="44.51421" lon="5.53067">
        <ele>1074.41</ele>
        <time>2017-06-14T14:23:42Z</time>
      </trkpt>
      <trkpt lat="44.51431" lon="5.53072">
        <ele>1071.53</ele>
        <time>2017-06-14T14:23:55Z</time>
      </trkpt>
      <trkpt lat="44.51445" lon="5.53078">
        <ele>1068.16</ele>
        <time>2017-06-14T14:24:08Z</time>
      </trkpt>
      <trkpt lat="44.51455" lon="5.53081">
        <ele>1065.76</ele>
        <time>2017-06-14T14:24:20Z</time>
      </trkpt>
      <trkpt lat="44.51455" lon="5.53082">
        <ele>1065.28</ele>
        <time>2017-06-14T14:24:21Z</time>
      </trkpt>
      <trkpt lat="44.51468" lon="5.53091">
        <ele>1066.24</ele>
        <time>2017-06-14T14:24:34Z</time>
      </trkpt>
      <trkpt lat="44.51488" lon="5.53103">
        <ele>1068.16</ele>
        <time>2017-06-14T14:24:48Z</time>
      </trkpt>
      <trkpt lat="44.515" lon="5.53106">
        <ele>1065.28</ele>
        <time>2017-06-14T14:25:03Z</time>
      </trkpt>
      <trkpt lat="44.51511" lon="5.53102">
        <ele>1064.8</ele>
        <time>2017-06-14T14:25:15Z</time>
      </trkpt>
      <trkpt lat="44.5151" lon="5.53091">
        <ele>1065.28</ele>
        <time>2017-06-14T14:25:27Z</time>
      </trkpt>
      <trkpt lat="44.51509" lon="5.53095">
        <ele>1064.8</ele>
        <time>2017-06-14T14:25:40Z</time>
      </trkpt>
      <trkpt lat="44.51508" lon="5.53101">
        <ele>1064.8</ele>
        <time>2017-06-14T14:25:56Z</time>
      </trkpt>
      <trkpt lat="44.51506" lon="5.53096">
        <ele>1064.8</ele>
        <time>2017-06-14T14:26:16Z</time>
      </trkpt>
      <trkpt lat="44.51507" lon="5.53094">
        <ele>1064.32</ele>
        <time>2017-06-14T14:26:41Z</time>
      </trkpt>
      <trkpt lat="44.51507" lon="5.53091">
        <ele>1064.32</ele>
        <time>2017-06-14T14:27:10Z</time>
      </trkpt>
      <trkpt lat="44.51508" lon="5.5309">
        <ele>1064.32</ele>
        <time>2017-06-14T14:27:26Z</time>
      </trkpt>
      <trkpt lat="44.51505" lon="5.53092">
        <ele>1063.36</ele>
        <time>2017-06-14T14:27:40Z</time>
      </trkpt>
      <trkpt lat="44.51503" lon="5.531">
        <ele>1063.36</ele>
        <time>2017-06-14T14:27:53Z</time>
      </trkpt>
      <trkpt lat="44.51503" lon="5.53118">
        <ele>1059.99</ele>
        <time>2017-06-14T14:28:05Z</time>
      </trkpt>
      <trkpt lat="44.51501" lon="5.53135">
        <ele>1057.59</ele>
        <time>2017-06-14T14:28:18Z</time>
      </trkpt>
      <trkpt lat="44.51501" lon="5.53151">
        <ele>1054.22</ele>
        <time>2017-06-14T14:28:32Z</time>
      </trkpt>
      <trkpt lat="44.51495" lon="5.53173">
        <ele>1052.3</ele>
        <time>2017-06-14T14:28:48Z</time>
      </trkpt>
      <trkpt lat="44.51492" lon="5.53189">
        <ele>1048.94</ele>
        <time>2017-06-14T14:29:00Z</time>
      </trkpt>
      <trkpt lat="44.51489" lon="5.53206">
        <ele>1045.57</ele>
        <time>2017-06-14T14:29:12Z</time>
      </trkpt>
      <trkpt lat="44.51486" lon="5.53227">
        <ele>1042.21</ele>
        <time>2017-06-14T14:29:27Z</time>
      </trkpt>
      <trkpt lat="44.51485" lon="5.53238">
        <ele>1039.32</ele>
        <time>2017-06-14T14:29:37Z</time>
      </trkpt>
      <trkpt lat="44.51483" lon="5.53253">
        <ele>1035.96</ele>
        <time>2017-06-14T14:29:48Z</time>
      </trkpt>
      <trkpt lat="44.51481" lon="5.53272">
        <ele>1032.59</ele>
        <time>2017-06-14T14:30:03Z</time>
      </trkpt>
      <trkpt lat="44.51481" lon="5.53286">
        <ele>1029.71</ele>
        <time>2017-06-14T14:30:16Z</time>
      </trkpt>
      <trkpt lat="44.51478" lon="5.5331">
        <ele>1026.34</ele>
        <time>2017-06-14T14:30:31Z</time>
      </trkpt>
      <trkpt lat="44.51473" lon="5.53332">
        <ele>1023.46</ele>
        <time>2017-06-14T14:30:46Z</time>
      </trkpt>
      <trkpt lat="44.51473" lon="5.53352">
        <ele>1020.1</ele>
        <time>2017-06-14T14:30:58Z</time>
      </trkpt>
      <trkpt lat="44.51474" lon="5.53368">
        <ele>1017.21</ele>
        <time>2017-06-14T14:31:10Z</time>
      </trkpt>
      <trkpt lat="44.51472" lon="5.5339">
        <ele>1015.29</ele>
        <time>2017-06-14T14:31:27Z</time>
      </trkpt>
      <trkpt lat="44.51477" lon="5.53413">
        <ele>1012.89</ele>
        <time>2017-06-14T14:31:40Z</time>
      </trkpt>
      <trkpt lat="44.51485" lon="5.53437">
        <ele>1010</ele>
        <time>2017-06-14T14:31:56Z</time>
      </trkpt>
      <trkpt lat="44.51488" lon="5.53451">
        <ele>1007.12</ele>
        <time>2017-06-14T14:32:07Z</time>
      </trkpt>
      <trkpt lat="44.51493" lon="5.53462">
        <ele>1003.75</ele>
        <time>2017-06-14T14:32:19Z</time>
      </trkpt>
      <trkpt lat="44.51491" lon="5.53485">
        <ele>1000.87</ele>
        <time>2017-06-14T14:32:34Z</time>
      </trkpt>
      <trkpt lat="44.51502" lon="5.53498">
        <ele>997.02</ele>
        <time>2017-06-14T14:32:47Z</time>
      </trkpt>
      <trkpt lat="44.51505" lon="5.53498">
        <ele>994.14</ele>
        <time>2017-06-14T14:32:58Z</time>
      </trkpt>
      <trkpt lat="44.51506" lon="5.53503">
        <ele>990.78</ele>
        <time>2017-06-14T14:33:10Z</time>
      </trkpt>
      <trkpt lat="44.51514" lon="5.53508">
        <ele>987.89</ele>
        <time>2017-06-14T14:33:20Z</time>
      </trkpt>
      <trkpt lat="44.51524" lon="5.53503">
        <ele>984.53</ele>
        <time>2017-06-14T14:33:29Z</time>
      </trkpt>
      <trkpt lat="44.51525" lon="5.53497">
        <ele>982.6</ele>
        <time>2017-06-14T14:33:35Z</time>
      </trkpt>
      <trkpt lat="44.51526" lon="5.53496">
        <ele>981.16</ele>
        <time>2017-06-14T14:33:38Z</time>
      </trkpt>
      <trkpt lat="44.51529" lon="5.53497">
        <ele>979.24</ele>
        <time>2017-06-14T14:33:42Z</time>
      </trkpt>
      <trkpt lat="44.5154" lon="5.53509">
        <ele>975.88</ele>
        <time>2017-06-14T14:33:55Z</time>
      </trkpt>
      <trkpt lat="44.51541" lon="5.5351">
        <ele>976.36</ele>
        <time>2017-06-14T14:33:56Z</time>
      </trkpt>
      <trkpt lat="44.51542" lon="5.53518">
        <ele>975.88</ele>
        <time>2017-06-14T14:34:08Z</time>
      </trkpt>
      <trkpt lat="44.51545" lon="5.53521">
        <ele>975.88</ele>
        <time>2017-06-14T14:34:18Z</time>
      </trkpt>
      <trkpt lat="44.51545" lon="5.53525">
        <ele>975.39</ele>
        <time>2017-06-14T14:34:21Z</time>
      </trkpt>
      <trkpt lat="44.51547" lon="5.53533">
        <ele>975.39</ele>
        <time>2017-06-14T14:34:27Z</time>
      </trkpt>
      <trkpt lat="44.51548" lon="5.5354">
        <ele>975.39</ele>
        <time>2017-06-14T14:34:31Z</time>
      </trkpt>
      <trkpt lat="44.51548" lon="5.5355">
        <ele>975.39</ele>
        <time>2017-06-14T14:34:38Z</time>
      </trkpt>
      <trkpt lat="44.51548" lon="5.53556">
        <ele>975.88</ele>
        <time>2017-06-14T14:34:42Z</time>
      </trkpt>
      <trkpt lat="44.51548" lon="5.5356">
        <ele>976.36</ele>
        <time>2017-06-14T14:34:46Z</time>
      </trkpt>
      <trkpt lat="44.5155" lon="5.53568">
        <ele>976.84</ele>
        <time>2017-06-14T14:34:52Z</time>
      </trkpt>
      <trkpt lat="44.5155" lon="5.53591">
        <ele>979.72</ele>
        <time>2017-06-14T14:35:08Z</time>
      </trkpt>
      <trkpt lat="44.51549" lon="5.53604">
        <ele>980.68</ele>
        <time>2017-06-14T14:35:17Z</time>
      </trkpt>
      <trkpt lat="44.51547" lon="5.53628">
        <ele>982.12</ele>
        <time>2017-06-14T14:35:33Z</time>
      </trkpt>
      <trkpt lat="44.51558" lon="5.5365">
        <ele>983.57</ele>
        <time>2017-06-14T14:35:51Z</time>
      </trkpt>
      <trkpt lat="44.51572" lon="5.53672">
        <ele>986.45</ele>
        <time>2017-06-14T14:36:05Z</time>
      </trkpt>
      <trkpt lat="44.5158" lon="5.53705">
        <ele>986.93</ele>
        <time>2017-06-14T14:36:17Z</time>
      </trkpt>
      <trkpt lat="44.5159" lon="5.53742">
        <ele>987.41</ele>
        <time>2017-06-14T14:36:31Z</time>
      </trkpt>
      <trkpt lat="44.51603" lon="5.53759">
        <ele>985.49</ele>
        <time>2017-06-14T14:36:45Z</time>
      </trkpt>
      <trkpt lat="44.51608" lon="5.53775">
        <ele>982.6</ele>
        <time>2017-06-14T14:37:00Z</time>
      </trkpt>
      <trkpt lat="44.51612" lon="5.53789">
        <ele>980.2</ele>
        <time>2017-06-14T14:37:14Z</time>
      </trkpt>
      <trkpt lat="44.51615" lon="5.53794">
        <ele>979.72</ele>
        <time>2017-06-14T14:37:18Z</time>
      </trkpt>
      <trkpt lat="44.51625" lon="5.53816">
        <ele>976.36</ele>
        <time>2017-06-14T14:37:33Z</time>
      </trkpt>
      <trkpt lat="44.51624" lon="5.5383">
        <ele>975.39</ele>
        <time>2017-06-14T14:37:36Z</time>
      </trkpt>
      <trkpt lat="44.51627" lon="5.53842">
        <ele>975.39</ele>
        <time>2017-06-14T14:37:40Z</time>
      </trkpt>
      <trkpt lat="44.51631" lon="5.53855">
        <ele>974.91</ele>
        <time>2017-06-14T14:37:47Z</time>
      </trkpt>
      <trkpt lat="44.5164" lon="5.53876">
        <ele>971.55</ele>
        <time>2017-06-14T14:38:03Z</time>
      </trkpt>
      <trkpt lat="44.51646" lon="5.53889">
        <ele>969.63</ele>
        <time>2017-06-14T14:38:14Z</time>
      </trkpt>
      <trkpt lat="44.51652" lon="5.53906">
        <ele>965.78</ele>
        <time>2017-06-14T14:38:29Z</time>
      </trkpt>
      <trkpt lat="44.51661" lon="5.53924">
        <ele>962.9</ele>
        <time>2017-06-14T14:38:45Z</time>
      </trkpt>
      <trkpt lat="44.51664" lon="5.53934">
        <ele>960.98</ele>
        <time>2017-06-14T14:38:55Z</time>
      </trkpt>
      <trkpt lat="44.51673" lon="5.53953">
        <ele>958.57</ele>
        <time>2017-06-14T14:39:10Z</time>
      </trkpt>
      <trkpt lat="44.51687" lon="5.53971">
        <ele>956.17</ele>
        <time>2017-06-14T14:39:24Z</time>
      </trkpt>
      <trkpt lat="44.51684" lon="5.53994">
        <ele>955.69</ele>
        <time>2017-06-14T14:39:29Z</time>
      </trkpt>
      <trkpt lat="44.51672" lon="5.54028">
        <ele>953.28</ele>
        <time>2017-06-14T14:39:46Z</time>
      </trkpt>
      <trkpt lat="44.5167" lon="5.54046">
        <ele>952.32</ele>
        <time>2017-06-14T14:39:56Z</time>
      </trkpt>
      <trkpt lat="44.5167" lon="5.54049">
        <ele>952.32</ele>
        <time>2017-06-14T14:39:58Z</time>
      </trkpt>
      <trkpt lat="44.51673" lon="5.54074">
        <ele>950.88</ele>
        <time>2017-06-14T14:40:13Z</time>
      </trkpt>
      <trkpt lat="44.51696" lon="5.54084">
        <ele>951.84</ele>
        <time>2017-06-14T14:40:25Z</time>
      </trkpt>
      <trkpt lat="44.51727" lon="5.54094">
        <ele>949.44</ele>
        <time>2017-06-14T14:40:38Z</time>
      </trkpt>
      <trkpt lat="44.51728" lon="5.54097">
        <ele>948.96</ele>
        <time>2017-06-14T14:40:40Z</time>
      </trkpt>
      <trkpt lat="44.51733" lon="5.54127">
        <ele>946.07</ele>
        <time>2017-06-14T14:40:55Z</time>
      </trkpt>
      <trkpt lat="44.51746" lon="5.54137">
        <ele>942.71</ele>
        <time>2017-06-14T14:41:10Z</time>
      </trkpt>
      <trkpt lat="44.51752" lon="5.54143">
        <ele>941.75</ele>
        <time>2017-06-14T14:41:17Z</time>
      </trkpt>
      <trkpt lat="44.51753" lon="5.54146">
        <ele>941.27</ele>
        <time>2017-06-14T14:41:19Z</time>
      </trkpt>
      <trkpt lat="44.51761" lon="5.5416">
        <ele>939.35</ele>
        <time>2017-06-14T14:41:34Z</time>
      </trkpt>
      <trkpt lat="44.51758" lon="5.54169">
        <ele>938.86</ele>
        <time>2017-06-14T14:41:45Z</time>
      </trkpt>
      <trkpt lat="44.51756" lon="5.54184">
        <ele>938.38</ele>
        <time>2017-06-14T14:41:59Z</time>
      </trkpt>
      <trkpt lat="44.51755" lon="5.54185">
        <ele>937.9</ele>
        <time>2017-06-14T14:42:01Z</time>
      </trkpt>
      <trkpt lat="44.51754" lon="5.54187">
        <ele>936.94</ele>
        <time>2017-06-14T14:42:06Z</time>
      </trkpt>
      <trkpt lat="44.51753" lon="5.5421">
        <ele>934.54</ele>
        <time>2017-06-14T14:42:21Z</time>
      </trkpt>
      <trkpt lat="44.51751" lon="5.5422">
        <ele>934.06</ele>
        <time>2017-06-14T14:42:26Z</time>
      </trkpt>
      <trkpt lat="44.51745" lon="5.54248">
        <ele>932.14</ele>
        <time>2017-06-14T14:42:42Z</time>
      </trkpt>
      <trkpt lat="44.51745" lon="5.5425">
        <ele>932.14</ele>
        <time>2017-06-14T14:42:43Z</time>
      </trkpt>
      <trkpt lat="44.51738" lon="5.54271">
        <ele>931.17</ele>
        <time>2017-06-14T14:42:55Z</time>
      </trkpt>
      <trkpt lat="44.51733" lon="5.54294">
        <ele>930.69</ele>
        <time>2017-06-14T14:43:08Z</time>
      </trkpt>
      <trkpt lat="44.51725" lon="5.54317">
        <ele>929.73</ele>
        <time>2017-06-14T14:43:23Z</time>
      </trkpt>
      <trkpt lat="44.51724" lon="5.5432">
        <ele>929.73</ele>
        <time>2017-06-14T14:43:25Z</time>
      </trkpt>
      <trkpt lat="44.51718" lon="5.54332">
        <ele>928.77</ele>
        <time>2017-06-14T14:43:33Z</time>
      </trkpt>
      <trkpt lat="44.51705" lon="5.54353">
        <ele>927.81</ele>
        <time>2017-06-14T14:43:47Z</time>
      </trkpt>
      <trkpt lat="44.51688" lon="5.54371">
        <ele>927.33</ele>
        <time>2017-06-14T14:44:02Z</time>
      </trkpt>
      <trkpt lat="44.5168" lon="5.54383">
        <ele>926.37</ele>
        <time>2017-06-14T14:44:11Z</time>
      </trkpt>
      <trkpt lat="44.51681" lon="5.54394">
        <ele>926.37</ele>
        <time>2017-06-14T14:44:13Z</time>
      </trkpt>
      <trkpt lat="44.51678" lon="5.54389">
        <ele>925.89</ele>
        <time>2017-06-14T14:44:29Z</time>
      </trkpt>
      <trkpt lat="44.51676" lon="5.54388">
        <ele>925.89</ele>
        <time>2017-06-14T14:44:37Z</time>
      </trkpt>
      <trkpt lat="44.51676" lon="5.5441">
        <ele>925.41</ele>
        <time>2017-06-14T14:44:53Z</time>
      </trkpt>
      <trkpt lat="44.51666" lon="5.54437">
        <ele>923.96</ele>
        <time>2017-06-14T14:45:11Z</time>
      </trkpt>
      <trkpt lat="44.51658" lon="5.54457">
        <ele>923</ele>
        <time>2017-06-14T14:45:26Z</time>
      </trkpt>
      <trkpt lat="44.51657" lon="5.54458">
        <ele>923</ele>
        <time>2017-06-14T14:45:27Z</time>
      </trkpt>
      <trkpt lat="44.51645" lon="5.54483">
        <ele>922.04</ele>
        <time>2017-06-14T14:45:43Z</time>
      </trkpt>
      <trkpt lat="44.5164" lon="5.54497">
        <ele>921.56</ele>
        <time>2017-06-14T14:45:53Z</time>
      </trkpt>
      <trkpt lat="44.51631" lon="5.54533">
        <ele>921.08</ele>
        <time>2017-06-14T14:46:14Z</time>
      </trkpt>
      <trkpt lat="44.51618" lon="5.5456">
        <ele>920.12</ele>
        <time>2017-06-14T14:46:29Z</time>
      </trkpt>
      <trkpt lat="44.51609" lon="5.54576">
        <ele>919.16</ele>
        <time>2017-06-14T14:46:39Z</time>
      </trkpt>
      <trkpt lat="44.51604" lon="5.54587">
        <ele>918.68</ele>
        <time>2017-06-14T14:46:46Z</time>
      </trkpt>
      <trkpt lat="44.51594" lon="5.54603">
        <ele>918.2</ele>
        <time>2017-06-14T14:46:56Z</time>
      </trkpt>
      <trkpt lat="44.51579" lon="5.54627">
        <ele>917.24</ele>
        <time>2017-06-14T14:47:11Z</time>
      </trkpt>
      <trkpt lat="44.51562" lon="5.54651">
        <ele>915.31</ele>
        <time>2017-06-14T14:47:28Z</time>
      </trkpt>
      <trkpt lat="44.51561" lon="5.54659">
        <ele>915.31</ele>
        <time>2017-06-14T14:47:32Z</time>
      </trkpt>
      <trkpt lat="44.51559" lon="5.54694">
        <ele>914.35</ele>
        <time>2017-06-14T14:47:47Z</time>
      </trkpt>
      <trkpt lat="44.51556" lon="5.54714">
        <ele>913.39</ele>
        <time>2017-06-14T14:47:59Z</time>
      </trkpt>
      <trkpt lat="44.51553" lon="5.54748">
        <ele>912.43</ele>
        <time>2017-06-14T14:48:15Z</time>
      </trkpt>
      <trkpt lat="44.51551" lon="5.54775">
        <ele>911.95</ele>
        <time>2017-06-14T14:48:28Z</time>
      </trkpt>
      <trkpt lat="44.51545" lon="5.54806">
        <ele>910.99</ele>
        <time>2017-06-14T14:48:42Z</time>
      </trkpt>
      <trkpt lat="44.51545" lon="5.54808">
        <ele>910.99</ele>
        <time>2017-06-14T14:48:43Z</time>
      </trkpt>
      <trkpt lat="44.51534" lon="5.54843">
        <ele>910.03</ele>
        <time>2017-06-14T14:48:59Z</time>
      </trkpt>
      <trkpt lat="44.51523" lon="5.54875">
        <ele>908.58</ele>
        <time>2017-06-14T14:49:15Z</time>
      </trkpt>
      <trkpt lat="44.51507" lon="5.54915">
        <ele>907.14</ele>
        <time>2017-06-14T14:49:35Z</time>
      </trkpt>
      <trkpt lat="44.51503" lon="5.54927">
        <ele>907.14</ele>
        <time>2017-06-14T14:49:41Z</time>
      </trkpt>
      <trkpt lat="44.51499" lon="5.54936">
        <ele>906.66</ele>
        <time>2017-06-14T14:49:46Z</time>
      </trkpt>
      <trkpt lat="44.51482" lon="5.54966">
        <ele>907.14</ele>
        <time>2017-06-14T14:50:05Z</time>
      </trkpt>
      <trkpt lat="44.51465" lon="5.55">
        <ele>908.1</ele>
        <time>2017-06-14T14:50:25Z</time>
      </trkpt>
      <trkpt lat="44.51448" lon="5.55025">
        <ele>909.06</ele>
        <time>2017-06-14T14:50:43Z</time>
      </trkpt>
      <trkpt lat="44.5143" lon="5.55046">
        <ele>910.03</ele>
        <time>2017-06-14T14:51:00Z</time>
      </trkpt>
      <trkpt lat="44.51408" lon="5.55061">
        <ele>910.99</ele>
        <time>2017-06-14T14:51:18Z</time>
      </trkpt>
      <trkpt lat="44.51389" lon="5.5509">
        <ele>910.99</ele>
        <time>2017-06-14T14:51:37Z</time>
      </trkpt>
      <trkpt lat="44.51387" lon="5.55096">
        <ele>911.47</ele>
        <time>2017-06-14T14:51:40Z</time>
      </trkpt>
      <trkpt lat="44.51374" lon="5.55127">
        <ele>911.95</ele>
        <time>2017-06-14T14:51:59Z</time>
      </trkpt>
      <trkpt lat="44.51366" lon="5.55167">
        <ele>911.95</ele>
        <time>2017-06-14T14:52:14Z</time>
      </trkpt>
      <trkpt lat="44.5135" lon="5.55196">
        <ele>911.95</ele>
        <time>2017-06-14T14:52:34Z</time>
      </trkpt>
      <trkpt lat="44.51336" lon="5.55232">
        <ele>911.47</ele>
        <time>2017-06-14T14:52:54Z</time>
      </trkpt>
      <trkpt lat="44.51327" lon="5.55271">
        <ele>910.99</ele>
        <time>2017-06-14T14:53:13Z</time>
      </trkpt>
      <trkpt lat="44.51324" lon="5.55317">
        <ele>910.51</ele>
        <time>2017-06-14T14:53:33Z</time>
      </trkpt>
      <trkpt lat="44.51325" lon="5.5533">
        <ele>910.51</ele>
        <time>2017-06-14T14:53:39Z</time>
      </trkpt>
      <trkpt lat="44.51314" lon="5.5535">
        <ele>910.03</ele>
        <time>2017-06-14T14:53:55Z</time>
      </trkpt>
      <trkpt lat="44.51292" lon="5.55359">
        <ele>910.03</ele>
        <time>2017-06-14T14:54:11Z</time>
      </trkpt>
      <trkpt lat="44.51276" lon="5.5538">
        <ele>909.54</ele>
        <time>2017-06-14T14:54:26Z</time>
      </trkpt>
      <trkpt lat="44.51258" lon="5.55403">
        <ele>909.06</ele>
        <time>2017-06-14T14:54:43Z</time>
      </trkpt>
      <trkpt lat="44.51245" lon="5.55439">
        <ele>908.1</ele>
        <time>2017-06-14T14:55:03Z</time>
      </trkpt>
      <trkpt lat="44.51236" lon="5.55472">
        <ele>907.14</ele>
        <time>2017-06-14T14:55:21Z</time>
      </trkpt>
      <trkpt lat="44.51222" lon="5.55506">
        <ele>906.66</ele>
        <time>2017-06-14T14:55:40Z</time>
      </trkpt>
      <trkpt lat="44.51211" lon="5.5554">
        <ele>906.66</ele>
        <time>2017-06-14T14:55:58Z</time>
      </trkpt>
      <trkpt lat="44.51198" lon="5.55572">
        <ele>906.66</ele>
        <time>2017-06-14T14:56:16Z</time>
      </trkpt>
      <trkpt lat="44.51186" lon="5.55619">
        <ele>906.66</ele>
        <time>2017-06-14T14:56:39Z</time>
      </trkpt>
      <trkpt lat="44.51197" lon="5.55679">
        <ele>906.66</ele>
        <time>2017-06-14T14:57:00Z</time>
      </trkpt>
      <trkpt lat="44.51186" lon="5.55698">
        <ele>906.18</ele>
        <time>2017-06-14T14:57:16Z</time>
      </trkpt>
      <trkpt lat="44.51166" lon="5.55716">
        <ele>905.22</ele>
        <time>2017-06-14T14:57:33Z</time>
      </trkpt>
      <trkpt lat="44.51137" lon="5.55721">
        <ele>904.74</ele>
        <time>2017-06-14T14:57:54Z</time>
      </trkpt>
      <trkpt lat="44.51115" lon="5.55721">
        <ele>904.74</ele>
        <time>2017-06-14T14:58:09Z</time>
      </trkpt>
      <trkpt lat="44.51089" lon="5.55741">
        <ele>903.78</ele>
        <time>2017-06-14T14:58:28Z</time>
      </trkpt>
      <trkpt lat="44.51071" lon="5.55769">
        <ele>902.82</ele>
        <time>2017-06-14T14:58:47Z</time>
      </trkpt>
      <trkpt lat="44.51062" lon="5.55802">
        <ele>901.37</ele>
        <time>2017-06-14T14:59:05Z</time>
      </trkpt>
      <trkpt lat="44.51053" lon="5.55841">
        <ele>899.45</ele>
        <time>2017-06-14T14:59:26Z</time>
      </trkpt>
      <trkpt lat="44.51051" lon="5.55879">
        <ele>898.01</ele>
        <time>2017-06-14T14:59:43Z</time>
      </trkpt>
      <trkpt lat="44.51034" lon="5.55905">
        <ele>896.57</ele>
        <time>2017-06-14T15:00:00Z</time>
      </trkpt>
      <trkpt lat="44.51008" lon="5.55916">
        <ele>895.61</ele>
        <time>2017-06-14T15:00:18Z</time>
      </trkpt>
      <trkpt lat="44.50996" lon="5.55947">
        <ele>894.16</ele>
        <time>2017-06-14T15:00:36Z</time>
      </trkpt>
      <trkpt lat="44.5098" lon="5.55977">
        <ele>892.72</ele>
        <time>2017-06-14T15:00:54Z</time>
      </trkpt>
      <trkpt lat="44.5096" lon="5.56002">
        <ele>891.76</ele>
        <time>2017-06-14T15:01:12Z</time>
      </trkpt>
      <trkpt lat="44.50939" lon="5.5603">
        <ele>890.32</ele>
        <time>2017-06-14T15:01:32Z</time>
      </trkpt>
      <trkpt lat="44.50917" lon="5.56057">
        <ele>889.84</ele>
        <time>2017-06-14T15:01:54Z</time>
      </trkpt>
      <trkpt lat="44.50904" lon="5.5608">
        <ele>888.4</ele>
        <time>2017-06-14T15:02:10Z</time>
      </trkpt>
      <trkpt lat="44.50885" lon="5.56102">
        <ele>887.91</ele>
        <time>2017-06-14T15:02:28Z</time>
      </trkpt>
      <trkpt lat="44.50869" lon="5.56123">
        <ele>887.43</ele>
        <time>2017-06-14T15:02:44Z</time>
      </trkpt>
      <trkpt lat="44.50848" lon="5.56154">
        <ele>886.47</ele>
        <time>2017-06-14T15:03:05Z</time>
      </trkpt>
      <trkpt lat="44.50828" lon="5.56169">
        <ele>885.99</ele>
        <time>2017-06-14T15:03:22Z</time>
      </trkpt>
      <trkpt lat="44.50806" lon="5.56191">
        <ele>885.51</ele>
        <time>2017-06-14T15:03:40Z</time>
      </trkpt>
      <trkpt lat="44.50779" lon="5.5621">
        <ele>884.55</ele>
        <time>2017-06-14T15:04:01Z</time>
      </trkpt>
      <trkpt lat="44.50758" lon="5.56242">
        <ele>883.11</ele>
        <time>2017-06-14T15:04:23Z</time>
      </trkpt>
      <trkpt lat="44.50761" lon="5.56299">
        <ele>882.15</ele>
        <time>2017-06-14T15:04:42Z</time>
      </trkpt>
      <trkpt lat="44.50774" lon="5.56331">
        <ele>881.19</ele>
        <time>2017-06-14T15:05:00Z</time>
      </trkpt>
      <trkpt lat="44.50767" lon="5.56358">
        <ele>879.74</ele>
        <time>2017-06-14T15:05:17Z</time>
      </trkpt>
      <trkpt lat="44.5074" lon="5.56376">
        <ele>878.3</ele>
        <time>2017-06-14T15:05:39Z</time>
      </trkpt>
      <trkpt lat="44.50717" lon="5.56384">
        <ele>877.34</ele>
        <time>2017-06-14T15:05:55Z</time>
      </trkpt>
      <trkpt lat="44.50692" lon="5.56402">
        <ele>876.38</ele>
        <time>2017-06-14T15:06:13Z</time>
      </trkpt>
      <trkpt lat="44.50667" lon="5.56422">
        <ele>875.42</ele>
        <time>2017-06-14T15:06:32Z</time>
      </trkpt>
      <trkpt lat="44.50641" lon="5.56434">
        <ele>874.46</ele>
        <time>2017-06-14T15:06:51Z</time>
      </trkpt>
      <trkpt lat="44.5062" lon="5.56443">
        <ele>873.5</ele>
        <time>2017-06-14T15:07:06Z</time>
      </trkpt>
      <trkpt lat="44.50603" lon="5.56464">
        <ele>871.57</ele>
        <time>2017-06-14T15:07:22Z</time>
      </trkpt>
      <trkpt lat="44.50596" lon="5.56499">
        <ele>869.65</ele>
        <time>2017-06-14T15:07:40Z</time>
      </trkpt>
      <trkpt lat="44.50596" lon="5.56507">
        <ele>868.69</ele>
        <time>2017-06-14T15:07:45Z</time>
      </trkpt>
      <trkpt lat="44.50595" lon="5.5653">
        <ele>869.17</ele>
        <time>2017-06-14T15:07:59Z</time>
      </trkpt>
      <trkpt lat="44.50598" lon="5.56542">
        <ele>868.69</ele>
        <time>2017-06-14T15:08:08Z</time>
      </trkpt>
      <trkpt lat="44.50599" lon="5.5655">
        <ele>867.25</ele>
        <time>2017-06-14T15:08:12Z</time>
      </trkpt>
      <trkpt lat="44.506" lon="5.56593">
        <ele>867.73</ele>
        <time>2017-06-14T15:08:32Z</time>
      </trkpt>
      <trkpt lat="44.50601" lon="5.56628">
        <ele>868.69</ele>
        <time>2017-06-14T15:08:49Z</time>
      </trkpt>
      <trkpt lat="44.50605" lon="5.56657">
        <ele>869.65</ele>
        <time>2017-06-14T15:09:04Z</time>
      </trkpt>
      <trkpt lat="44.506" lon="5.56677">
        <ele>870.61</ele>
        <time>2017-06-14T15:09:18Z</time>
      </trkpt>
      <trkpt lat="44.50587" lon="5.56694">
        <ele>869.17</ele>
        <time>2017-06-14T15:09:32Z</time>
      </trkpt>
      <trkpt lat="44.50578" lon="5.56706">
        <ele>867.73</ele>
        <time>2017-06-14T15:09:41Z</time>
      </trkpt>
      <trkpt lat="44.50575" lon="5.56719">
        <ele>867.25</ele>
        <time>2017-06-14T15:09:48Z</time>
      </trkpt>
      <trkpt lat="44.50574" lon="5.56723">
        <ele>866.77</ele>
        <time>2017-06-14T15:09:51Z</time>
      </trkpt>
      <trkpt lat="44.50575" lon="5.56733">
        <ele>865.8</ele>
        <time>2017-06-14T15:09:55Z</time>
      </trkpt>
      <trkpt lat="44.50571" lon="5.56756">
        <ele>863.4</ele>
        <time>2017-06-14T15:10:08Z</time>
      </trkpt>
      <trkpt lat="44.50567" lon="5.56793">
        <ele>861</ele>
        <time>2017-06-14T15:10:24Z</time>
      </trkpt>
      <trkpt lat="44.50554" lon="5.56828">
        <ele>859.08</ele>
        <time>2017-06-14T15:10:42Z</time>
      </trkpt>
      <trkpt lat="44.50545" lon="5.56861">
        <ele>857.15</ele>
        <time>2017-06-14T15:10:59Z</time>
      </trkpt>
      <trkpt lat="44.50539" lon="5.56891">
        <ele>854.27</ele>
        <time>2017-06-14T15:11:15Z</time>
      </trkpt>
      <trkpt lat="44.50539" lon="5.56892">
        <ele>854.27</ele>
        <time>2017-06-14T15:11:16Z</time>
      </trkpt>
      <trkpt lat="44.50544" lon="5.56943">
        <ele>853.79</ele>
        <time>2017-06-14T15:11:31Z</time>
      </trkpt>
      <trkpt lat="44.50551" lon="5.56974">
        <ele>853.31</ele>
        <time>2017-06-14T15:11:47Z</time>
      </trkpt>
      <trkpt lat="44.50553" lon="5.57006">
        <ele>853.31</ele>
        <time>2017-06-14T15:12:04Z</time>
      </trkpt>
      <trkpt lat="44.50551" lon="5.57041">
        <ele>852.35</ele>
        <time>2017-06-14T15:12:23Z</time>
      </trkpt>
      <trkpt lat="44.50549" lon="5.57044">
        <ele>851.38</ele>
        <time>2017-06-14T15:12:26Z</time>
      </trkpt>
      <trkpt lat="44.50546" lon="5.57061">
        <ele>848.98</ele>
        <time>2017-06-14T15:12:37Z</time>
      </trkpt>
      <trkpt lat="44.50545" lon="5.57065">
        <ele>848.5</ele>
        <time>2017-06-14T15:12:40Z</time>
      </trkpt>
      <trkpt lat="44.50544" lon="5.57076">
        <ele>846.58</ele>
        <time>2017-06-14T15:12:46Z</time>
      </trkpt>
      <trkpt lat="44.50543" lon="5.57094">
        <ele>843.21</ele>
        <time>2017-06-14T15:12:57Z</time>
      </trkpt>
      <trkpt lat="44.5054" lon="5.57109">
        <ele>840.33</ele>
        <time>2017-06-14T15:13:07Z</time>
      </trkpt>
      <trkpt lat="44.50536" lon="5.57126">
        <ele>837.45</ele>
        <time>2017-06-14T15:13:18Z</time>
      </trkpt>
      <trkpt lat="44.50536" lon="5.57134">
        <ele>835.52</ele>
        <time>2017-06-14T15:13:23Z</time>
      </trkpt>
      <trkpt lat="44.50537" lon="5.57146">
        <ele>834.08</ele>
        <time>2017-06-14T15:13:30Z</time>
      </trkpt>
      <trkpt lat="44.50529" lon="5.57148">
        <ele>830.72</ele>
        <time>2017-06-14T15:13:43Z</time>
      </trkpt>
      <trkpt lat="44.50527" lon="5.57149">
        <ele>830.24</ele>
        <time>2017-06-14T15:13:44Z</time>
      </trkpt>
      <trkpt lat="44.5052" lon="5.57156">
        <ele>826.87</ele>
        <time>2017-06-14T15:13:56Z</time>
      </trkpt>
      <trkpt lat="44.50519" lon="5.57162">
        <ele>825.91</ele>
        <time>2017-06-14T15:14:00Z</time>
      </trkpt>
      <trkpt lat="44.50531" lon="5.57193">
        <ele>824.95</ele>
        <time>2017-06-14T15:14:19Z</time>
      </trkpt>
      <trkpt lat="44.5055" lon="5.57231">
        <ele>823.03</ele>
        <time>2017-06-14T15:14:41Z</time>
      </trkpt>
      <trkpt lat="44.50563" lon="5.57259">
        <ele>821.1</ele>
        <time>2017-06-14T15:15:00Z</time>
      </trkpt>
      <trkpt lat="44.50564" lon="5.57266">
        <ele>821.1</ele>
        <time>2017-06-14T15:15:04Z</time>
      </trkpt>
      <trkpt lat="44.50556" lon="5.5728">
        <ele>820.62</ele>
        <time>2017-06-14T15:15:23Z</time>
      </trkpt>
      <trkpt lat="44.50555" lon="5.57281">
        <ele>820.62</ele>
        <time>2017-06-14T15:15:24Z</time>
      </trkpt>
      <trkpt lat="44.50556" lon="5.57303">
        <ele>820.14</ele>
        <time>2017-06-14T15:15:39Z</time>
      </trkpt>
      <trkpt lat="44.50561" lon="5.57328">
        <ele>819.66</ele>
        <time>2017-06-14T15:15:53Z</time>
      </trkpt>
      <trkpt lat="44.50561" lon="5.57332">
        <ele>819.66</ele>
        <time>2017-06-14T15:16:06Z</time>
      </trkpt>
      <trkpt lat="44.50561" lon="5.57336">
        <ele>819.18</ele>
        <time>2017-06-14T15:16:36Z</time>
      </trkpt>
      <trkpt lat="44.50557" lon="5.57338">
        <ele>818.7</ele>
        <time>2017-06-14T15:17:11Z</time>
      </trkpt>
      <trkpt lat="44.50565" lon="5.57327">
        <ele>819.18</ele>
        <time>2017-06-14T15:17:37Z</time>
      </trkpt>
      <trkpt lat="44.50564" lon="5.57328">
        <ele>818.7</ele>
        <time>2017-06-14T15:18:05Z</time>
      </trkpt>
      <trkpt lat="44.50564" lon="5.5733">
        <ele>819.18</ele>
        <time>2017-06-14T15:18:45Z</time>
      </trkpt>
      <trkpt lat="44.50563" lon="5.57329">
        <ele>818.7</ele>
        <time>2017-06-14T15:19:27Z</time>
      </trkpt>
      <trkpt lat="44.50562" lon="5.5733">
        <ele>818.7</ele>
        <time>2017-06-14T15:20:07Z</time>
      </trkpt>
      <trkpt lat="44.50564" lon="5.57327">
        <ele>818.7</ele>
        <time>2017-06-14T15:20:40Z</time>
      </trkpt>
      <trkpt lat="44.50565" lon="5.57342">
        <ele>818.22</ele>
        <time>2017-06-14T15:20:55Z</time>
      </trkpt>
      <trkpt lat="44.50571" lon="5.57353">
        <ele>817.74</ele>
        <time>2017-06-14T15:21:07Z</time>
      </trkpt>
      <trkpt lat="44.50574" lon="5.57347">
        <ele>816.78</ele>
        <time>2017-06-14T15:21:19Z</time>
      </trkpt>
      <trkpt lat="44.50574" lon="5.57345">
        <ele>816.78</ele>
        <time>2017-06-14T15:21:48Z</time>
      </trkpt>
      <trkpt lat="44.50573" lon="5.57345">
        <ele>816.78</ele>
        <time>2017-06-14T15:22:22Z</time>
      </trkpt>
      <trkpt lat="44.50572" lon="5.57347">
        <ele>817.26</ele>
        <time>2017-06-14T15:22:51Z</time>
      </trkpt>
      <trkpt lat="44.50574" lon="5.57347">
        <ele>817.74</ele>
        <time>2017-06-14T15:23:17Z</time>
      </trkpt>
      <trkpt lat="44.50576" lon="5.57348">
        <ele>818.22</ele>
        <time>2017-06-14T15:23:47Z</time>
      </trkpt>
      <trkpt lat="44.50574" lon="5.57347">
        <ele>818.22</ele>
        <time>2017-06-14T15:24:22Z</time>
      </trkpt>
      <trkpt lat="44.50573" lon="5.57348">
        <ele>818.7</ele>
        <time>2017-06-14T15:24:53Z</time>
      </trkpt>
      <trkpt lat="44.50574" lon="5.57349">
        <ele>818.7</ele>
        <time>2017-06-14T15:25:32Z</time>
      </trkpt>
      <trkpt lat="44.50573" lon="5.57347">
        <ele>818.22</ele>
        <time>2017-06-14T15:26:09Z</time>
      </trkpt>
      <trkpt lat="44.50574" lon="5.57351">
        <ele>818.22</ele>
        <time>2017-06-14T15:26:40Z</time>
      </trkpt>
      <trkpt lat="44.50576" lon="5.57348">
        <ele>817.74</ele>
        <time>2017-06-14T15:27:29Z</time>
      </trkpt>
      <trkpt lat="44.50576" lon="5.57345">
        <ele>817.26</ele>
        <time>2017-06-14T15:28:04Z</time>
      </trkpt>
      <trkpt lat="44.50573" lon="5.57346">
        <ele>818.22</ele>
        <time>2017-06-14T15:28:44Z</time>
      </trkpt>
      <trkpt lat="44.50571" lon="5.57348">
        <ele>817.74</ele>
        <time>2017-06-14T15:29:01Z</time>
      </trkpt>
      <trkpt lat="44.50568" lon="5.57348">
        <ele>817.26</ele>
        <time>2017-06-14T15:29:30Z</time>
      </trkpt>
      <trkpt lat="44.50571" lon="5.57344">
        <ele>817.26</ele>
        <time>2017-06-14T15:29:39Z</time>
      </trkpt>
      <trkpt lat="44.50599" lon="5.5735">
        <ele>817.26</ele>
        <time>2017-06-14T15:29:49Z</time>
      </trkpt>
      <trkpt lat="44.50601" lon="5.57353">
        <ele>817.26</ele>
        <time>2017-06-14T15:29:50Z</time>
      </trkpt>
      <trkpt lat="44.50602" lon="5.57357">
        <ele>817.26</ele>
        <time>2017-06-14T15:29:51Z</time>
      </trkpt>
      <trkpt lat="44.50603" lon="5.57362">
        <ele>817.26</ele>
        <time>2017-06-14T15:29:52Z</time>
      </trkpt>
      <trkpt lat="44.50603" lon="5.57368">
        <ele>817.26</ele>
        <time>2017-06-14T15:29:53Z</time>
      </trkpt>
      <trkpt lat="44.50602" lon="5.57374">
        <ele>817.74</ele>
        <time>2017-06-14T15:29:54Z</time>
      </trkpt>
      <trkpt lat="44.506" lon="5.57381">
        <ele>817.74</ele>
        <time>2017-06-14T15:29:55Z</time>
      </trkpt>
      <trkpt lat="44.50597" lon="5.57386">
        <ele>794.603577</ele>
        <time>2017-06-14T15:29:56Z</time>
      </trkpt>
    </trkseg>
  </trk>
</gpx>